
<gpx xmlns="http://www.topografix.com/GPX/1/1" xmlns:gpxx="http://www.garmin.com/xmlschemas/GpxExtensions/v3" xmlns:xsi="http://www.w3.org/2001/XMLSchema-instance" version="1.1" creator="Adze - https://getadze.com/" xsi:schemaLocation="http://www.topografix.com/GPX/1/1 http://www.topografix.com/GPX/1/1/gpx.xsd http://www.garmin.com/xmlschemas/GpxExtensions/v3 http://www.garmin.com/xmlschemas/GpxExtensionsv3.xsd">
    <metadata>
        <name>Untitled Document</name>
        <link href="http://www.garmin.com"></link>
        <time>2018-03-08T03:50:56.641Z</time>
    </metadata>
    <wpt lon="101.491445" lat="14.598914">
        <ele>370.000000</ele>
        <name>Paradis Resort</name>
        <cmt>27-MAR-09 16:10:58</cmt>
        <desc>27-MAR-09 16:10:58</desc>
        <sym>City Hall</sym>
        <extensions>
            <gpxx:WaypointExtension xmlns:gpxx="http://www.garmin.com/xmlschemas/GpxExtensions/v3">
                <gpxx:DisplayMode>SymbolOnly</gpxx:DisplayMode>
            </gpxx:WaypointExtension>
        </extensions>
    </wpt>
    <wpt lon="101.484233" lat="14.570310">
        <time>2009-03-29T11:30:34Z</time>
        <name>March 2009 - Saturday water</name>
        <sym>Drinking Water</sym>
        <extensions>
            <gpxx:WaypointExtension xmlns:gpxx="http://www.garmin.com/xmlschemas/GpxExtensions/v3">
                <gpxx:DisplayMode>SymbolOnly</gpxx:DisplayMode>
            </gpxx:WaypointExtension>
        </extensions>
    </wpt>
    <trk>
        <name>March 2009 - Saturday shortcut</name>
        <extensions>
            <gpxx:TrackExtension xmlns:gpxx="http://www.garmin.com/xmlschemas/GpxExtensions/v3">
                <gpxx:DisplayColor>DarkRed</gpxx:DisplayColor>
            </gpxx:TrackExtension>
        </extensions>
        <trkseg>
            <trkpt lon="101.527616" lat="14.582704">
                <ele>548.569336</ele>
                <time>2009-03-28T06:44:27Z</time>
            </trkpt>
            <trkpt lon="101.527609" lat="14.582686">
                <ele>549.530762</ele>
                <time>2009-03-28T06:44:52Z</time>
            </trkpt>
            <trkpt lon="101.527612" lat="14.582670">
                <ele>547.608154</ele>
                <time>2009-03-28T06:46:13Z</time>
            </trkpt>
            <trkpt lon="101.527606" lat="14.582667">
                <ele>547.127441</ele>
                <time>2009-03-28T06:46:14Z</time>
            </trkpt>
            <trkpt lon="101.527580" lat="14.582595">
                <ele>546.646851</ele>
                <time>2009-03-28T06:46:20Z</time>
            </trkpt>
            <trkpt lon="101.527589" lat="14.582192">
                <ele>543.282104</ele>
                <time>2009-03-28T06:46:36Z</time>
            </trkpt>
            <trkpt lon="101.527341" lat="14.581780">
                <ele>535.591553</ele>
                <time>2009-03-28T06:46:51Z</time>
            </trkpt>
            <trkpt lon="101.527023" lat="14.581168">
                <ele>527.420410</ele>
                <time>2009-03-28T06:47:07Z</time>
            </trkpt>
            <trkpt lon="101.526936" lat="14.580993">
                <ele>525.497803</ele>
                <time>2009-03-28T06:47:11Z</time>
            </trkpt>
            <trkpt lon="101.526718" lat="14.580393">
                <ele>522.613892</ele>
                <time>2009-03-28T06:47:24Z</time>
            </trkpt>
            <trkpt lon="101.526654" lat="14.579909">
                <ele>520.210571</ele>
                <time>2009-03-28T06:47:38Z</time>
            </trkpt>
            <trkpt lon="101.526599" lat="14.579850">
                <ele>517.807251</ele>
                <time>2009-03-28T06:47:41Z</time>
            </trkpt>
            <trkpt lon="101.526411" lat="14.579787">
                <ele>515.404053</ele>
                <time>2009-03-28T06:47:45Z</time>
            </trkpt>
            <trkpt lon="101.526225" lat="14.579631">
                <ele>514.442627</ele>
                <time>2009-03-28T06:47:50Z</time>
            </trkpt>
            <trkpt lon="101.526049" lat="14.578748">
                <ele>509.636108</ele>
                <time>2009-03-28T06:48:06Z</time>
            </trkpt>
            <trkpt lon="101.526047" lat="14.578688">
                <ele>509.155395</ele>
                <time>2009-03-28T06:48:07Z</time>
            </trkpt>
            <trkpt lon="101.526140" lat="14.577800">
                <ele>505.310181</ele>
                <time>2009-03-28T06:48:23Z</time>
            </trkpt>
            <trkpt lon="101.526190" lat="14.576932">
                <ele>500.503540</ele>
                <time>2009-03-28T06:48:38Z</time>
            </trkpt>
            <trkpt lon="101.526202" lat="14.576479">
                <ele>498.580933</ele>
                <time>2009-03-28T06:48:46Z</time>
            </trkpt>
            <trkpt lon="101.526422" lat="14.575677">
                <ele>496.177734</ele>
                <time>2009-03-28T06:49:04Z</time>
            </trkpt>
            <trkpt lon="101.526499" lat="14.575393">
                <ele>495.216186</ele>
                <time>2009-03-28T06:49:10Z</time>
            </trkpt>
            <trkpt lon="101.526832" lat="14.574697">
                <ele>492.812988</ele>
                <time>2009-03-28T06:49:26Z</time>
            </trkpt>
            <trkpt lon="101.527115" lat="14.574018">
                <ele>489.448364</ele>
                <time>2009-03-28T06:49:41Z</time>
            </trkpt>
            <trkpt lon="101.527272" lat="14.573704">
                <ele>488.487183</ele>
                <time>2009-03-28T06:49:48Z</time>
            </trkpt>
            <trkpt lon="101.527508" lat="14.573606">
                <ele>488.487183</ele>
                <time>2009-03-28T06:49:55Z</time>
            </trkpt>
            <trkpt lon="101.527687" lat="14.573815">
                <ele>489.448364</ele>
                <time>2009-03-28T06:50:07Z</time>
            </trkpt>
            <trkpt lon="101.527883" lat="14.574087">
                <ele>493.774292</ele>
                <time>2009-03-28T06:50:26Z</time>
            </trkpt>
            <trkpt lon="101.528142" lat="14.574213">
                <ele>495.696899</ele>
                <time>2009-03-28T06:50:43Z</time>
            </trkpt>
            <trkpt lon="101.528265" lat="14.574249">
                <ele>497.619629</ele>
                <time>2009-03-28T06:50:57Z</time>
            </trkpt>
            <trkpt lon="101.528426" lat="14.574270">
                <ele>500.022949</ele>
                <time>2009-03-28T06:51:15Z</time>
            </trkpt>
            <trkpt lon="101.528679" lat="14.574278">
                <ele>503.387451</ele>
                <time>2009-03-28T06:51:34Z</time>
            </trkpt>
            <trkpt lon="101.529008" lat="14.574281">
                <ele>503.868164</ele>
                <time>2009-03-28T06:51:55Z</time>
            </trkpt>
            <trkpt lon="101.529350" lat="14.574340">
                <ele>503.868164</ele>
                <time>2009-03-28T06:52:09Z</time>
            </trkpt>
            <trkpt lon="101.529767" lat="14.574317">
                <ele>504.829468</ele>
                <time>2009-03-28T06:52:27Z</time>
            </trkpt>
            <trkpt lon="101.530045" lat="14.574345">
                <ele>507.232788</ele>
                <time>2009-03-28T06:52:43Z</time>
            </trkpt>
            <trkpt lon="101.530278" lat="14.574500">
                <ele>509.155395</ele>
                <time>2009-03-28T06:53:01Z</time>
            </trkpt>
            <trkpt lon="101.530515" lat="14.574723">
                <ele>510.116699</ele>
                <time>2009-03-28T06:53:20Z</time>
            </trkpt>
            <trkpt lon="101.530939" lat="14.574769">
                <ele>509.155395</ele>
                <time>2009-03-28T06:53:39Z</time>
            </trkpt>
            <trkpt lon="101.531567" lat="14.574768">
                <ele>506.752075</ele>
                <time>2009-03-28T06:53:56Z</time>
            </trkpt>
            <trkpt lon="101.532348" lat="14.574674">
                <ele>504.348877</ele>
                <time>2009-03-28T06:54:15Z</time>
            </trkpt>
            <trkpt lon="101.532898" lat="14.574660">
                <ele>502.426148</ele>
                <time>2009-03-28T06:54:32Z</time>
            </trkpt>
            <trkpt lon="101.533416" lat="14.574756">
                <ele>499.542236</ele>
                <time>2009-03-28T06:54:49Z</time>
            </trkpt>
            <trkpt lon="101.534060" lat="14.574626">
                <ele>493.293579</ele>
                <time>2009-03-28T06:55:06Z</time>
            </trkpt>
            <trkpt lon="101.534482" lat="14.574504">
                <ele>490.409790</ele>
                <time>2009-03-28T06:55:20Z</time>
            </trkpt>
            <trkpt lon="101.534523" lat="14.574479">
                <ele>489.929077</ele>
                <time>2009-03-28T06:55:26Z</time>
            </trkpt>
        </trkseg>
    </trk>
    <trk>
        <name>March 2009 - Saturday</name>
        <extensions>
            <gpxx:TrackExtension xmlns:gpxx="http://www.garmin.com/xmlschemas/GpxExtensions/v3">
                <gpxx:DisplayColor>Red</gpxx:DisplayColor>
            </gpxx:TrackExtension>
        </extensions>
        <trkseg>
            <trkpt lon="101.491677" lat="14.598994">
                <ele>377.935425</ele>
                <time>2009-03-28T06:06:23Z</time>
            </trkpt>
            <trkpt lon="101.491692" lat="14.599170">
                <ele>377.454834</ele>
                <time>2009-03-28T06:06:31Z</time>
            </trkpt>
            <trkpt lon="101.491645" lat="14.599471">
                <ele>375.051514</ele>
                <time>2009-03-28T06:06:38Z</time>
            </trkpt>
            <trkpt lon="101.491681" lat="14.599716">
                <ele>376.493530</ele>
                <time>2009-03-28T06:06:43Z</time>
            </trkpt>
            <trkpt lon="101.491737" lat="14.599965">
                <ele>377.935425</ele>
                <time>2009-03-28T06:06:51Z</time>
            </trkpt>
            <trkpt lon="101.491819" lat="14.600284">
                <ele>377.935425</ele>
                <time>2009-03-28T06:06:59Z</time>
            </trkpt>
            <trkpt lon="101.491940" lat="14.600709">
                <ele>377.935425</ele>
                <time>2009-03-28T06:07:10Z</time>
            </trkpt>
            <trkpt lon="101.491957" lat="14.600774">
                <ele>377.454834</ele>
                <time>2009-03-28T06:07:12Z</time>
            </trkpt>
            <trkpt lon="101.492082" lat="14.600808">
                <ele>377.454834</ele>
                <time>2009-03-28T06:07:17Z</time>
            </trkpt>
            <trkpt lon="101.492506" lat="14.600699">
                <ele>379.858032</ele>
                <time>2009-03-28T06:07:29Z</time>
            </trkpt>
            <trkpt lon="101.492855" lat="14.600617">
                <ele>381.780640</ele>
                <time>2009-03-28T06:07:39Z</time>
            </trkpt>
            <trkpt lon="101.493326" lat="14.600496">
                <ele>383.703247</ele>
                <time>2009-03-28T06:07:53Z</time>
            </trkpt>
            <trkpt lon="101.493788" lat="14.600378">
                <ele>384.664795</ele>
                <time>2009-03-28T06:08:07Z</time>
            </trkpt>
            <trkpt lon="101.493849" lat="14.600364">
                <ele>385.625977</ele>
                <time>2009-03-28T06:08:09Z</time>
            </trkpt>
            <trkpt lon="101.494214" lat="14.600271">
                <ele>386.587402</ele>
                <time>2009-03-28T06:08:21Z</time>
            </trkpt>
            <trkpt lon="101.494632" lat="14.600168">
                <ele>388.029297</ele>
                <time>2009-03-28T06:08:35Z</time>
            </trkpt>
            <trkpt lon="101.495096" lat="14.600058">
                <ele>389.951904</ele>
                <time>2009-03-28T06:08:50Z</time>
            </trkpt>
            <trkpt lon="101.495538" lat="14.599937">
                <ele>390.913208</ele>
                <time>2009-03-28T06:09:05Z</time>
            </trkpt>
            <trkpt lon="101.495871" lat="14.599849">
                <ele>391.393799</ele>
                <time>2009-03-28T06:09:16Z</time>
            </trkpt>
            <trkpt lon="101.496085" lat="14.599807">
                <ele>391.874512</ele>
                <time>2009-03-28T06:09:26Z</time>
            </trkpt>
            <trkpt lon="101.496347" lat="14.599752">
                <ele>392.355347</ele>
                <time>2009-03-28T06:09:39Z</time>
            </trkpt>
            <trkpt lon="101.496514" lat="14.599715">
                <ele>393.797241</ele>
                <time>2009-03-28T06:09:49Z</time>
            </trkpt>
            <trkpt lon="101.496662" lat="14.599676">
                <ele>396.200561</ele>
                <time>2009-03-28T06:09:58Z</time>
            </trkpt>
            <trkpt lon="101.496848" lat="14.599622">
                <ele>397.642456</ele>
                <time>2009-03-28T06:10:09Z</time>
            </trkpt>
            <trkpt lon="101.496996" lat="14.599613">
                <ele>398.603760</ele>
                <time>2009-03-28T06:10:16Z</time>
            </trkpt>
            <trkpt lon="101.497173" lat="14.599623">
                <ele>401.007080</ele>
                <time>2009-03-28T06:10:25Z</time>
            </trkpt>
            <trkpt lon="101.497311" lat="14.599603">
                <ele>403.410400</ele>
                <time>2009-03-28T06:10:33Z</time>
            </trkpt>
            <trkpt lon="101.497431" lat="14.599568">
                <ele>405.813721</ele>
                <time>2009-03-28T06:10:41Z</time>
            </trkpt>
            <trkpt lon="101.497537" lat="14.599534">
                <ele>407.736328</ele>
                <time>2009-03-28T06:10:49Z</time>
            </trkpt>
            <trkpt lon="101.497646" lat="14.599508">
                <ele>410.139648</ele>
                <time>2009-03-28T06:10:59Z</time>
            </trkpt>
            <trkpt lon="101.497772" lat="14.599473">
                <ele>412.542847</ele>
                <time>2009-03-28T06:11:11Z</time>
            </trkpt>
            <trkpt lon="101.497886" lat="14.599450">
                <ele>414.465454</ele>
                <time>2009-03-28T06:11:19Z</time>
            </trkpt>
            <trkpt lon="101.497967" lat="14.599346">
                <ele>416.868897</ele>
                <time>2009-03-28T06:11:28Z</time>
            </trkpt>
            <trkpt lon="101.498030" lat="14.599171">
                <ele>417.349609</ele>
                <time>2009-03-28T06:11:38Z</time>
            </trkpt>
            <trkpt lon="101.498074" lat="14.599067">
                <ele>414.946167</ele>
                <time>2009-03-28T06:11:42Z</time>
            </trkpt>
            <trkpt lon="101.498185" lat="14.598878">
                <ele>414.465454</ele>
                <time>2009-03-28T06:11:48Z</time>
            </trkpt>
            <trkpt lon="101.498420" lat="14.598435">
                <ele>413.984863</ele>
                <time>2009-03-28T06:12:02Z</time>
            </trkpt>
            <trkpt lon="101.498598" lat="14.598248">
                <ele>417.349609</ele>
                <time>2009-03-28T06:12:09Z</time>
            </trkpt>
            <trkpt lon="101.498683" lat="14.598197">
                <ele>414.946167</ele>
                <time>2009-03-28T06:12:12Z</time>
            </trkpt>
            <trkpt lon="101.498975" lat="14.598054">
                <ele>413.984863</ele>
                <time>2009-03-28T06:12:20Z</time>
            </trkpt>
            <trkpt lon="101.499396" lat="14.597850">
                <ele>414.946167</ele>
                <time>2009-03-28T06:12:32Z</time>
            </trkpt>
            <trkpt lon="101.499789" lat="14.597701">
                <ele>413.984863</ele>
                <time>2009-03-28T06:12:44Z</time>
            </trkpt>
            <trkpt lon="101.500007" lat="14.597642">
                <ele>414.946167</ele>
                <time>2009-03-28T06:12:50Z</time>
            </trkpt>
            <trkpt lon="101.500348" lat="14.597557">
                <ele>415.426880</ele>
                <time>2009-03-28T06:12:59Z</time>
            </trkpt>
            <trkpt lon="101.500833" lat="14.597553">
                <ele>415.426880</ele>
                <time>2009-03-28T06:13:11Z</time>
            </trkpt>
            <trkpt lon="101.501460" lat="14.597653">
                <ele>415.426880</ele>
                <time>2009-03-28T06:13:26Z</time>
            </trkpt>
            <trkpt lon="101.501839" lat="14.597717">
                <ele>417.830200</ele>
                <time>2009-03-28T06:13:36Z</time>
            </trkpt>
            <trkpt lon="101.502084" lat="14.597738">
                <ele>418.310791</ele>
                <time>2009-03-28T06:13:44Z</time>
            </trkpt>
            <trkpt lon="101.502409" lat="14.597728">
                <ele>419.272217</ele>
                <time>2009-03-28T06:13:54Z</time>
            </trkpt>
            <trkpt lon="101.502833" lat="14.597759">
                <ele>421.194824</ele>
                <time>2009-03-28T06:14:08Z</time>
            </trkpt>
            <trkpt lon="101.502941" lat="14.597783">
                <ele>424.078735</ele>
                <time>2009-03-28T06:14:13Z</time>
            </trkpt>
            <trkpt lon="101.503207" lat="14.597833">
                <ele>425.040161</ele>
                <time>2009-03-28T06:14:25Z</time>
            </trkpt>
            <trkpt lon="101.503526" lat="14.597904">
                <ele>425.520752</ele>
                <time>2009-03-28T06:14:38Z</time>
            </trkpt>
            <trkpt lon="101.503883" lat="14.597988">
                <ele>426.001343</ele>
                <time>2009-03-28T06:14:51Z</time>
            </trkpt>
            <trkpt lon="101.504244" lat="14.598005">
                <ele>425.040161</ele>
                <time>2009-03-28T06:15:01Z</time>
            </trkpt>
            <trkpt lon="101.504572" lat="14.598100">
                <ele>424.078735</ele>
                <time>2009-03-28T06:15:10Z</time>
            </trkpt>
            <trkpt lon="101.504757" lat="14.598183">
                <ele>423.598023</ele>
                <time>2009-03-28T06:15:15Z</time>
            </trkpt>
            <trkpt lon="101.504982" lat="14.598203">
                <ele>422.636719</ele>
                <time>2009-03-28T06:15:20Z</time>
            </trkpt>
            <trkpt lon="101.505335" lat="14.598179">
                <ele>421.194824</ele>
                <time>2009-03-28T06:15:27Z</time>
            </trkpt>
            <trkpt lon="101.505579" lat="14.598168">
                <ele>418.310791</ele>
                <time>2009-03-28T06:15:31Z</time>
            </trkpt>
            <trkpt lon="101.505836" lat="14.598187">
                <ele>417.830200</ele>
                <time>2009-03-28T06:15:35Z</time>
            </trkpt>
            <trkpt lon="101.506360" lat="14.598061">
                <ele>417.349609</ele>
                <time>2009-03-28T06:15:43Z</time>
            </trkpt>
            <trkpt lon="101.506863" lat="14.597881">
                <ele>417.830200</ele>
                <time>2009-03-28T06:15:52Z</time>
            </trkpt>
            <trkpt lon="101.507046" lat="14.597830">
                <ele>417.830200</ele>
                <time>2009-03-28T06:15:56Z</time>
            </trkpt>
            <trkpt lon="101.507532" lat="14.597854">
                <ele>416.388184</ele>
                <time>2009-03-28T06:16:05Z</time>
            </trkpt>
            <trkpt lon="101.507591" lat="14.597861">
                <ele>416.868897</ele>
                <time>2009-03-28T06:16:06Z</time>
            </trkpt>
            <trkpt lon="101.507902" lat="14.597778">
                <ele>415.907471</ele>
                <time>2009-03-28T06:16:12Z</time>
            </trkpt>
            <trkpt lon="101.507940" lat="14.597746">
                <ele>416.388184</ele>
                <time>2009-03-28T06:16:13Z</time>
            </trkpt>
            <trkpt lon="101.507999" lat="14.597671">
                <ele>415.907471</ele>
                <time>2009-03-28T06:16:15Z</time>
            </trkpt>
            <trkpt lon="101.508196" lat="14.597195">
                <ele>417.349609</ele>
                <time>2009-03-28T06:16:26Z</time>
            </trkpt>
            <trkpt lon="101.508337" lat="14.596877">
                <ele>417.349609</ele>
                <time>2009-03-28T06:16:34Z</time>
            </trkpt>
            <trkpt lon="101.508646" lat="14.596574">
                <ele>417.830200</ele>
                <time>2009-03-28T06:16:44Z</time>
            </trkpt>
            <trkpt lon="101.508963" lat="14.596250">
                <ele>418.791504</ele>
                <time>2009-03-28T06:16:54Z</time>
            </trkpt>
            <trkpt lon="101.509333" lat="14.596075">
                <ele>419.752808</ele>
                <time>2009-03-28T06:17:04Z</time>
            </trkpt>
            <trkpt lon="101.509816" lat="14.595945">
                <ele>419.752808</ele>
                <time>2009-03-28T06:17:17Z</time>
            </trkpt>
            <trkpt lon="101.510070" lat="14.595803">
                <ele>420.714111</ele>
                <time>2009-03-28T06:17:25Z</time>
            </trkpt>
            <trkpt lon="101.510326" lat="14.595602">
                <ele>421.194824</ele>
                <time>2009-03-28T06:17:34Z</time>
            </trkpt>
            <trkpt lon="101.510655" lat="14.595511">
                <ele>421.675415</ele>
                <time>2009-03-28T06:17:43Z</time>
            </trkpt>
            <trkpt lon="101.511029" lat="14.595323">
                <ele>422.156006</ele>
                <time>2009-03-28T06:17:54Z</time>
            </trkpt>
            <trkpt lon="101.511316" lat="14.595253">
                <ele>422.636719</ele>
                <time>2009-03-28T06:18:02Z</time>
            </trkpt>
            <trkpt lon="101.511434" lat="14.595236">
                <ele>423.117432</ele>
                <time>2009-03-28T06:18:05Z</time>
            </trkpt>
            <trkpt lon="101.511741" lat="14.595217">
                <ele>423.117432</ele>
                <time>2009-03-28T06:18:12Z</time>
            </trkpt>
            <trkpt lon="101.511879" lat="14.595221">
                <ele>423.117432</ele>
                <time>2009-03-28T06:18:15Z</time>
            </trkpt>
            <trkpt lon="101.512011" lat="14.595199">
                <ele>422.636719</ele>
                <time>2009-03-28T06:18:18Z</time>
            </trkpt>
            <trkpt lon="101.512350" lat="14.595028">
                <ele>423.598023</ele>
                <time>2009-03-28T06:18:27Z</time>
            </trkpt>
            <trkpt lon="101.512731" lat="14.594927">
                <ele>424.559448</ele>
                <time>2009-03-28T06:18:37Z</time>
            </trkpt>
            <trkpt lon="101.513064" lat="14.594889">
                <ele>425.040161</ele>
                <time>2009-03-28T06:18:46Z</time>
            </trkpt>
            <trkpt lon="101.513496" lat="14.594803">
                <ele>425.040161</ele>
                <time>2009-03-28T06:18:58Z</time>
            </trkpt>
            <trkpt lon="101.513638" lat="14.594776">
                <ele>426.001343</ele>
                <time>2009-03-28T06:19:04Z</time>
            </trkpt>
            <trkpt lon="101.513843" lat="14.594728">
                <ele>426.482056</ele>
                <time>2009-03-28T06:19:13Z</time>
            </trkpt>
            <trkpt lon="101.514010" lat="14.594688">
                <ele>426.962769</ele>
                <time>2009-03-28T06:19:24Z</time>
            </trkpt>
            <trkpt lon="101.514154" lat="14.594651">
                <ele>426.962769</ele>
                <time>2009-03-28T06:19:32Z</time>
            </trkpt>
            <trkpt lon="101.514411" lat="14.594591">
                <ele>427.443359</ele>
                <time>2009-03-28T06:19:44Z</time>
            </trkpt>
            <trkpt lon="101.514600" lat="14.594483">
                <ele>427.923950</ele>
                <time>2009-03-28T06:19:55Z</time>
            </trkpt>
            <trkpt lon="101.514754" lat="14.594366">
                <ele>428.404663</ele>
                <time>2009-03-28T06:20:02Z</time>
            </trkpt>
            <trkpt lon="101.515074" lat="14.594101">
                <ele>428.404663</ele>
                <time>2009-03-28T06:20:14Z</time>
            </trkpt>
            <trkpt lon="101.515264" lat="14.593912">
                <ele>429.365967</ele>
                <time>2009-03-28T06:20:23Z</time>
            </trkpt>
            <trkpt lon="101.515300" lat="14.593903">
                <ele>429.365967</ele>
                <time>2009-03-28T06:20:26Z</time>
            </trkpt>
            <trkpt lon="101.515325" lat="14.593887">
                <ele>430.327270</ele>
                <time>2009-03-28T06:20:28Z</time>
            </trkpt>
            <trkpt lon="101.515418" lat="14.593882">
                <ele>428.404663</ele>
                <time>2009-03-28T06:20:32Z</time>
            </trkpt>
            <trkpt lon="101.515445" lat="14.593915">
                <ele>428.404663</ele>
                <time>2009-03-28T06:20:33Z</time>
            </trkpt>
            <trkpt lon="101.515653" lat="14.594084">
                <ele>429.365967</ele>
                <time>2009-03-28T06:20:40Z</time>
            </trkpt>
            <trkpt lon="101.516080" lat="14.594147">
                <ele>429.846558</ele>
                <time>2009-03-28T06:20:51Z</time>
            </trkpt>
            <trkpt lon="101.516496" lat="14.594177">
                <ele>431.288574</ele>
                <time>2009-03-28T06:21:03Z</time>
            </trkpt>
            <trkpt lon="101.516993" lat="14.594213">
                <ele>432.250000</ele>
                <time>2009-03-28T06:21:17Z</time>
            </trkpt>
            <trkpt lon="101.517402" lat="14.594312">
                <ele>431.769165</ele>
                <time>2009-03-28T06:21:29Z</time>
            </trkpt>
            <trkpt lon="101.517545" lat="14.594357">
                <ele>429.846558</ele>
                <time>2009-03-28T06:21:32Z</time>
            </trkpt>
            <trkpt lon="101.517627" lat="14.594387">
                <ele>431.288574</ele>
                <time>2009-03-28T06:21:34Z</time>
            </trkpt>
            <trkpt lon="101.517886" lat="14.594470">
                <ele>432.730713</ele>
                <time>2009-03-28T06:21:42Z</time>
            </trkpt>
            <trkpt lon="101.518098" lat="14.594520">
                <ele>433.211304</ele>
                <time>2009-03-28T06:21:50Z</time>
            </trkpt>
            <trkpt lon="101.518538" lat="14.594592">
                <ele>433.691894</ele>
                <time>2009-03-28T06:22:04Z</time>
            </trkpt>
            <trkpt lon="101.518959" lat="14.594595">
                <ele>434.172607</ele>
                <time>2009-03-28T06:22:17Z</time>
            </trkpt>
            <trkpt lon="101.519321" lat="14.594560">
                <ele>434.653320</ele>
                <time>2009-03-28T06:22:28Z</time>
            </trkpt>
            <trkpt lon="101.519722" lat="14.594531">
                <ele>435.133911</ele>
                <time>2009-03-28T06:22:40Z</time>
            </trkpt>
            <trkpt lon="101.520097" lat="14.594557">
                <ele>435.614502</ele>
                <time>2009-03-28T06:22:52Z</time>
            </trkpt>
            <trkpt lon="101.520462" lat="14.594596">
                <ele>436.575928</ele>
                <time>2009-03-28T06:23:04Z</time>
            </trkpt>
            <trkpt lon="101.520743" lat="14.594606">
                <ele>437.537109</ele>
                <time>2009-03-28T06:23:14Z</time>
            </trkpt>
            <trkpt lon="101.521192" lat="14.594656">
                <ele>437.537109</ele>
                <time>2009-03-28T06:23:28Z</time>
            </trkpt>
            <trkpt lon="101.521561" lat="14.594693">
                <ele>439.459717</ele>
                <time>2009-03-28T06:23:40Z</time>
            </trkpt>
            <trkpt lon="101.521976" lat="14.594723">
                <ele>439.940430</ele>
                <time>2009-03-28T06:23:53Z</time>
            </trkpt>
            <trkpt lon="101.522389" lat="14.594722">
                <ele>440.421265</ele>
                <time>2009-03-28T06:24:06Z</time>
            </trkpt>
            <trkpt lon="101.522740" lat="14.594639">
                <ele>440.421265</ele>
                <time>2009-03-28T06:24:18Z</time>
            </trkpt>
            <trkpt lon="101.523109" lat="14.594552">
                <ele>441.382446</ele>
                <time>2009-03-28T06:24:31Z</time>
            </trkpt>
            <trkpt lon="101.523476" lat="14.594511">
                <ele>442.824463</ele>
                <time>2009-03-28T06:24:44Z</time>
            </trkpt>
            <trkpt lon="101.523756" lat="14.594496">
                <ele>443.305054</ele>
                <time>2009-03-28T06:24:53Z</time>
            </trkpt>
            <trkpt lon="101.524154" lat="14.594525">
                <ele>444.266480</ele>
                <time>2009-03-28T06:25:06Z</time>
            </trkpt>
            <trkpt lon="101.524416" lat="14.594513">
                <ele>444.266480</ele>
                <time>2009-03-28T06:25:15Z</time>
            </trkpt>
            <trkpt lon="101.524784" lat="14.594473">
                <ele>444.266480</ele>
                <time>2009-03-28T06:25:27Z</time>
            </trkpt>
            <trkpt lon="101.525154" lat="14.594442">
                <ele>445.227661</ele>
                <time>2009-03-28T06:25:40Z</time>
            </trkpt>
            <trkpt lon="101.525383" lat="14.594408">
                <ele>446.189087</ele>
                <time>2009-03-28T06:25:51Z</time>
            </trkpt>
            <trkpt lon="101.525611" lat="14.594383">
                <ele>449.072998</ele>
                <time>2009-03-28T06:26:03Z</time>
            </trkpt>
            <trkpt lon="101.525790" lat="14.594353">
                <ele>450.515015</ele>
                <time>2009-03-28T06:26:12Z</time>
            </trkpt>
            <trkpt lon="101.526042" lat="14.594321">
                <ele>451.476318</ele>
                <time>2009-03-28T06:26:25Z</time>
            </trkpt>
            <trkpt lon="101.526293" lat="14.594277">
                <ele>451.957031</ele>
                <time>2009-03-28T06:26:38Z</time>
            </trkpt>
            <trkpt lon="101.526514" lat="14.594211">
                <ele>453.879639</ele>
                <time>2009-03-28T06:26:50Z</time>
            </trkpt>
            <trkpt lon="101.526735" lat="14.594145">
                <ele>454.840820</ele>
                <time>2009-03-28T06:27:02Z</time>
            </trkpt>
            <trkpt lon="101.526963" lat="14.594109">
                <ele>456.282959</ele>
                <time>2009-03-28T06:27:14Z</time>
            </trkpt>
            <trkpt lon="101.527185" lat="14.594102">
                <ele>456.282959</ele>
                <time>2009-03-28T06:27:23Z</time>
            </trkpt>
            <trkpt lon="101.527452" lat="14.594097">
                <ele>454.840820</ele>
                <time>2009-03-28T06:27:32Z</time>
            </trkpt>
            <trkpt lon="101.527815" lat="14.594099">
                <ele>454.360230</ele>
                <time>2009-03-28T06:27:43Z</time>
            </trkpt>
            <trkpt lon="101.528076" lat="14.594204">
                <ele>453.879639</ele>
                <time>2009-03-28T06:27:51Z</time>
            </trkpt>
            <trkpt lon="101.528473" lat="14.594433">
                <ele>452.918213</ele>
                <time>2009-03-28T06:28:02Z</time>
            </trkpt>
            <trkpt lon="101.528788" lat="14.594571">
                <ele>454.840820</ele>
                <time>2009-03-28T06:28:13Z</time>
            </trkpt>
            <trkpt lon="101.528809" lat="14.594582">
                <ele>454.360230</ele>
                <time>2009-03-28T06:28:14Z</time>
            </trkpt>
            <trkpt lon="101.529000" lat="14.594722">
                <ele>456.763550</ele>
                <time>2009-03-28T06:28:25Z</time>
            </trkpt>
            <trkpt lon="101.529218" lat="14.594893">
                <ele>458.686157</ele>
                <time>2009-03-28T06:28:38Z</time>
            </trkpt>
            <trkpt lon="101.529427" lat="14.595052">
                <ele>459.166870</ele>
                <time>2009-03-28T06:28:50Z</time>
            </trkpt>
            <trkpt lon="101.529676" lat="14.595234">
                <ele>460.128174</ele>
                <time>2009-03-28T06:29:01Z</time>
            </trkpt>
            <trkpt lon="101.529895" lat="14.595381">
                <ele>462.531372</ele>
                <time>2009-03-28T06:29:11Z</time>
            </trkpt>
            <trkpt lon="101.529960" lat="14.595427">
                <ele>463.973389</ele>
                <time>2009-03-28T06:29:14Z</time>
            </trkpt>
            <trkpt lon="101.530173" lat="14.595605">
                <ele>464.934815</ele>
                <time>2009-03-28T06:29:26Z</time>
            </trkpt>
            <trkpt lon="101.530450" lat="14.595757">
                <ele>465.415527</ele>
                <time>2009-03-28T06:29:38Z</time>
            </trkpt>
            <trkpt lon="101.530751" lat="14.595914">
                <ele>463.492798</ele>
                <time>2009-03-28T06:29:48Z</time>
            </trkpt>
            <trkpt lon="101.531013" lat="14.596061">
                <ele>461.570190</ele>
                <time>2009-03-28T06:29:55Z</time>
            </trkpt>
            <trkpt lon="101.531175" lat="14.596043">
                <ele>461.089477</ele>
                <time>2009-03-28T06:30:00Z</time>
            </trkpt>
            <trkpt lon="101.531184" lat="14.595973">
                <ele>460.608765</ele>
                <time>2009-03-28T06:30:02Z</time>
            </trkpt>
            <trkpt lon="101.531226" lat="14.595541">
                <ele>458.205566</ele>
                <time>2009-03-28T06:30:11Z</time>
            </trkpt>
            <trkpt lon="101.531248" lat="14.595007">
                <ele>456.282959</ele>
                <time>2009-03-28T06:30:19Z</time>
            </trkpt>
            <trkpt lon="101.531269" lat="14.594575">
                <ele>456.282959</ele>
                <time>2009-03-28T06:30:27Z</time>
            </trkpt>
            <trkpt lon="101.531303" lat="14.594026">
                <ele>456.763550</ele>
                <time>2009-03-28T06:30:38Z</time>
            </trkpt>
            <trkpt lon="101.531325" lat="14.593543">
                <ele>458.686157</ele>
                <time>2009-03-28T06:30:49Z</time>
            </trkpt>
            <trkpt lon="101.531322" lat="14.593335">
                <ele>459.647583</ele>
                <time>2009-03-28T06:30:56Z</time>
            </trkpt>
            <trkpt lon="101.531335" lat="14.593122">
                <ele>462.050781</ele>
                <time>2009-03-28T06:31:06Z</time>
            </trkpt>
            <trkpt lon="101.531346" lat="14.592900">
                <ele>463.973389</ele>
                <time>2009-03-28T06:31:18Z</time>
            </trkpt>
            <trkpt lon="101.531372" lat="14.592708">
                <ele>465.415527</ele>
                <time>2009-03-28T06:31:29Z</time>
            </trkpt>
            <trkpt lon="101.531408" lat="14.592505">
                <ele>465.896118</ele>
                <time>2009-03-28T06:31:41Z</time>
            </trkpt>
            <trkpt lon="101.531467" lat="14.592333">
                <ele>465.415527</ele>
                <time>2009-03-28T06:31:49Z</time>
            </trkpt>
            <trkpt lon="101.531548" lat="14.592033">
                <ele>465.896118</ele>
                <time>2009-03-28T06:32:01Z</time>
            </trkpt>
            <trkpt lon="101.531553" lat="14.591801">
                <ele>466.857422</ele>
                <time>2009-03-28T06:32:11Z</time>
            </trkpt>
            <trkpt lon="101.531488" lat="14.591629">
                <ele>467.818726</ele>
                <time>2009-03-28T06:32:19Z</time>
            </trkpt>
            <trkpt lon="101.531313" lat="14.591415">
                <ele>468.299316</ele>
                <time>2009-03-28T06:32:30Z</time>
            </trkpt>
            <trkpt lon="101.531097" lat="14.591169">
                <ele>470.221924</ele>
                <time>2009-03-28T06:32:44Z</time>
            </trkpt>
            <trkpt lon="101.530878" lat="14.591032">
                <ele>468.780029</ele>
                <time>2009-03-28T06:32:55Z</time>
            </trkpt>
            <trkpt lon="101.530689" lat="14.590918">
                <ele>465.415527</ele>
                <time>2009-03-28T06:33:00Z</time>
            </trkpt>
            <trkpt lon="101.530544" lat="14.590825">
                <ele>462.050781</ele>
                <time>2009-03-28T06:33:03Z</time>
            </trkpt>
            <trkpt lon="101.530411" lat="14.590656">
                <ele>461.570190</ele>
                <time>2009-03-28T06:33:06Z</time>
            </trkpt>
            <trkpt lon="101.530236" lat="14.590533">
                <ele>462.050781</ele>
                <time>2009-03-28T06:33:09Z</time>
            </trkpt>
            <trkpt lon="101.530080" lat="14.590420">
                <ele>460.608765</ele>
                <time>2009-03-28T06:33:12Z</time>
            </trkpt>
            <trkpt lon="101.529978" lat="14.590246">
                <ele>462.531372</ele>
                <time>2009-03-28T06:33:17Z</time>
            </trkpt>
            <trkpt lon="101.529937" lat="14.590154">
                <ele>463.492798</ele>
                <time>2009-03-28T06:33:23Z</time>
            </trkpt>
            <trkpt lon="101.529898" lat="14.590082">
                <ele>464.934815</ele>
                <time>2009-03-28T06:33:27Z</time>
            </trkpt>
            <trkpt lon="101.529822" lat="14.589941">
                <ele>467.818726</ele>
                <time>2009-03-28T06:33:36Z</time>
            </trkpt>
            <trkpt lon="101.529740" lat="14.589806">
                <ele>469.741333</ele>
                <time>2009-03-28T06:33:45Z</time>
            </trkpt>
            <trkpt lon="101.529651" lat="14.589655">
                <ele>472.144653</ele>
                <time>2009-03-28T06:33:55Z</time>
            </trkpt>
            <trkpt lon="101.529573" lat="14.589510">
                <ele>474.067261</ele>
                <time>2009-03-28T06:34:05Z</time>
            </trkpt>
            <trkpt lon="101.529494" lat="14.589355">
                <ele>477.431885</ele>
                <time>2009-03-28T06:34:16Z</time>
            </trkpt>
            <trkpt lon="101.529414" lat="14.589259">
                <ele>479.354492</ele>
                <time>2009-03-28T06:34:24Z</time>
            </trkpt>
            <trkpt lon="101.529262" lat="14.589119">
                <ele>479.835083</ele>
                <time>2009-03-28T06:34:36Z</time>
            </trkpt>
            <trkpt lon="101.529110" lat="14.588993">
                <ele>480.315918</ele>
                <time>2009-03-28T06:34:48Z</time>
            </trkpt>
            <trkpt lon="101.528936" lat="14.588872">
                <ele>481.277222</ele>
                <time>2009-03-28T06:35:00Z</time>
            </trkpt>
            <trkpt lon="101.528763" lat="14.588765">
                <ele>483.199829</ele>
                <time>2009-03-28T06:35:13Z</time>
            </trkpt>
            <trkpt lon="101.528662" lat="14.588709">
                <ele>483.680420</ele>
                <time>2009-03-28T06:35:21Z</time>
            </trkpt>
            <trkpt lon="101.528494" lat="14.588593">
                <ele>485.603027</ele>
                <time>2009-03-28T06:35:34Z</time>
            </trkpt>
            <trkpt lon="101.528390" lat="14.588514">
                <ele>486.083740</ele>
                <time>2009-03-28T06:35:43Z</time>
            </trkpt>
            <trkpt lon="101.528246" lat="14.588401">
                <ele>487.045044</ele>
                <time>2009-03-28T06:35:54Z</time>
            </trkpt>
            <trkpt lon="101.528130" lat="14.588282">
                <ele>488.006470</ele>
                <time>2009-03-28T06:36:04Z</time>
            </trkpt>
            <trkpt lon="101.527985" lat="14.588097">
                <ele>489.448364</ele>
                <time>2009-03-28T06:36:19Z</time>
            </trkpt>
            <trkpt lon="101.527912" lat="14.588000">
                <ele>490.409790</ele>
                <time>2009-03-28T06:36:27Z</time>
            </trkpt>
            <trkpt lon="101.527807" lat="14.587861">
                <ele>492.812988</ele>
                <time>2009-03-28T06:36:38Z</time>
            </trkpt>
            <trkpt lon="101.527705" lat="14.587719">
                <ele>493.293579</ele>
                <time>2009-03-28T06:36:49Z</time>
            </trkpt>
            <trkpt lon="101.527581" lat="14.587543">
                <ele>493.774292</ele>
                <time>2009-03-28T06:37:01Z</time>
            </trkpt>
            <trkpt lon="101.527522" lat="14.587392">
                <ele>493.774292</ele>
                <time>2009-03-28T06:37:10Z</time>
            </trkpt>
            <trkpt lon="101.527512" lat="14.587358">
                <ele>494.255005</ele>
                <time>2009-03-28T06:37:12Z</time>
            </trkpt>
            <trkpt lon="101.527493" lat="14.587178">
                <ele>496.177734</ele>
                <time>2009-03-28T06:37:22Z</time>
            </trkpt>
            <trkpt lon="101.527461" lat="14.587003">
                <ele>498.580933</ele>
                <time>2009-03-28T06:37:34Z</time>
            </trkpt>
            <trkpt lon="101.527412" lat="14.586874">
                <ele>499.061523</ele>
                <time>2009-03-28T06:37:43Z</time>
            </trkpt>
            <trkpt lon="101.527351" lat="14.586711">
                <ele>498.580933</ele>
                <time>2009-03-28T06:37:51Z</time>
            </trkpt>
            <trkpt lon="101.527280" lat="14.586570">
                <ele>498.580933</ele>
                <time>2009-03-28T06:37:59Z</time>
            </trkpt>
            <trkpt lon="101.527182" lat="14.586450">
                <ele>499.542236</ele>
                <time>2009-03-28T06:38:08Z</time>
            </trkpt>
            <trkpt lon="101.527074" lat="14.586310">
                <ele>500.984131</ele>
                <time>2009-03-28T06:38:19Z</time>
            </trkpt>
            <trkpt lon="101.527005" lat="14.586177">
                <ele>501.945557</ele>
                <time>2009-03-28T06:38:28Z</time>
            </trkpt>
            <trkpt lon="101.526927" lat="14.586018">
                <ele>503.868164</ele>
                <time>2009-03-28T06:38:39Z</time>
            </trkpt>
            <trkpt lon="101.526835" lat="14.585851">
                <ele>505.310181</ele>
                <time>2009-03-28T06:38:50Z</time>
            </trkpt>
            <trkpt lon="101.526763" lat="14.585683">
                <ele>506.752075</ele>
                <time>2009-03-28T06:39:02Z</time>
            </trkpt>
            <trkpt lon="101.526744" lat="14.585501">
                <ele>508.194092</ele>
                <time>2009-03-28T06:39:14Z</time>
            </trkpt>
            <trkpt lon="101.526728" lat="14.585317">
                <ele>509.636108</ele>
                <time>2009-03-28T06:39:26Z</time>
            </trkpt>
            <trkpt lon="101.526710" lat="14.585170">
                <ele>510.116699</ele>
                <time>2009-03-28T06:39:36Z</time>
            </trkpt>
            <trkpt lon="101.526699" lat="14.585145">
                <ele>510.597290</ele>
                <time>2009-03-28T06:39:42Z</time>
            </trkpt>
            <trkpt lon="101.526678" lat="14.585129">
                <ele>510.597290</ele>
                <time>2009-03-28T06:39:50Z</time>
            </trkpt>
            <trkpt lon="101.526757" lat="14.585107">
                <ele>513.000732</ele>
                <time>2009-03-28T06:42:48Z</time>
            </trkpt>
            <trkpt lon="101.526786" lat="14.585042">
                <ele>512.039429</ele>
                <time>2009-03-28T06:42:57Z</time>
            </trkpt>
            <trkpt lon="101.526812" lat="14.584963">
                <ele>513.481445</ele>
                <time>2009-03-28T06:43:07Z</time>
            </trkpt>
            <trkpt lon="101.526865" lat="14.584886">
                <ele>515.884644</ele>
                <time>2009-03-28T06:43:19Z</time>
            </trkpt>
            <trkpt lon="101.526926" lat="14.584802">
                <ele>517.326660</ele>
                <time>2009-03-28T06:43:31Z</time>
            </trkpt>
            <trkpt lon="101.526974" lat="14.584735">
                <ele>518.768555</ele>
                <time>2009-03-28T06:43:42Z</time>
            </trkpt>
            <trkpt lon="101.527040" lat="14.584643">
                <ele>521.171997</ele>
                <time>2009-03-28T06:43:55Z</time>
            </trkpt>
            <trkpt lon="101.527109" lat="14.584575">
                <ele>522.613892</ele>
                <time>2009-03-28T06:44:08Z</time>
            </trkpt>
            <trkpt lon="101.527111" lat="14.584498">
                <ele>523.094604</ele>
                <time>2009-03-28T06:44:35Z</time>
            </trkpt>
            <trkpt lon="101.527173" lat="14.584426">
                <ele>524.055786</ele>
                <time>2009-03-28T06:44:46Z</time>
            </trkpt>
            <trkpt lon="101.527238" lat="14.584324">
                <ele>525.497803</ele>
                <time>2009-03-28T06:44:59Z</time>
            </trkpt>
            <trkpt lon="101.527277" lat="14.584263">
                <ele>527.901001</ele>
                <time>2009-03-28T06:45:07Z</time>
            </trkpt>
            <trkpt lon="101.527285" lat="14.584235">
                <ele>528.862549</ele>
                <time>2009-03-28T06:45:11Z</time>
            </trkpt>
            <trkpt lon="101.527299" lat="14.584156">
                <ele>529.823731</ele>
                <time>2009-03-28T06:45:24Z</time>
            </trkpt>
            <trkpt lon="101.527263" lat="14.584149">
                <ele>530.785156</ele>
                <time>2009-03-28T06:45:49Z</time>
            </trkpt>
            <trkpt lon="101.527270" lat="14.584022">
                <ele>531.265747</ele>
                <time>2009-03-28T06:46:02Z</time>
            </trkpt>
            <trkpt lon="101.527275" lat="14.583906">
                <ele>531.265747</ele>
                <time>2009-03-28T06:46:14Z</time>
            </trkpt>
            <trkpt lon="101.527278" lat="14.583894">
                <ele>532.227051</ele>
                <time>2009-03-28T06:46:22Z</time>
            </trkpt>
            <trkpt lon="101.527287" lat="14.583811">
                <ele>534.149658</ele>
                <time>2009-03-28T06:46:32Z</time>
            </trkpt>
            <trkpt lon="101.527310" lat="14.583746">
                <ele>535.110962</ele>
                <time>2009-03-28T06:46:41Z</time>
            </trkpt>
            <trkpt lon="101.527314" lat="14.583740">
                <ele>535.591553</ele>
                <time>2009-03-28T06:46:42Z</time>
            </trkpt>
            <trkpt lon="101.527321" lat="14.583691">
                <ele>537.994995</ele>
                <time>2009-03-28T06:46:53Z</time>
            </trkpt>
            <trkpt lon="101.527317" lat="14.583666">
                <ele>537.033691</ele>
                <time>2009-03-28T06:47:18Z</time>
            </trkpt>
            <trkpt lon="101.527330" lat="14.583587">
                <ele>537.994995</ele>
                <time>2009-03-28T06:47:33Z</time>
            </trkpt>
            <trkpt lon="101.527340" lat="14.583542">
                <ele>539.436890</ele>
                <time>2009-03-28T06:47:42Z</time>
            </trkpt>
            <trkpt lon="101.527345" lat="14.583510">
                <ele>539.917603</ele>
                <time>2009-03-28T06:47:53Z</time>
            </trkpt>
            <trkpt lon="101.527345" lat="14.583455">
                <ele>540.878906</ele>
                <time>2009-03-28T06:48:05Z</time>
            </trkpt>
            <trkpt lon="101.527359" lat="14.583410">
                <ele>541.359497</ele>
                <time>2009-03-28T06:48:12Z</time>
            </trkpt>
            <trkpt lon="101.527382" lat="14.583298">
                <ele>541.840210</ele>
                <time>2009-03-28T06:48:24Z</time>
            </trkpt>
            <trkpt lon="101.527419" lat="14.583190">
                <ele>544.724243</ele>
                <time>2009-03-28T06:48:37Z</time>
            </trkpt>
            <trkpt lon="101.527480" lat="14.583042">
                <ele>548.088867</ele>
                <time>2009-03-28T06:48:52Z</time>
            </trkpt>
            <trkpt lon="101.527521" lat="14.582918">
                <ele>549.530762</ele>
                <time>2009-03-28T06:49:05Z</time>
            </trkpt>
            <trkpt lon="101.527575" lat="14.582821">
                <ele>550.011475</ele>
                <time>2009-03-28T06:49:16Z</time>
            </trkpt>
            <trkpt lon="101.527584" lat="14.582762">
                <ele>550.492188</ele>
                <time>2009-03-28T06:49:27Z</time>
            </trkpt>
            <trkpt lon="101.527583" lat="14.582758">
                <ele>549.050049</ele>
                <time>2009-03-28T06:50:23Z</time>
            </trkpt>
            <trkpt lon="101.527588" lat="14.582729">
                <ele>549.530762</ele>
                <time>2009-03-28T06:50:34Z</time>
            </trkpt>
            <trkpt lon="101.527594" lat="14.582729">
                <ele>550.011475</ele>
                <time>2009-03-28T06:50:43Z</time>
            </trkpt>
            <trkpt lon="101.527620" lat="14.582718">
                <ele>551.453369</ele>
                <time>2009-03-28T06:52:50Z</time>
            </trkpt>
            <trkpt lon="101.527649" lat="14.582707">
                <ele>551.934082</ele>
                <time>2009-03-28T06:52:54Z</time>
            </trkpt>
            <trkpt lon="101.527792" lat="14.582701">
                <ele>552.414551</ele>
                <time>2009-03-28T06:53:02Z</time>
            </trkpt>
            <trkpt lon="101.527934" lat="14.582713">
                <ele>555.779297</ele>
                <time>2009-03-28T06:53:10Z</time>
            </trkpt>
            <trkpt lon="101.527979" lat="14.582719">
                <ele>557.702148</ele>
                <time>2009-03-28T06:53:14Z</time>
            </trkpt>
            <trkpt lon="101.527993" lat="14.582746">
                <ele>559.624756</ele>
                <time>2009-03-28T06:53:22Z</time>
            </trkpt>
            <trkpt lon="101.528041" lat="14.582742">
                <ele>561.066650</ele>
                <time>2009-03-28T06:53:35Z</time>
            </trkpt>
            <trkpt lon="101.528093" lat="14.582729">
                <ele>562.508545</ele>
                <time>2009-03-28T06:53:45Z</time>
            </trkpt>
            <trkpt lon="101.528122" lat="14.582707">
                <ele>563.950440</ele>
                <time>2009-03-28T06:54:10Z</time>
            </trkpt>
            <trkpt lon="101.528141" lat="14.582712">
                <ele>564.911865</ele>
                <time>2009-03-28T06:54:19Z</time>
            </trkpt>
            <trkpt lon="101.528188" lat="14.582697">
                <ele>565.873291</ele>
                <time>2009-03-28T06:54:53Z</time>
            </trkpt>
            <trkpt lon="101.528246" lat="14.582691">
                <ele>567.315185</ele>
                <time>2009-03-28T06:55:02Z</time>
            </trkpt>
            <trkpt lon="101.528279" lat="14.582688">
                <ele>568.757080</ele>
                <time>2009-03-28T06:55:12Z</time>
            </trkpt>
            <trkpt lon="101.528365" lat="14.582678">
                <ele>571.160400</ele>
                <time>2009-03-28T06:55:26Z</time>
            </trkpt>
            <trkpt lon="101.528405" lat="14.582672">
                <ele>571.160400</ele>
                <time>2009-03-28T06:55:37Z</time>
            </trkpt>
            <trkpt lon="101.528479" lat="14.582666">
                <ele>573.083252</ele>
                <time>2009-03-28T06:55:46Z</time>
            </trkpt>
            <trkpt lon="101.528587" lat="14.582673">
                <ele>574.525147</ele>
                <time>2009-03-28T06:55:58Z</time>
            </trkpt>
            <trkpt lon="101.528687" lat="14.582725">
                <ele>577.409180</ele>
                <time>2009-03-28T06:56:11Z</time>
            </trkpt>
            <trkpt lon="101.528690" lat="14.582733">
                <ele>576.447754</ele>
                <time>2009-03-28T06:56:19Z</time>
            </trkpt>
            <trkpt lon="101.528689" lat="14.582759">
                <ele>575.967041</ele>
                <time>2009-03-28T07:02:43Z</time>
            </trkpt>
            <trkpt lon="101.528684" lat="14.582760">
                <ele>575.486328</ele>
                <time>2009-03-28T07:05:13Z</time>
            </trkpt>
            <trkpt lon="101.528813" lat="14.582700">
                <ele>575.486328</ele>
                <time>2009-03-28T07:05:21Z</time>
            </trkpt>
            <trkpt lon="101.528991" lat="14.582565">
                <ele>577.889648</ele>
                <time>2009-03-28T07:05:31Z</time>
            </trkpt>
            <trkpt lon="101.529017" lat="14.582533">
                <ele>579.812256</ele>
                <time>2009-03-28T07:05:33Z</time>
            </trkpt>
            <trkpt lon="101.529054" lat="14.582480">
                <ele>581.254394</ele>
                <time>2009-03-28T07:05:36Z</time>
            </trkpt>
            <trkpt lon="101.529078" lat="14.582449">
                <ele>582.696289</ele>
                <time>2009-03-28T07:05:38Z</time>
            </trkpt>
            <trkpt lon="101.529216" lat="14.582330">
                <ele>584.138184</ele>
                <time>2009-03-28T07:05:48Z</time>
            </trkpt>
            <trkpt lon="101.529337" lat="14.582291">
                <ele>586.541504</ele>
                <time>2009-03-28T07:05:56Z</time>
            </trkpt>
            <trkpt lon="101.529366" lat="14.582289">
                <ele>587.983398</ele>
                <time>2009-03-28T07:05:59Z</time>
            </trkpt>
            <trkpt lon="101.529383" lat="14.582279">
                <ele>587.983398</ele>
                <time>2009-03-28T07:06:08Z</time>
            </trkpt>
            <trkpt lon="101.529429" lat="14.582252">
                <ele>588.945068</ele>
                <time>2009-03-28T07:06:39Z</time>
            </trkpt>
            <trkpt lon="101.529486" lat="14.582194">
                <ele>591.348144</ele>
                <time>2009-03-28T07:06:49Z</time>
            </trkpt>
            <trkpt lon="101.529583" lat="14.582135">
                <ele>593.751465</ele>
                <time>2009-03-28T07:07:02Z</time>
            </trkpt>
            <trkpt lon="101.529686" lat="14.582111">
                <ele>595.193359</ele>
                <time>2009-03-28T07:07:14Z</time>
            </trkpt>
            <trkpt lon="101.529704" lat="14.582107">
                <ele>595.193359</ele>
                <time>2009-03-28T07:07:26Z</time>
            </trkpt>
            <trkpt lon="101.529768" lat="14.582093">
                <ele>596.635498</ele>
                <time>2009-03-28T07:07:39Z</time>
            </trkpt>
            <trkpt lon="101.529860" lat="14.582033">
                <ele>598.557861</ele>
                <time>2009-03-28T07:07:53Z</time>
            </trkpt>
            <trkpt lon="101.529939" lat="14.581992">
                <ele>600.480713</ele>
                <time>2009-03-28T07:08:05Z</time>
            </trkpt>
            <trkpt lon="101.529954" lat="14.581983">
                <ele>594.232178</ele>
                <time>2009-03-28T07:08:11Z</time>
            </trkpt>
            <trkpt lon="101.529954" lat="14.581982">
                <ele>600.480713</ele>
                <time>2009-03-28T07:08:12Z</time>
            </trkpt>
            <trkpt lon="101.529954" lat="14.581981">
                <ele>608.171387</ele>
                <time>2009-03-28T07:08:14Z</time>
            </trkpt>
            <trkpt lon="101.529954" lat="14.581981">
                <ele>601.441894</ele>
                <time>2009-03-28T07:08:15Z</time>
            </trkpt>
            <trkpt lon="101.530016" lat="14.581951">
                <ele>602.883789</ele>
                <time>2009-03-28T07:08:27Z</time>
            </trkpt>
            <trkpt lon="101.530023" lat="14.581950">
                <ele>603.364502</ele>
                <time>2009-03-28T07:08:28Z</time>
            </trkpt>
            <trkpt lon="101.530048" lat="14.581942">
                <ele>603.845215</ele>
                <time>2009-03-28T07:08:39Z</time>
            </trkpt>
            <trkpt lon="101.530108" lat="14.581932">
                <ele>604.326172</ele>
                <time>2009-03-28T07:08:50Z</time>
            </trkpt>
            <trkpt lon="101.530186" lat="14.581926">
                <ele>607.209961</ele>
                <time>2009-03-28T07:08:59Z</time>
            </trkpt>
            <trkpt lon="101.530255" lat="14.581933">
                <ele>608.651856</ele>
                <time>2009-03-28T07:09:07Z</time>
            </trkpt>
            <trkpt lon="101.530413" lat="14.581986">
                <ele>610.093750</ele>
                <time>2009-03-28T07:09:21Z</time>
            </trkpt>
            <trkpt lon="101.530533" lat="14.582023">
                <ele>610.093750</ele>
                <time>2009-03-28T07:09:32Z</time>
            </trkpt>
            <trkpt lon="101.530562" lat="14.582042">
                <ele>611.535889</ele>
                <time>2009-03-28T07:09:35Z</time>
            </trkpt>
            <trkpt lon="101.530605" lat="14.582029">
                <ele>611.055176</ele>
                <time>2009-03-28T07:09:43Z</time>
            </trkpt>
            <trkpt lon="101.530604" lat="14.582030">
                <ele>611.055176</ele>
                <time>2009-03-28T07:09:45Z</time>
            </trkpt>
            <trkpt lon="101.530577" lat="14.581948">
                <ele>611.055176</ele>
                <time>2009-03-28T07:09:52Z</time>
            </trkpt>
            <trkpt lon="101.530484" lat="14.581774">
                <ele>612.016602</ele>
                <time>2009-03-28T07:10:04Z</time>
            </trkpt>
            <trkpt lon="101.530445" lat="14.581680">
                <ele>612.016602</ele>
                <time>2009-03-28T07:10:12Z</time>
            </trkpt>
            <trkpt lon="101.530320" lat="14.581508">
                <ele>610.093750</ele>
                <time>2009-03-28T07:10:21Z</time>
            </trkpt>
            <trkpt lon="101.530274" lat="14.581410">
                <ele>608.651856</ele>
                <time>2009-03-28T07:10:25Z</time>
            </trkpt>
            <trkpt lon="101.530214" lat="14.581177">
                <ele>605.768066</ele>
                <time>2009-03-28T07:10:33Z</time>
            </trkpt>
            <trkpt lon="101.530237" lat="14.581011">
                <ele>602.883789</ele>
                <time>2009-03-28T07:10:37Z</time>
            </trkpt>
            <trkpt lon="101.530368" lat="14.580690">
                <ele>599.519287</ele>
                <time>2009-03-28T07:10:45Z</time>
            </trkpt>
            <trkpt lon="101.530379" lat="14.580621">
                <ele>597.115967</ele>
                <time>2009-03-28T07:10:47Z</time>
            </trkpt>
            <trkpt lon="101.530342" lat="14.580503">
                <ele>594.712647</ele>
                <time>2009-03-28T07:10:50Z</time>
            </trkpt>
            <trkpt lon="101.530098" lat="14.580196">
                <ele>595.193359</ele>
                <time>2009-03-28T07:10:58Z</time>
            </trkpt>
            <trkpt lon="101.530037" lat="14.580143">
                <ele>595.674072</ele>
                <time>2009-03-28T07:11:03Z</time>
            </trkpt>
            <trkpt lon="101.530024" lat="14.580109">
                <ele>595.193359</ele>
                <time>2009-03-28T07:14:37Z</time>
            </trkpt>
            <trkpt lon="101.529989" lat="14.580094">
                <ele>595.193359</ele>
                <time>2009-03-28T07:15:41Z</time>
            </trkpt>
            <trkpt lon="101.529926" lat="14.580048">
                <ele>594.712647</ele>
                <time>2009-03-28T07:15:53Z</time>
            </trkpt>
            <trkpt lon="101.529769" lat="14.579879">
                <ele>594.232178</ele>
                <time>2009-03-28T07:16:02Z</time>
            </trkpt>
            <trkpt lon="101.529756" lat="14.579854">
                <ele>594.232178</ele>
                <time>2009-03-28T07:16:03Z</time>
            </trkpt>
            <trkpt lon="101.529752" lat="14.579691">
                <ele>591.828857</ele>
                <time>2009-03-28T07:16:07Z</time>
            </trkpt>
            <trkpt lon="101.529819" lat="14.579490">
                <ele>587.021973</ele>
                <time>2009-03-28T07:16:12Z</time>
            </trkpt>
            <trkpt lon="101.529866" lat="14.579306">
                <ele>582.696289</ele>
                <time>2009-03-28T07:16:16Z</time>
            </trkpt>
            <trkpt lon="101.529941" lat="14.579074">
                <ele>579.331543</ele>
                <time>2009-03-28T07:16:21Z</time>
            </trkpt>
            <trkpt lon="101.529959" lat="14.579028">
                <ele>579.331543</ele>
                <time>2009-03-28T07:16:22Z</time>
            </trkpt>
            <trkpt lon="101.530000" lat="14.578937">
                <ele>578.851074</ele>
                <time>2009-03-28T07:16:24Z</time>
            </trkpt>
            <trkpt lon="101.530112" lat="14.578785">
                <ele>576.447754</ele>
                <time>2009-03-28T07:16:28Z</time>
            </trkpt>
            <trkpt lon="101.530185" lat="14.578727">
                <ele>574.525147</ele>
                <time>2009-03-28T07:16:30Z</time>
            </trkpt>
            <trkpt lon="101.530257" lat="14.578683">
                <ele>573.563965</ele>
                <time>2009-03-28T07:16:32Z</time>
            </trkpt>
            <trkpt lon="101.530293" lat="14.578657">
                <ele>570.198975</ele>
                <time>2009-03-28T07:16:33Z</time>
            </trkpt>
            <trkpt lon="101.530494" lat="14.578558">
                <ele>566.353760</ele>
                <time>2009-03-28T07:16:37Z</time>
            </trkpt>
            <trkpt lon="101.530644" lat="14.578468">
                <ele>562.028076</ele>
                <time>2009-03-28T07:16:40Z</time>
            </trkpt>
            <trkpt lon="101.530743" lat="14.578408">
                <ele>558.663330</ele>
                <time>2009-03-28T07:16:42Z</time>
            </trkpt>
            <trkpt lon="101.530846" lat="14.578346">
                <ele>557.221435</ele>
                <time>2009-03-28T07:16:44Z</time>
            </trkpt>
            <trkpt lon="101.531064" lat="14.578252">
                <ele>557.221435</ele>
                <time>2009-03-28T07:16:49Z</time>
            </trkpt>
            <trkpt lon="101.531165" lat="14.578216">
                <ele>556.740723</ele>
                <time>2009-03-28T07:16:55Z</time>
            </trkpt>
            <trkpt lon="101.531394" lat="14.578152">
                <ele>557.702148</ele>
                <time>2009-03-28T07:17:03Z</time>
            </trkpt>
            <trkpt lon="101.531667" lat="14.578042">
                <ele>558.182861</ele>
                <time>2009-03-28T07:17:11Z</time>
            </trkpt>
            <trkpt lon="101.532052" lat="14.577875">
                <ele>557.702148</ele>
                <time>2009-03-28T07:17:22Z</time>
            </trkpt>
            <trkpt lon="101.532336" lat="14.577756">
                <ele>553.375977</ele>
                <time>2009-03-28T07:17:29Z</time>
            </trkpt>
            <trkpt lon="101.532532" lat="14.577676">
                <ele>550.492188</ele>
                <time>2009-03-28T07:17:33Z</time>
            </trkpt>
            <trkpt lon="101.532668" lat="14.577614">
                <ele>549.050049</ele>
                <time>2009-03-28T07:17:36Z</time>
            </trkpt>
            <trkpt lon="101.532748" lat="14.577577">
                <ele>547.608154</ele>
                <time>2009-03-28T07:17:38Z</time>
            </trkpt>
            <trkpt lon="101.532890" lat="14.577492">
                <ele>545.685547</ele>
                <time>2009-03-28T07:17:44Z</time>
            </trkpt>
            <trkpt lon="101.532961" lat="14.577444">
                <ele>542.320923</ele>
                <time>2009-03-28T07:17:49Z</time>
            </trkpt>
            <trkpt lon="101.533049" lat="14.577407">
                <ele>538.475708</ele>
                <time>2009-03-28T07:17:53Z</time>
            </trkpt>
            <trkpt lon="101.533126" lat="14.577374">
                <ele>535.110962</ele>
                <time>2009-03-28T07:17:56Z</time>
            </trkpt>
            <trkpt lon="101.533234" lat="14.577326">
                <ele>532.707764</ele>
                <time>2009-03-28T07:18:00Z</time>
            </trkpt>
            <trkpt lon="101.533331" lat="14.577279">
                <ele>529.343140</ele>
                <time>2009-03-28T07:18:03Z</time>
            </trkpt>
            <trkpt lon="101.533449" lat="14.577226">
                <ele>525.017212</ele>
                <time>2009-03-28T07:18:07Z</time>
            </trkpt>
            <trkpt lon="101.533470" lat="14.577218">
                <ele>525.017212</ele>
                <time>2009-03-28T07:18:08Z</time>
            </trkpt>
            <trkpt lon="101.533580" lat="14.577174">
                <ele>521.171997</ele>
                <time>2009-03-28T07:18:13Z</time>
            </trkpt>
            <trkpt lon="101.533627" lat="14.577163">
                <ele>520.210571</ele>
                <time>2009-03-28T07:18:15Z</time>
            </trkpt>
            <trkpt lon="101.533678" lat="14.577144">
                <ele>516.845947</ele>
                <time>2009-03-28T07:18:17Z</time>
            </trkpt>
            <trkpt lon="101.533705" lat="14.577133">
                <ele>516.365234</ele>
                <time>2009-03-28T07:18:18Z</time>
            </trkpt>
            <trkpt lon="101.533830" lat="14.577059">
                <ele>512.520019</ele>
                <time>2009-03-28T07:18:22Z</time>
            </trkpt>
            <trkpt lon="101.533863" lat="14.577042">
                <ele>512.520019</ele>
                <time>2009-03-28T07:18:23Z</time>
            </trkpt>
            <trkpt lon="101.534014" lat="14.576978">
                <ele>508.194092</ele>
                <time>2009-03-28T07:18:27Z</time>
            </trkpt>
            <trkpt lon="101.534078" lat="14.576953">
                <ele>507.713501</ele>
                <time>2009-03-28T07:18:29Z</time>
            </trkpt>
            <trkpt lon="101.534135" lat="14.576928">
                <ele>507.713501</ele>
                <time>2009-03-28T07:18:35Z</time>
            </trkpt>
            <trkpt lon="101.534186" lat="14.576891">
                <ele>507.713501</ele>
                <time>2009-03-28T07:18:40Z</time>
            </trkpt>
            <trkpt lon="101.534322" lat="14.576842">
                <ele>504.348877</ele>
                <time>2009-03-28T07:18:44Z</time>
            </trkpt>
            <trkpt lon="101.534506" lat="14.576788">
                <ele>500.984131</ele>
                <time>2009-03-28T07:18:48Z</time>
            </trkpt>
            <trkpt lon="101.534534" lat="14.576776">
                <ele>500.503540</ele>
                <time>2009-03-28T07:18:49Z</time>
            </trkpt>
            <trkpt lon="101.534706" lat="14.576728">
                <ele>499.061523</ele>
                <time>2009-03-28T07:18:55Z</time>
            </trkpt>
            <trkpt lon="101.534809" lat="14.576707">
                <ele>497.619629</ele>
                <time>2009-03-28T07:18:58Z</time>
            </trkpt>
            <trkpt lon="101.535012" lat="14.576601">
                <ele>496.177734</ele>
                <time>2009-03-28T07:19:05Z</time>
            </trkpt>
            <trkpt lon="101.535017" lat="14.576480">
                <ele>496.177734</ele>
                <time>2009-03-28T07:19:09Z</time>
            </trkpt>
            <trkpt lon="101.534963" lat="14.576185">
                <ele>494.735596</ele>
                <time>2009-03-28T07:19:18Z</time>
            </trkpt>
            <trkpt lon="101.534948" lat="14.575974">
                <ele>495.216186</ele>
                <time>2009-03-28T07:19:25Z</time>
            </trkpt>
            <trkpt lon="101.534899" lat="14.575657">
                <ele>494.255005</ele>
                <time>2009-03-28T07:19:35Z</time>
            </trkpt>
            <trkpt lon="101.534784" lat="14.575330">
                <ele>493.774292</ele>
                <time>2009-03-28T07:19:45Z</time>
            </trkpt>
            <trkpt lon="101.534642" lat="14.574830">
                <ele>492.812988</ele>
                <time>2009-03-28T07:19:59Z</time>
            </trkpt>
            <trkpt lon="101.534553" lat="14.574488">
                <ele>492.332398</ele>
                <time>2009-03-28T07:20:10Z</time>
            </trkpt>
            <trkpt lon="101.534537" lat="14.574254">
                <ele>490.890381</ele>
                <time>2009-03-28T07:20:17Z</time>
            </trkpt>
            <trkpt lon="101.534472" lat="14.573841">
                <ele>489.929077</ele>
                <time>2009-03-28T07:20:27Z</time>
            </trkpt>
            <trkpt lon="101.534442" lat="14.573487">
                <ele>486.564453</ele>
                <time>2009-03-28T07:20:34Z</time>
            </trkpt>
            <trkpt lon="101.534430" lat="14.573290">
                <ele>485.122436</ele>
                <time>2009-03-28T07:20:37Z</time>
            </trkpt>
            <trkpt lon="101.534418" lat="14.572737">
                <ele>482.719238</ele>
                <time>2009-03-28T07:20:45Z</time>
            </trkpt>
            <trkpt lon="101.534343" lat="14.572308">
                <ele>479.835083</ele>
                <time>2009-03-28T07:20:51Z</time>
            </trkpt>
            <trkpt lon="101.534302" lat="14.572080">
                <ele>481.277222</ele>
                <time>2009-03-28T07:20:56Z</time>
            </trkpt>
            <trkpt lon="101.534239" lat="14.571892">
                <ele>480.796631</ele>
                <time>2009-03-28T07:21:01Z</time>
            </trkpt>
            <trkpt lon="101.534104" lat="14.571497">
                <ele>481.277222</ele>
                <time>2009-03-28T07:21:08Z</time>
            </trkpt>
            <trkpt lon="101.533924" lat="14.571001">
                <ele>481.757812</ele>
                <time>2009-03-28T07:21:15Z</time>
            </trkpt>
            <trkpt lon="101.533705" lat="14.570406">
                <ele>482.719238</ele>
                <time>2009-03-28T07:21:23Z</time>
            </trkpt>
            <trkpt lon="101.533661" lat="14.570338">
                <ele>482.238525</ele>
                <time>2009-03-28T07:21:24Z</time>
            </trkpt>
            <trkpt lon="101.533536" lat="14.570240">
                <ele>481.757812</ele>
                <time>2009-03-28T07:21:28Z</time>
            </trkpt>
            <trkpt lon="101.533507" lat="14.570216">
                <ele>483.199829</ele>
                <time>2009-03-28T07:21:31Z</time>
            </trkpt>
            <trkpt lon="101.533458" lat="14.570153">
                <ele>483.680420</ele>
                <time>2009-03-28T07:21:37Z</time>
            </trkpt>
            <trkpt lon="101.533266" lat="14.569992">
                <ele>484.641846</ele>
                <time>2009-03-28T07:21:43Z</time>
            </trkpt>
            <trkpt lon="101.533164" lat="14.569902">
                <ele>484.641846</ele>
                <time>2009-03-28T07:21:46Z</time>
            </trkpt>
            <trkpt lon="101.533069" lat="14.569738">
                <ele>484.161133</ele>
                <time>2009-03-28T07:21:50Z</time>
            </trkpt>
            <trkpt lon="101.532907" lat="14.569347">
                <ele>483.680420</ele>
                <time>2009-03-28T07:21:59Z</time>
            </trkpt>
            <trkpt lon="101.532750" lat="14.568976">
                <ele>484.161133</ele>
                <time>2009-03-28T07:22:08Z</time>
            </trkpt>
            <trkpt lon="101.532600" lat="14.568705">
                <ele>484.161133</ele>
                <time>2009-03-28T07:22:14Z</time>
            </trkpt>
            <trkpt lon="101.532463" lat="14.568469">
                <ele>485.122436</ele>
                <time>2009-03-28T07:22:21Z</time>
            </trkpt>
            <trkpt lon="101.532463" lat="14.568469">
                <ele>485.122436</ele>
                <time>2009-03-28T07:22:22Z</time>
            </trkpt>
            <trkpt lon="101.532468" lat="14.568457">
                <ele>484.161133</ele>
                <time>2009-03-28T07:22:28Z</time>
            </trkpt>
            <trkpt lon="101.532456" lat="14.568449">
                <ele>485.122436</ele>
                <time>2009-03-28T07:22:41Z</time>
            </trkpt>
            <trkpt lon="101.532432" lat="14.568445">
                <ele>484.641846</ele>
                <time>2009-03-28T07:22:44Z</time>
            </trkpt>
            <trkpt lon="101.532353" lat="14.568354">
                <ele>485.122436</ele>
                <time>2009-03-28T07:22:51Z</time>
            </trkpt>
            <trkpt lon="101.532228" lat="14.568139">
                <ele>485.603027</ele>
                <time>2009-03-28T07:22:57Z</time>
            </trkpt>
            <trkpt lon="101.532119" lat="14.567764">
                <ele>485.603027</ele>
                <time>2009-03-28T07:23:04Z</time>
            </trkpt>
            <trkpt lon="101.532086" lat="14.567184">
                <ele>487.045044</ele>
                <time>2009-03-28T07:23:14Z</time>
            </trkpt>
            <trkpt lon="101.532002" lat="14.566541">
                <ele>486.564453</ele>
                <time>2009-03-28T07:23:25Z</time>
            </trkpt>
            <trkpt lon="101.531949" lat="14.566385">
                <ele>487.525635</ele>
                <time>2009-03-28T07:23:28Z</time>
            </trkpt>
            <trkpt lon="101.531879" lat="14.566205">
                <ele>488.006470</ele>
                <time>2009-03-28T07:23:32Z</time>
            </trkpt>
            <trkpt lon="101.531677" lat="14.565723">
                <ele>487.525635</ele>
                <time>2009-03-28T07:23:44Z</time>
            </trkpt>
            <trkpt lon="101.531631" lat="14.565646">
                <ele>487.045044</ele>
                <time>2009-03-28T07:23:46Z</time>
            </trkpt>
            <trkpt lon="101.531435" lat="14.565245">
                <ele>486.564453</ele>
                <time>2009-03-28T07:23:56Z</time>
            </trkpt>
            <trkpt lon="101.531337" lat="14.565081">
                <ele>486.564453</ele>
                <time>2009-03-28T07:24:00Z</time>
            </trkpt>
            <trkpt lon="101.531237" lat="14.564955">
                <ele>486.564453</ele>
                <time>2009-03-28T07:24:03Z</time>
            </trkpt>
            <trkpt lon="101.531106" lat="14.564846">
                <ele>486.083740</ele>
                <time>2009-03-28T07:24:06Z</time>
            </trkpt>
            <trkpt lon="101.530838" lat="14.564747">
                <ele>487.045044</ele>
                <time>2009-03-28T07:24:12Z</time>
            </trkpt>
            <trkpt lon="101.530546" lat="14.564803">
                <ele>487.525635</ele>
                <time>2009-03-28T07:24:20Z</time>
            </trkpt>
            <trkpt lon="101.530293" lat="14.564897">
                <ele>487.525635</ele>
                <time>2009-03-28T07:24:28Z</time>
            </trkpt>
            <trkpt lon="101.530027" lat="14.565005">
                <ele>487.525635</ele>
                <time>2009-03-28T07:24:36Z</time>
            </trkpt>
            <trkpt lon="101.529610" lat="14.565180">
                <ele>488.967773</ele>
                <time>2009-03-28T07:24:47Z</time>
            </trkpt>
            <trkpt lon="101.529340" lat="14.565295">
                <ele>488.487183</ele>
                <time>2009-03-28T07:24:55Z</time>
            </trkpt>
            <trkpt lon="101.528998" lat="14.565433">
                <ele>488.967773</ele>
                <time>2009-03-28T07:25:04Z</time>
            </trkpt>
            <trkpt lon="101.528690" lat="14.565604">
                <ele>488.967773</ele>
                <time>2009-03-28T07:25:11Z</time>
            </trkpt>
            <trkpt lon="101.528164" lat="14.566040">
                <ele>488.487183</ele>
                <time>2009-03-28T07:25:23Z</time>
            </trkpt>
            <trkpt lon="101.527952" lat="14.566183">
                <ele>489.448364</ele>
                <time>2009-03-28T07:25:28Z</time>
            </trkpt>
            <trkpt lon="101.527695" lat="14.566266">
                <ele>489.448364</ele>
                <time>2009-03-28T07:25:36Z</time>
            </trkpt>
            <trkpt lon="101.527379" lat="14.566371">
                <ele>488.967773</ele>
                <time>2009-03-28T07:25:43Z</time>
            </trkpt>
            <trkpt lon="101.526811" lat="14.566490">
                <ele>488.967773</ele>
                <time>2009-03-28T07:25:53Z</time>
            </trkpt>
            <trkpt lon="101.526205" lat="14.566558">
                <ele>488.967773</ele>
                <time>2009-03-28T07:26:03Z</time>
            </trkpt>
            <trkpt lon="101.525474" lat="14.566632">
                <ele>488.967773</ele>
                <time>2009-03-28T07:26:14Z</time>
            </trkpt>
            <trkpt lon="101.524857" lat="14.566668">
                <ele>488.967773</ele>
                <time>2009-03-28T07:26:24Z</time>
            </trkpt>
            <trkpt lon="101.524301" lat="14.566624">
                <ele>488.487183</ele>
                <time>2009-03-28T07:26:34Z</time>
            </trkpt>
            <trkpt lon="101.523627" lat="14.566598">
                <ele>488.967773</ele>
                <time>2009-03-28T07:26:45Z</time>
            </trkpt>
            <trkpt lon="101.523123" lat="14.566639">
                <ele>488.967773</ele>
                <time>2009-03-28T07:26:54Z</time>
            </trkpt>
            <trkpt lon="101.522554" lat="14.566721">
                <ele>488.967773</ele>
                <time>2009-03-28T07:27:05Z</time>
            </trkpt>
            <trkpt lon="101.522016" lat="14.566781">
                <ele>488.967773</ele>
                <time>2009-03-28T07:27:15Z</time>
            </trkpt>
            <trkpt lon="101.521486" lat="14.566747">
                <ele>488.967773</ele>
                <time>2009-03-28T07:27:25Z</time>
            </trkpt>
            <trkpt lon="101.521006" lat="14.566597">
                <ele>489.448364</ele>
                <time>2009-03-28T07:27:34Z</time>
            </trkpt>
            <trkpt lon="101.520424" lat="14.566418">
                <ele>489.448364</ele>
                <time>2009-03-28T07:27:45Z</time>
            </trkpt>
            <trkpt lon="101.520054" lat="14.566238">
                <ele>489.448364</ele>
                <time>2009-03-28T07:27:53Z</time>
            </trkpt>
            <trkpt lon="101.519904" lat="14.566229">
                <ele>489.448364</ele>
                <time>2009-03-28T07:27:57Z</time>
            </trkpt>
            <trkpt lon="101.519485" lat="14.566400">
                <ele>488.967773</ele>
                <time>2009-03-28T07:28:06Z</time>
            </trkpt>
            <trkpt lon="101.518778" lat="14.566683">
                <ele>488.967773</ele>
                <time>2009-03-28T07:28:19Z</time>
            </trkpt>
            <trkpt lon="101.518180" lat="14.566688">
                <ele>488.487183</ele>
                <time>2009-03-28T07:28:30Z</time>
            </trkpt>
            <trkpt lon="101.517729" lat="14.566743">
                <ele>488.487183</ele>
                <time>2009-03-28T07:28:40Z</time>
            </trkpt>
            <trkpt lon="101.517364" lat="14.566822">
                <ele>488.487183</ele>
                <time>2009-03-28T07:28:51Z</time>
            </trkpt>
            <trkpt lon="101.517083" lat="14.566884">
                <ele>488.487183</ele>
                <time>2009-03-28T07:29:02Z</time>
            </trkpt>
            <trkpt lon="101.516901" lat="14.566910">
                <ele>488.006470</ele>
                <time>2009-03-28T07:29:11Z</time>
            </trkpt>
            <trkpt lon="101.516675" lat="14.566987">
                <ele>488.006470</ele>
                <time>2009-03-28T07:29:24Z</time>
            </trkpt>
            <trkpt lon="101.516606" lat="14.567008">
                <ele>487.525635</ele>
                <time>2009-03-28T07:29:31Z</time>
            </trkpt>
            <trkpt lon="101.516450" lat="14.567051">
                <ele>487.045044</ele>
                <time>2009-03-28T07:29:42Z</time>
            </trkpt>
            <trkpt lon="101.516267" lat="14.567100">
                <ele>486.083740</ele>
                <time>2009-03-28T07:29:53Z</time>
            </trkpt>
            <trkpt lon="101.516056" lat="14.567178">
                <ele>485.603027</ele>
                <time>2009-03-28T07:30:04Z</time>
            </trkpt>
            <trkpt lon="101.515786" lat="14.567303">
                <ele>485.122436</ele>
                <time>2009-03-28T07:30:17Z</time>
            </trkpt>
            <trkpt lon="101.515594" lat="14.567412">
                <ele>485.122436</ele>
                <time>2009-03-28T07:30:27Z</time>
            </trkpt>
            <trkpt lon="101.515365" lat="14.567585">
                <ele>484.641846</ele>
                <time>2009-03-28T07:30:38Z</time>
            </trkpt>
            <trkpt lon="101.515058" lat="14.567791">
                <ele>485.122436</ele>
                <time>2009-03-28T07:30:49Z</time>
            </trkpt>
            <trkpt lon="101.514704" lat="14.567997">
                <ele>486.083740</ele>
                <time>2009-03-28T07:31:02Z</time>
            </trkpt>
            <trkpt lon="101.514550" lat="14.568088">
                <ele>487.045044</ele>
                <time>2009-03-28T07:31:11Z</time>
            </trkpt>
            <trkpt lon="101.514457" lat="14.568143">
                <ele>487.045044</ele>
                <time>2009-03-28T07:31:20Z</time>
            </trkpt>
            <trkpt lon="101.514340" lat="14.568205">
                <ele>487.045044</ele>
                <time>2009-03-28T07:31:29Z</time>
            </trkpt>
            <trkpt lon="101.514125" lat="14.568314">
                <ele>487.045044</ele>
                <time>2009-03-28T07:31:39Z</time>
            </trkpt>
            <trkpt lon="101.513866" lat="14.568483">
                <ele>487.045044</ele>
                <time>2009-03-28T07:31:50Z</time>
            </trkpt>
            <trkpt lon="101.513564" lat="14.568678">
                <ele>488.967773</ele>
                <time>2009-03-28T07:32:02Z</time>
            </trkpt>
            <trkpt lon="101.513240" lat="14.568850">
                <ele>489.929077</ele>
                <time>2009-03-28T07:32:14Z</time>
            </trkpt>
            <trkpt lon="101.512939" lat="14.569013">
                <ele>490.409790</ele>
                <time>2009-03-28T07:32:26Z</time>
            </trkpt>
            <trkpt lon="101.512685" lat="14.569208">
                <ele>490.890381</ele>
                <time>2009-03-28T07:32:38Z</time>
            </trkpt>
            <trkpt lon="101.512433" lat="14.569407">
                <ele>492.332398</ele>
                <time>2009-03-28T07:32:50Z</time>
            </trkpt>
            <trkpt lon="101.512217" lat="14.569675">
                <ele>492.812988</ele>
                <time>2009-03-28T07:33:03Z</time>
            </trkpt>
            <trkpt lon="101.512068" lat="14.569812">
                <ele>492.812988</ele>
                <time>2009-03-28T07:33:13Z</time>
            </trkpt>
            <trkpt lon="101.511856" lat="14.569880">
                <ele>493.774292</ele>
                <time>2009-03-28T07:33:24Z</time>
            </trkpt>
            <trkpt lon="101.511601" lat="14.569931">
                <ele>493.293579</ele>
                <time>2009-03-28T07:33:35Z</time>
            </trkpt>
            <trkpt lon="101.511336" lat="14.569972">
                <ele>493.774292</ele>
                <time>2009-03-28T07:33:45Z</time>
            </trkpt>
            <trkpt lon="101.510994" lat="14.570023">
                <ele>493.774292</ele>
                <time>2009-03-28T07:33:58Z</time>
            </trkpt>
            <trkpt lon="101.510737" lat="14.570083">
                <ele>494.255005</ele>
                <time>2009-03-28T07:34:09Z</time>
            </trkpt>
            <trkpt lon="101.510666" lat="14.570045">
                <ele>494.255005</ele>
                <time>2009-03-28T07:34:16Z</time>
            </trkpt>
            <trkpt lon="101.510658" lat="14.569905">
                <ele>493.774292</ele>
                <time>2009-03-28T07:34:27Z</time>
            </trkpt>
            <trkpt lon="101.510630" lat="14.569731">
                <ele>493.774292</ele>
                <time>2009-03-28T07:34:39Z</time>
            </trkpt>
            <trkpt lon="101.510561" lat="14.569606">
                <ele>493.774292</ele>
                <time>2009-03-28T07:34:51Z</time>
            </trkpt>
            <trkpt lon="101.510479" lat="14.569525">
                <ele>494.735596</ele>
                <time>2009-03-28T07:35:02Z</time>
            </trkpt>
            <trkpt lon="101.510365" lat="14.569410">
                <ele>494.735596</ele>
                <time>2009-03-28T07:35:13Z</time>
            </trkpt>
            <trkpt lon="101.510265" lat="14.569275">
                <ele>494.735596</ele>
                <time>2009-03-28T07:35:23Z</time>
            </trkpt>
            <trkpt lon="101.510253" lat="14.569132">
                <ele>494.735596</ele>
                <time>2009-03-28T07:35:32Z</time>
            </trkpt>
            <trkpt lon="101.510265" lat="14.568948">
                <ele>495.216186</ele>
                <time>2009-03-28T07:35:41Z</time>
            </trkpt>
            <trkpt lon="101.510277" lat="14.568764">
                <ele>495.696899</ele>
                <time>2009-03-28T07:35:49Z</time>
            </trkpt>
            <trkpt lon="101.510273" lat="14.568452">
                <ele>495.696899</ele>
                <time>2009-03-28T07:36:02Z</time>
            </trkpt>
            <trkpt lon="101.510283" lat="14.568382">
                <ele>496.177734</ele>
                <time>2009-03-28T07:36:06Z</time>
            </trkpt>
            <trkpt lon="101.510285" lat="14.568204">
                <ele>495.696899</ele>
                <time>2009-03-28T07:36:17Z</time>
            </trkpt>
            <trkpt lon="101.510298" lat="14.567990">
                <ele>496.658325</ele>
                <time>2009-03-28T07:36:28Z</time>
            </trkpt>
            <trkpt lon="101.510315" lat="14.567828">
                <ele>496.658325</ele>
                <time>2009-03-28T07:36:38Z</time>
            </trkpt>
            <trkpt lon="101.510313" lat="14.567645">
                <ele>498.100342</ele>
                <time>2009-03-28T07:36:50Z</time>
            </trkpt>
            <trkpt lon="101.510300" lat="14.567530">
                <ele>497.619629</ele>
                <time>2009-03-28T07:36:57Z</time>
            </trkpt>
            <trkpt lon="101.510316" lat="14.567465">
                <ele>497.619629</ele>
                <time>2009-03-28T07:37:01Z</time>
            </trkpt>
            <trkpt lon="101.510293" lat="14.567263">
                <ele>497.619629</ele>
                <time>2009-03-28T07:37:15Z</time>
            </trkpt>
            <trkpt lon="101.510301" lat="14.567153">
                <ele>498.100342</ele>
                <time>2009-03-28T07:37:26Z</time>
            </trkpt>
            <trkpt lon="101.510315" lat="14.567132">
                <ele>497.138916</ele>
                <time>2009-03-28T07:37:44Z</time>
            </trkpt>
            <trkpt lon="101.510336" lat="14.567099">
                <ele>496.658325</ele>
                <time>2009-03-28T07:38:05Z</time>
            </trkpt>
            <trkpt lon="101.510365" lat="14.567060">
                <ele>495.696899</ele>
                <time>2009-03-28T07:38:14Z</time>
            </trkpt>
            <trkpt lon="101.510356" lat="14.566956">
                <ele>495.696899</ele>
                <time>2009-03-28T07:38:24Z</time>
            </trkpt>
            <trkpt lon="101.510249" lat="14.566883">
                <ele>495.696899</ele>
                <time>2009-03-28T07:38:35Z</time>
            </trkpt>
            <trkpt lon="101.510075" lat="14.566837">
                <ele>495.696899</ele>
                <time>2009-03-28T07:38:50Z</time>
            </trkpt>
            <trkpt lon="101.510018" lat="14.566830">
                <ele>495.696899</ele>
                <time>2009-03-28T07:38:59Z</time>
            </trkpt>
            <trkpt lon="101.509932" lat="14.566802">
                <ele>495.216186</ele>
                <time>2009-03-28T07:39:06Z</time>
            </trkpt>
            <trkpt lon="101.509838" lat="14.566788">
                <ele>494.735596</ele>
                <time>2009-03-28T07:39:14Z</time>
            </trkpt>
            <trkpt lon="101.509736" lat="14.566780">
                <ele>494.735596</ele>
                <time>2009-03-28T07:39:23Z</time>
            </trkpt>
            <trkpt lon="101.509665" lat="14.566773">
                <ele>494.735596</ele>
                <time>2009-03-28T07:39:31Z</time>
            </trkpt>
            <trkpt lon="101.509614" lat="14.566744">
                <ele>495.216186</ele>
                <time>2009-03-28T07:39:39Z</time>
            </trkpt>
            <trkpt lon="101.509497" lat="14.566704">
                <ele>494.735596</ele>
                <time>2009-03-28T07:39:51Z</time>
            </trkpt>
            <trkpt lon="101.509375" lat="14.566661">
                <ele>494.735596</ele>
                <time>2009-03-28T07:40:03Z</time>
            </trkpt>
            <trkpt lon="101.509242" lat="14.566649">
                <ele>495.216186</ele>
                <time>2009-03-28T07:40:15Z</time>
            </trkpt>
            <trkpt lon="101.509104" lat="14.566631">
                <ele>494.735596</ele>
                <time>2009-03-28T07:40:29Z</time>
            </trkpt>
            <trkpt lon="101.508985" lat="14.566595">
                <ele>494.735596</ele>
                <time>2009-03-28T07:40:41Z</time>
            </trkpt>
            <trkpt lon="101.508864" lat="14.566550">
                <ele>494.735596</ele>
                <time>2009-03-28T07:40:53Z</time>
            </trkpt>
            <trkpt lon="101.508759" lat="14.566488">
                <ele>494.255005</ele>
                <time>2009-03-28T07:41:05Z</time>
            </trkpt>
            <trkpt lon="101.508647" lat="14.566434">
                <ele>494.255005</ele>
                <time>2009-03-28T07:41:17Z</time>
            </trkpt>
            <trkpt lon="101.508623" lat="14.566426">
                <ele>494.255005</ele>
                <time>2009-03-28T07:41:25Z</time>
            </trkpt>
            <trkpt lon="101.508458" lat="14.566420">
                <ele>494.255005</ele>
                <time>2009-03-28T07:41:34Z</time>
            </trkpt>
            <trkpt lon="101.508322" lat="14.566489">
                <ele>494.255005</ele>
                <time>2009-03-28T07:41:41Z</time>
            </trkpt>
            <trkpt lon="101.508237" lat="14.566626">
                <ele>493.293579</ele>
                <time>2009-03-28T07:41:51Z</time>
            </trkpt>
            <trkpt lon="101.508117" lat="14.566766">
                <ele>493.774292</ele>
                <time>2009-03-28T07:42:02Z</time>
            </trkpt>
            <trkpt lon="101.508101" lat="14.566777">
                <ele>493.774292</ele>
                <time>2009-03-28T07:42:04Z</time>
            </trkpt>
            <trkpt lon="101.507985" lat="14.566787">
                <ele>493.774292</ele>
                <time>2009-03-28T07:42:15Z</time>
            </trkpt>
            <trkpt lon="101.507892" lat="14.566784">
                <ele>494.255005</ele>
                <time>2009-03-28T07:42:28Z</time>
            </trkpt>
            <trkpt lon="101.507779" lat="14.566763">
                <ele>493.774292</ele>
                <time>2009-03-28T07:42:39Z</time>
            </trkpt>
            <trkpt lon="101.507687" lat="14.566728">
                <ele>494.255005</ele>
                <time>2009-03-28T07:42:48Z</time>
            </trkpt>
            <trkpt lon="101.507655" lat="14.566726">
                <ele>493.774292</ele>
                <time>2009-03-28T07:42:55Z</time>
            </trkpt>
            <trkpt lon="101.507539" lat="14.566751">
                <ele>493.293579</ele>
                <time>2009-03-28T07:43:06Z</time>
            </trkpt>
            <trkpt lon="101.507449" lat="14.566803">
                <ele>493.774292</ele>
                <time>2009-03-28T07:43:16Z</time>
            </trkpt>
            <trkpt lon="101.507374" lat="14.566844">
                <ele>493.774292</ele>
                <time>2009-03-28T07:43:27Z</time>
            </trkpt>
            <trkpt lon="101.507307" lat="14.566904">
                <ele>493.774292</ele>
                <time>2009-03-28T07:43:38Z</time>
            </trkpt>
            <trkpt lon="101.507257" lat="14.566957">
                <ele>493.774292</ele>
                <time>2009-03-28T07:43:50Z</time>
            </trkpt>
            <trkpt lon="101.507200" lat="14.567008">
                <ele>493.774292</ele>
                <time>2009-03-28T07:44:01Z</time>
            </trkpt>
            <trkpt lon="101.507159" lat="14.567057">
                <ele>493.774292</ele>
                <time>2009-03-28T07:44:12Z</time>
            </trkpt>
            <trkpt lon="101.507126" lat="14.567087">
                <ele>493.774292</ele>
                <time>2009-03-28T07:44:22Z</time>
            </trkpt>
            <trkpt lon="101.507087" lat="14.567123">
                <ele>494.255005</ele>
                <time>2009-03-28T07:44:37Z</time>
            </trkpt>
            <trkpt lon="101.507032" lat="14.567174">
                <ele>495.216186</ele>
                <time>2009-03-28T07:44:47Z</time>
            </trkpt>
            <trkpt lon="101.506959" lat="14.567230">
                <ele>496.177734</ele>
                <time>2009-03-28T07:44:59Z</time>
            </trkpt>
            <trkpt lon="101.506909" lat="14.567263">
                <ele>497.138916</ele>
                <time>2009-03-28T07:45:08Z</time>
            </trkpt>
            <trkpt lon="101.506859" lat="14.567301">
                <ele>497.619629</ele>
                <time>2009-03-28T07:45:17Z</time>
            </trkpt>
            <trkpt lon="101.506848" lat="14.567333">
                <ele>497.619629</ele>
                <time>2009-03-28T07:45:25Z</time>
            </trkpt>
            <trkpt lon="101.506832" lat="14.567387">
                <ele>498.580933</ele>
                <time>2009-03-28T07:45:33Z</time>
            </trkpt>
            <trkpt lon="101.506826" lat="14.567446">
                <ele>498.100342</ele>
                <time>2009-03-28T07:45:44Z</time>
            </trkpt>
            <trkpt lon="101.506816" lat="14.567444">
                <ele>498.580933</ele>
                <time>2009-03-28T07:45:59Z</time>
            </trkpt>
            <trkpt lon="101.506792" lat="14.567441">
                <ele>499.542236</ele>
                <time>2009-03-28T07:46:30Z</time>
            </trkpt>
            <trkpt lon="101.506814" lat="14.567451">
                <ele>499.542236</ele>
                <time>2009-03-28T07:46:38Z</time>
            </trkpt>
            <trkpt lon="101.506912" lat="14.567466">
                <ele>500.022949</ele>
                <time>2009-03-28T07:46:51Z</time>
            </trkpt>
            <trkpt lon="101.506923" lat="14.567469">
                <ele>500.503540</ele>
                <time>2009-03-28T07:46:59Z</time>
            </trkpt>
            <trkpt lon="101.506947" lat="14.567465">
                <ele>499.542236</ele>
                <time>2009-03-28T07:47:15Z</time>
            </trkpt>
            <trkpt lon="101.507117" lat="14.567432">
                <ele>500.503540</ele>
                <time>2009-03-28T07:47:24Z</time>
            </trkpt>
            <trkpt lon="101.507370" lat="14.567470">
                <ele>500.022949</ele>
                <time>2009-03-28T07:47:32Z</time>
            </trkpt>
            <trkpt lon="101.507592" lat="14.567490">
                <ele>500.022949</ele>
                <time>2009-03-28T07:47:39Z</time>
            </trkpt>
            <trkpt lon="101.507783" lat="14.567552">
                <ele>499.061523</ele>
                <time>2009-03-28T07:47:43Z</time>
            </trkpt>
            <trkpt lon="101.508057" lat="14.567795">
                <ele>498.100342</ele>
                <time>2009-03-28T07:47:49Z</time>
            </trkpt>
            <trkpt lon="101.508329" lat="14.568296">
                <ele>499.061523</ele>
                <time>2009-03-28T07:47:58Z</time>
            </trkpt>
            <trkpt lon="101.508319" lat="14.568492">
                <ele>498.580933</ele>
                <time>2009-03-28T07:48:01Z</time>
            </trkpt>
            <trkpt lon="101.508075" lat="14.568867">
                <ele>500.022949</ele>
                <time>2009-03-28T07:48:08Z</time>
            </trkpt>
            <trkpt lon="101.507802" lat="14.569279">
                <ele>500.022949</ele>
                <time>2009-03-28T07:48:16Z</time>
            </trkpt>
            <trkpt lon="101.507769" lat="14.569364">
                <ele>500.984131</ele>
                <time>2009-03-28T07:48:21Z</time>
            </trkpt>
            <trkpt lon="101.507742" lat="14.569385">
                <ele>500.984131</ele>
                <time>2009-03-28T07:48:24Z</time>
            </trkpt>
            <trkpt lon="101.507620" lat="14.569273">
                <ele>500.984131</ele>
                <time>2009-03-28T07:48:31Z</time>
            </trkpt>
            <trkpt lon="101.507429" lat="14.569073">
                <ele>500.503540</ele>
                <time>2009-03-28T07:48:38Z</time>
            </trkpt>
            <trkpt lon="101.507237" lat="14.568749">
                <ele>500.022949</ele>
                <time>2009-03-28T07:48:47Z</time>
            </trkpt>
            <trkpt lon="101.506947" lat="14.568631">
                <ele>500.984131</ele>
                <time>2009-03-28T07:48:52Z</time>
            </trkpt>
            <trkpt lon="101.506846" lat="14.568536">
                <ele>500.022949</ele>
                <time>2009-03-28T07:48:55Z</time>
            </trkpt>
            <trkpt lon="101.506744" lat="14.568256">
                <ele>500.503540</ele>
                <time>2009-03-28T07:49:01Z</time>
            </trkpt>
            <trkpt lon="101.506485" lat="14.568045">
                <ele>501.464844</ele>
                <time>2009-03-28T07:49:07Z</time>
            </trkpt>
            <trkpt lon="101.506433" lat="14.568051">
                <ele>500.503540</ele>
                <time>2009-03-28T07:49:08Z</time>
            </trkpt>
            <trkpt lon="101.506082" lat="14.568210">
                <ele>501.464844</ele>
                <time>2009-03-28T07:49:16Z</time>
            </trkpt>
            <trkpt lon="101.505905" lat="14.568274">
                <ele>501.464844</ele>
                <time>2009-03-28T07:49:20Z</time>
            </trkpt>
            <trkpt lon="101.505693" lat="14.568313">
                <ele>501.945557</ele>
                <time>2009-03-28T07:49:26Z</time>
            </trkpt>
            <trkpt lon="101.505645" lat="14.568252">
                <ele>502.906738</ele>
                <time>2009-03-28T07:49:53Z</time>
            </trkpt>
            <trkpt lon="101.505447" lat="14.568215">
                <ele>503.868164</ele>
                <time>2009-03-28T07:49:59Z</time>
            </trkpt>
            <trkpt lon="101.505203" lat="14.568123">
                <ele>502.906738</ele>
                <time>2009-03-28T07:50:04Z</time>
            </trkpt>
            <trkpt lon="101.504777" lat="14.567837">
                <ele>503.387451</ele>
                <time>2009-03-28T07:50:15Z</time>
            </trkpt>
            <trkpt lon="101.504660" lat="14.567761">
                <ele>502.906738</ele>
                <time>2009-03-28T07:50:19Z</time>
            </trkpt>
            <trkpt lon="101.504507" lat="14.567870">
                <ele>502.906738</ele>
                <time>2009-03-28T07:50:24Z</time>
            </trkpt>
            <trkpt lon="101.504441" lat="14.567944">
                <ele>502.906738</ele>
                <time>2009-03-28T07:50:26Z</time>
            </trkpt>
            <trkpt lon="101.504157" lat="14.568421">
                <ele>503.387451</ele>
                <time>2009-03-28T07:50:39Z</time>
            </trkpt>
            <trkpt lon="101.504093" lat="14.568523">
                <ele>503.387451</ele>
                <time>2009-03-28T07:50:42Z</time>
            </trkpt>
            <trkpt lon="101.503857" lat="14.568680">
                <ele>503.387451</ele>
                <time>2009-03-28T07:50:48Z</time>
            </trkpt>
            <trkpt lon="101.503769" lat="14.568712">
                <ele>503.387451</ele>
                <time>2009-03-28T07:50:50Z</time>
            </trkpt>
            <trkpt lon="101.503370" lat="14.568758">
                <ele>502.426148</ele>
                <time>2009-03-28T07:50:59Z</time>
            </trkpt>
            <trkpt lon="101.503303" lat="14.568827">
                <ele>502.426148</ele>
                <time>2009-03-28T07:51:08Z</time>
            </trkpt>
            <trkpt lon="101.503178" lat="14.568998">
                <ele>501.945557</ele>
                <time>2009-03-28T07:51:16Z</time>
            </trkpt>
            <trkpt lon="101.502984" lat="14.569068">
                <ele>501.464844</ele>
                <time>2009-03-28T07:51:23Z</time>
            </trkpt>
            <trkpt lon="101.502555" lat="14.569163">
                <ele>501.464844</ele>
                <time>2009-03-28T07:51:33Z</time>
            </trkpt>
            <trkpt lon="101.502056" lat="14.569157">
                <ele>500.022949</ele>
                <time>2009-03-28T07:51:43Z</time>
            </trkpt>
            <trkpt lon="101.501687" lat="14.569152">
                <ele>500.022949</ele>
                <time>2009-03-28T07:51:54Z</time>
            </trkpt>
            <trkpt lon="101.501409" lat="14.569119">
                <ele>500.022949</ele>
                <time>2009-03-28T07:52:04Z</time>
            </trkpt>
            <trkpt lon="101.501171" lat="14.569116">
                <ele>499.061523</ele>
                <time>2009-03-28T07:52:14Z</time>
            </trkpt>
            <trkpt lon="101.500964" lat="14.569191">
                <ele>498.100342</ele>
                <time>2009-03-28T07:52:21Z</time>
            </trkpt>
            <trkpt lon="101.500678" lat="14.569271">
                <ele>497.138916</ele>
                <time>2009-03-28T07:52:28Z</time>
            </trkpt>
            <trkpt lon="101.500117" lat="14.569356">
                <ele>496.658325</ele>
                <time>2009-03-28T07:52:39Z</time>
            </trkpt>
            <trkpt lon="101.499942" lat="14.569362">
                <ele>496.658325</ele>
                <time>2009-03-28T07:52:43Z</time>
            </trkpt>
            <trkpt lon="101.499889" lat="14.569544">
                <ele>496.177734</ele>
                <time>2009-03-28T07:52:50Z</time>
            </trkpt>
            <trkpt lon="101.499897" lat="14.569756">
                <ele>496.177734</ele>
                <time>2009-03-28T07:52:59Z</time>
            </trkpt>
            <trkpt lon="101.499879" lat="14.569775">
                <ele>495.696899</ele>
                <time>2009-03-28T07:53:02Z</time>
            </trkpt>
            <trkpt lon="101.499863" lat="14.569675">
                <ele>495.696899</ele>
                <time>2009-03-28T07:53:06Z</time>
            </trkpt>
            <trkpt lon="101.499809" lat="14.569657">
                <ele>496.177734</ele>
                <time>2009-03-28T07:53:08Z</time>
            </trkpt>
            <trkpt lon="101.499359" lat="14.569606">
                <ele>495.696899</ele>
                <time>2009-03-28T07:53:21Z</time>
            </trkpt>
            <trkpt lon="101.499034" lat="14.569618">
                <ele>495.216186</ele>
                <time>2009-03-28T07:53:32Z</time>
            </trkpt>
            <trkpt lon="101.498834" lat="14.569637">
                <ele>494.735596</ele>
                <time>2009-03-28T07:53:40Z</time>
            </trkpt>
            <trkpt lon="101.498694" lat="14.569645">
                <ele>495.216186</ele>
                <time>2009-03-28T07:53:48Z</time>
            </trkpt>
            <trkpt lon="101.498514" lat="14.569632">
                <ele>494.735596</ele>
                <time>2009-03-28T07:54:00Z</time>
            </trkpt>
            <trkpt lon="101.498519" lat="14.569599">
                <ele>493.774292</ele>
                <time>2009-03-28T07:54:07Z</time>
            </trkpt>
            <trkpt lon="101.498511" lat="14.569593">
                <ele>494.255005</ele>
                <time>2009-03-28T07:54:08Z</time>
            </trkpt>
            <trkpt lon="101.498377" lat="14.569477">
                <ele>493.774292</ele>
                <time>2009-03-28T07:54:17Z</time>
            </trkpt>
            <trkpt lon="101.498041" lat="14.569436">
                <ele>492.812988</ele>
                <time>2009-03-28T07:54:25Z</time>
            </trkpt>
            <trkpt lon="101.497748" lat="14.569439">
                <ele>490.890381</ele>
                <time>2009-03-28T07:54:34Z</time>
            </trkpt>
            <trkpt lon="101.497660" lat="14.569393">
                <ele>490.890381</ele>
                <time>2009-03-28T07:54:40Z</time>
            </trkpt>
            <trkpt lon="101.497650" lat="14.569383">
                <ele>489.929077</ele>
                <time>2009-03-28T07:54:41Z</time>
            </trkpt>
            <trkpt lon="101.497541" lat="14.569258">
                <ele>489.448364</ele>
                <time>2009-03-28T07:54:50Z</time>
            </trkpt>
            <trkpt lon="101.497300" lat="14.569115">
                <ele>488.487183</ele>
                <time>2009-03-28T07:55:07Z</time>
            </trkpt>
            <trkpt lon="101.496861" lat="14.569016">
                <ele>487.525635</ele>
                <time>2009-03-28T07:55:25Z</time>
            </trkpt>
            <trkpt lon="101.496798" lat="14.569027">
                <ele>487.525635</ele>
                <time>2009-03-28T07:55:28Z</time>
            </trkpt>
            <trkpt lon="101.496765" lat="14.569038">
                <ele>486.564453</ele>
                <time>2009-03-28T07:55:30Z</time>
            </trkpt>
            <trkpt lon="101.496762" lat="14.569034">
                <ele>487.045044</ele>
                <time>2009-03-28T07:55:31Z</time>
            </trkpt>
            <trkpt lon="101.496504" lat="14.569097">
                <ele>486.564453</ele>
                <time>2009-03-28T07:55:38Z</time>
            </trkpt>
            <trkpt lon="101.496226" lat="14.569216">
                <ele>486.083740</ele>
                <time>2009-03-28T07:55:49Z</time>
            </trkpt>
            <trkpt lon="101.495949" lat="14.569327">
                <ele>485.122436</ele>
                <time>2009-03-28T07:56:00Z</time>
            </trkpt>
            <trkpt lon="101.495663" lat="14.569499">
                <ele>484.641846</ele>
                <time>2009-03-28T07:56:10Z</time>
            </trkpt>
            <trkpt lon="101.495361" lat="14.569794">
                <ele>484.641846</ele>
                <time>2009-03-28T07:56:25Z</time>
            </trkpt>
            <trkpt lon="101.495180" lat="14.569946">
                <ele>484.161133</ele>
                <time>2009-03-28T07:56:34Z</time>
            </trkpt>
            <trkpt lon="101.494883" lat="14.570254">
                <ele>483.680420</ele>
                <time>2009-03-28T07:56:48Z</time>
            </trkpt>
            <trkpt lon="101.494779" lat="14.570341">
                <ele>482.719238</ele>
                <time>2009-03-28T07:56:56Z</time>
            </trkpt>
            <trkpt lon="101.494698" lat="14.570382">
                <ele>481.277222</ele>
                <time>2009-03-28T07:57:09Z</time>
            </trkpt>
            <trkpt lon="101.494752" lat="14.570441">
                <ele>478.393189</ele>
                <time>2009-03-28T07:57:33Z</time>
            </trkpt>
            <trkpt lon="101.494623" lat="14.570507">
                <ele>477.431885</ele>
                <time>2009-03-28T07:57:53Z</time>
            </trkpt>
            <trkpt lon="101.494612" lat="14.570518">
                <ele>472.625366</ele>
                <time>2009-03-28T07:57:57Z</time>
            </trkpt>
            <trkpt lon="101.494609" lat="14.570521">
                <ele>476.951294</ele>
                <time>2009-03-28T07:57:58Z</time>
            </trkpt>
            <trkpt lon="101.494578" lat="14.570562">
                <ele>475.509277</ele>
                <time>2009-03-28T07:58:07Z</time>
            </trkpt>
            <trkpt lon="101.494563" lat="14.570579">
                <ele>474.067261</ele>
                <time>2009-03-28T07:58:26Z</time>
            </trkpt>
            <trkpt lon="101.494563" lat="14.570580">
                <ele>474.067261</ele>
                <time>2009-03-28T07:58:27Z</time>
            </trkpt>
            <trkpt lon="101.494569" lat="14.570593">
                <ele>469.260742</ele>
                <time>2009-03-28T07:58:30Z</time>
            </trkpt>
            <trkpt lon="101.494567" lat="14.570591">
                <ele>461.570190</ele>
                <time>2009-03-28T07:58:32Z</time>
            </trkpt>
            <trkpt lon="101.494559" lat="14.570587">
                <ele>465.415527</ele>
                <time>2009-03-28T07:58:36Z</time>
            </trkpt>
            <trkpt lon="101.494555" lat="14.570584">
                <ele>469.260742</ele>
                <time>2009-03-28T07:58:38Z</time>
            </trkpt>
            <trkpt lon="101.494553" lat="14.570583">
                <ele>469.260742</ele>
                <time>2009-03-28T07:58:39Z</time>
            </trkpt>
            <trkpt lon="101.494551" lat="14.570582">
                <ele>472.625366</ele>
                <time>2009-03-28T07:58:41Z</time>
            </trkpt>
            <trkpt lon="101.494549" lat="14.570581">
                <ele>470.702637</ele>
                <time>2009-03-28T07:58:44Z</time>
            </trkpt>
            <trkpt lon="101.494566" lat="14.570527">
                <ele>471.663940</ele>
                <time>2009-03-28T07:59:51Z</time>
            </trkpt>
            <trkpt lon="101.494397" lat="14.570552">
                <ele>471.663940</ele>
                <time>2009-03-28T07:59:58Z</time>
            </trkpt>
            <trkpt lon="101.494162" lat="14.570635">
                <ele>471.183350</ele>
                <time>2009-03-28T08:00:06Z</time>
            </trkpt>
            <trkpt lon="101.494092" lat="14.570696">
                <ele>471.183350</ele>
                <time>2009-03-28T08:00:09Z</time>
            </trkpt>
            <trkpt lon="101.494086" lat="14.570741">
                <ele>471.183350</ele>
                <time>2009-03-28T08:00:12Z</time>
            </trkpt>
            <trkpt lon="101.493887" lat="14.570947">
                <ele>470.221924</ele>
                <time>2009-03-28T08:00:22Z</time>
            </trkpt>
            <trkpt lon="101.493627" lat="14.571238">
                <ele>470.702637</ele>
                <time>2009-03-28T08:00:33Z</time>
            </trkpt>
            <trkpt lon="101.493404" lat="14.571505">
                <ele>470.221924</ele>
                <time>2009-03-28T08:00:45Z</time>
            </trkpt>
            <trkpt lon="101.493274" lat="14.571567">
                <ele>470.702637</ele>
                <time>2009-03-28T08:00:53Z</time>
            </trkpt>
            <trkpt lon="101.493102" lat="14.571670">
                <ele>471.183350</ele>
                <time>2009-03-28T08:00:59Z</time>
            </trkpt>
            <trkpt lon="101.492804" lat="14.571860">
                <ele>469.741333</ele>
                <time>2009-03-28T08:01:08Z</time>
            </trkpt>
            <trkpt lon="101.492645" lat="14.571781">
                <ele>468.780029</ele>
                <time>2009-03-28T08:01:14Z</time>
            </trkpt>
            <trkpt lon="101.492640" lat="14.571745">
                <ele>468.299316</ele>
                <time>2009-03-28T08:01:16Z</time>
            </trkpt>
            <trkpt lon="101.492683" lat="14.571604">
                <ele>467.818726</ele>
                <time>2009-03-28T08:01:26Z</time>
            </trkpt>
            <trkpt lon="101.492734" lat="14.571392">
                <ele>467.338135</ele>
                <time>2009-03-28T08:01:37Z</time>
            </trkpt>
            <trkpt lon="101.492670" lat="14.571236">
                <ele>466.857422</ele>
                <time>2009-03-28T08:01:45Z</time>
            </trkpt>
            <trkpt lon="101.492589" lat="14.571167">
                <ele>466.857422</ele>
                <time>2009-03-28T08:01:53Z</time>
            </trkpt>
            <trkpt lon="101.492460" lat="14.571176">
                <ele>466.376709</ele>
                <time>2009-03-28T08:02:04Z</time>
            </trkpt>
            <trkpt lon="101.492295" lat="14.571208">
                <ele>466.376709</ele>
                <time>2009-03-28T08:02:12Z</time>
            </trkpt>
            <trkpt lon="101.492085" lat="14.571202">
                <ele>465.415527</ele>
                <time>2009-03-28T08:02:20Z</time>
            </trkpt>
            <trkpt lon="101.491848" lat="14.571109">
                <ele>464.454102</ele>
                <time>2009-03-28T08:02:28Z</time>
            </trkpt>
            <trkpt lon="101.491582" lat="14.570906">
                <ele>463.492798</ele>
                <time>2009-03-28T08:02:37Z</time>
            </trkpt>
            <trkpt lon="101.491279" lat="14.570658">
                <ele>463.492798</ele>
                <time>2009-03-28T08:02:45Z</time>
            </trkpt>
            <trkpt lon="101.491076" lat="14.570481">
                <ele>463.012085</ele>
                <time>2009-03-28T08:02:55Z</time>
            </trkpt>
            <trkpt lon="101.490839" lat="14.570302">
                <ele>462.531372</ele>
                <time>2009-03-28T08:03:05Z</time>
            </trkpt>
            <trkpt lon="101.490604" lat="14.570275">
                <ele>462.531372</ele>
                <time>2009-03-28T08:03:13Z</time>
            </trkpt>
            <trkpt lon="101.490354" lat="14.570419">
                <ele>461.570190</ele>
                <time>2009-03-28T08:03:23Z</time>
            </trkpt>
            <trkpt lon="101.490111" lat="14.570481">
                <ele>461.089477</ele>
                <time>2009-03-28T08:03:32Z</time>
            </trkpt>
            <trkpt lon="101.489841" lat="14.570426">
                <ele>460.128174</ele>
                <time>2009-03-28T08:03:42Z</time>
            </trkpt>
            <trkpt lon="101.489497" lat="14.570326">
                <ele>459.647583</ele>
                <time>2009-03-28T08:03:53Z</time>
            </trkpt>
            <trkpt lon="101.489205" lat="14.570323">
                <ele>459.166870</ele>
                <time>2009-03-28T08:04:01Z</time>
            </trkpt>
            <trkpt lon="101.488778" lat="14.570391">
                <ele>459.166870</ele>
                <time>2009-03-28T08:04:10Z</time>
            </trkpt>
            <trkpt lon="101.488631" lat="14.570422">
                <ele>459.166870</ele>
                <time>2009-03-28T08:04:13Z</time>
            </trkpt>
            <trkpt lon="101.488074" lat="14.570387">
                <ele>458.686157</ele>
                <time>2009-03-28T08:04:26Z</time>
            </trkpt>
            <trkpt lon="101.487457" lat="14.570236">
                <ele>457.244263</ele>
                <time>2009-03-28T08:04:40Z</time>
            </trkpt>
            <trkpt lon="101.486546" lat="14.570031">
                <ele>455.321533</ele>
                <time>2009-03-28T08:04:59Z</time>
            </trkpt>
            <trkpt lon="101.485675" lat="14.569760">
                <ele>454.360230</ele>
                <time>2009-03-28T08:05:17Z</time>
            </trkpt>
            <trkpt lon="101.485392" lat="14.569540">
                <ele>453.398926</ele>
                <time>2009-03-28T08:05:24Z</time>
            </trkpt>
            <trkpt lon="101.485313" lat="14.569510">
                <ele>452.918213</ele>
                <time>2009-03-28T08:05:26Z</time>
            </trkpt>
            <trkpt lon="101.484995" lat="14.569538">
                <ele>452.918213</ele>
                <time>2009-03-28T08:05:35Z</time>
            </trkpt>
            <trkpt lon="101.484620" lat="14.569543">
                <ele>451.957031</ele>
                <time>2009-03-28T08:05:47Z</time>
            </trkpt>
            <trkpt lon="101.484536" lat="14.569546">
                <ele>451.476318</ele>
                <time>2009-03-28T08:05:53Z</time>
            </trkpt>
            <trkpt lon="101.484457" lat="14.569540">
                <ele>450.034424</ele>
                <time>2009-03-28T08:06:05Z</time>
            </trkpt>
            <trkpt lon="101.484455" lat="14.569527">
                <ele>449.072998</ele>
                <time>2009-03-28T08:06:13Z</time>
            </trkpt>
            <trkpt lon="101.484458" lat="14.569532">
                <ele>448.592407</ele>
                <time>2009-03-28T08:06:20Z</time>
            </trkpt>
            <trkpt lon="101.484504" lat="14.569636">
                <ele>448.111816</ele>
                <time>2009-03-28T08:06:25Z</time>
            </trkpt>
            <trkpt lon="101.484659" lat="14.569895">
                <ele>447.150269</ele>
                <time>2009-03-28T08:06:35Z</time>
            </trkpt>
            <trkpt lon="101.484777" lat="14.570116">
                <ele>446.669678</ele>
                <time>2009-03-28T08:06:43Z</time>
            </trkpt>
            <trkpt lon="101.484824" lat="14.570243">
                <ele>446.189087</ele>
                <time>2009-03-28T08:06:48Z</time>
            </trkpt>
            <trkpt lon="101.484753" lat="14.570286">
                <ele>445.227661</ele>
                <time>2009-03-28T08:06:53Z</time>
            </trkpt>
            <trkpt lon="101.484660" lat="14.570296">
                <ele>444.747070</ele>
                <time>2009-03-28T08:06:58Z</time>
            </trkpt>
            <trkpt lon="101.484447" lat="14.570317">
                <ele>444.266480</ele>
                <time>2009-03-28T08:07:09Z</time>
            </trkpt>
            <trkpt lon="101.484341" lat="14.570329">
                <ele>443.305054</ele>
                <time>2009-03-28T08:07:16Z</time>
            </trkpt>
            <trkpt lon="101.484184" lat="14.570348">
                <ele>442.824463</ele>
                <time>2009-03-28T08:07:25Z</time>
            </trkpt>
            <trkpt lon="101.484041" lat="14.570381">
                <ele>442.343872</ele>
                <time>2009-03-28T08:07:32Z</time>
            </trkpt>
            <trkpt lon="101.483940" lat="14.570451">
                <ele>441.382446</ele>
                <time>2009-03-28T08:07:41Z</time>
            </trkpt>
            <trkpt lon="101.483898" lat="14.570461">
                <ele>439.940430</ele>
                <time>2009-03-28T08:07:50Z</time>
            </trkpt>
            <trkpt lon="101.483866" lat="14.570473">
                <ele>438.498535</ele>
                <time>2009-03-28T08:07:58Z</time>
            </trkpt>
            <trkpt lon="101.483831" lat="14.570489">
                <ele>436.575928</ele>
                <time>2009-03-28T08:08:09Z</time>
            </trkpt>
            <trkpt lon="101.483777" lat="14.570528">
                <ele>433.691894</ele>
                <time>2009-03-28T08:08:38Z</time>
            </trkpt>
            <trkpt lon="101.483773" lat="14.570502">
                <ele>429.846558</ele>
                <time>2009-03-28T08:09:03Z</time>
            </trkpt>
            <trkpt lon="101.483771" lat="14.570512">
                <ele>434.172607</ele>
                <time>2009-03-28T08:09:07Z</time>
            </trkpt>
            <trkpt lon="101.483771" lat="14.570512">
                <ele>434.172607</ele>
                <time>2009-03-28T08:09:08Z</time>
            </trkpt>
            <trkpt lon="101.483762" lat="14.570519">
                <ele>431.769165</ele>
                <time>2009-03-28T08:09:17Z</time>
            </trkpt>
            <trkpt lon="101.483749" lat="14.570503">
                <ele>429.846558</ele>
                <time>2009-03-28T08:09:36Z</time>
            </trkpt>
            <trkpt lon="101.483760" lat="14.570524">
                <ele>429.846558</ele>
                <time>2009-03-28T08:09:45Z</time>
            </trkpt>
            <trkpt lon="101.483804" lat="14.570569">
                <ele>428.404663</ele>
                <time>2009-03-28T08:09:53Z</time>
            </trkpt>
            <trkpt lon="101.483813" lat="14.570574">
                <ele>427.923950</ele>
                <time>2009-03-28T08:10:05Z</time>
            </trkpt>
            <trkpt lon="101.483826" lat="14.570582">
                <ele>426.962769</ele>
                <time>2009-03-28T08:10:13Z</time>
            </trkpt>
            <trkpt lon="101.483863" lat="14.570641">
                <ele>424.078735</ele>
                <time>2009-03-28T08:10:29Z</time>
            </trkpt>
            <trkpt lon="101.483873" lat="14.570640">
                <ele>423.598023</ele>
                <time>2009-03-28T08:10:39Z</time>
            </trkpt>
            <trkpt lon="101.483806" lat="14.570630">
                <ele>422.156006</ele>
                <time>2009-03-28T08:11:07Z</time>
            </trkpt>
            <trkpt lon="101.483807" lat="14.570656">
                <ele>420.714111</ele>
                <time>2009-03-28T08:11:40Z</time>
            </trkpt>
            <trkpt lon="101.483788" lat="14.570676">
                <ele>417.830200</ele>
                <time>2009-03-28T08:12:38Z</time>
            </trkpt>
            <trkpt lon="101.483759" lat="14.570760">
                <ele>417.349609</ele>
                <time>2009-03-28T08:12:49Z</time>
            </trkpt>
            <trkpt lon="101.483750" lat="14.570805">
                <ele>416.868897</ele>
                <time>2009-03-28T08:12:56Z</time>
            </trkpt>
            <trkpt lon="101.483700" lat="14.570875">
                <ele>414.465454</ele>
                <time>2009-03-28T08:13:10Z</time>
            </trkpt>
            <trkpt lon="101.483684" lat="14.570900">
                <ele>414.946167</ele>
                <time>2009-03-28T08:13:19Z</time>
            </trkpt>
            <trkpt lon="101.483683" lat="14.570907">
                <ele>414.946167</ele>
                <time>2009-03-28T08:13:26Z</time>
            </trkpt>
            <trkpt lon="101.483712" lat="14.570924">
                <ele>413.984863</ele>
                <time>2009-03-28T08:13:32Z</time>
            </trkpt>
            <trkpt lon="101.483659" lat="14.570953">
                <ele>413.984863</ele>
                <time>2009-03-28T08:13:41Z</time>
            </trkpt>
            <trkpt lon="101.483647" lat="14.570972">
                <ele>413.984863</ele>
                <time>2009-03-28T08:13:50Z</time>
            </trkpt>
            <trkpt lon="101.483650" lat="14.570981">
                <ele>413.504273</ele>
                <time>2009-03-28T08:13:58Z</time>
            </trkpt>
            <trkpt lon="101.483651" lat="14.571000">
                <ele>412.062256</ele>
                <time>2009-03-28T08:14:10Z</time>
            </trkpt>
            <trkpt lon="101.483650" lat="14.571022">
                <ele>411.581665</ele>
                <time>2009-03-28T08:14:17Z</time>
            </trkpt>
            <trkpt lon="101.483674" lat="14.571046">
                <ele>411.581665</ele>
                <time>2009-03-28T08:14:25Z</time>
            </trkpt>
            <trkpt lon="101.483676" lat="14.571059">
                <ele>410.139648</ele>
                <time>2009-03-28T08:14:37Z</time>
            </trkpt>
            <trkpt lon="101.483630" lat="14.571102">
                <ele>408.697632</ele>
                <time>2009-03-28T08:15:14Z</time>
            </trkpt>
            <trkpt lon="101.483603" lat="14.571086">
                <ele>408.217041</ele>
                <time>2009-03-28T08:15:19Z</time>
            </trkpt>
            <trkpt lon="101.483495" lat="14.571022">
                <ele>405.333008</ele>
                <time>2009-03-28T08:15:33Z</time>
            </trkpt>
            <trkpt lon="101.483431" lat="14.570982">
                <ele>404.852295</ele>
                <time>2009-03-28T08:15:43Z</time>
            </trkpt>
            <trkpt lon="101.483356" lat="14.570965">
                <ele>404.371704</ele>
                <time>2009-03-28T08:15:54Z</time>
            </trkpt>
            <trkpt lon="101.483329" lat="14.570957">
                <ele>401.007080</ele>
                <time>2009-03-28T08:16:18Z</time>
            </trkpt>
            <trkpt lon="101.483348" lat="14.570964">
                <ele>398.123169</ele>
                <time>2009-03-28T08:16:49Z</time>
            </trkpt>
            <trkpt lon="101.483446" lat="14.571015">
                <ele>397.161743</ele>
                <time>2009-03-28T08:17:06Z</time>
            </trkpt>
            <trkpt lon="101.483429" lat="14.571008">
                <ele>397.161743</ele>
                <time>2009-03-28T08:17:14Z</time>
            </trkpt>
            <trkpt lon="101.483418" lat="14.571038">
                <ele>394.758545</ele>
                <time>2009-03-28T08:17:51Z</time>
            </trkpt>
            <trkpt lon="101.483395" lat="14.571042">
                <ele>391.874512</ele>
                <time>2009-03-28T08:18:53Z</time>
            </trkpt>
            <trkpt lon="101.483408" lat="14.571031">
                <ele>388.510010</ele>
                <time>2009-03-28T08:19:49Z</time>
            </trkpt>
            <trkpt lon="101.483291" lat="14.570897">
                <ele>385.145386</ele>
                <time>2009-03-28T08:20:56Z</time>
            </trkpt>
            <trkpt lon="101.483313" lat="14.570956">
                <ele>382.261352</ele>
                <time>2009-03-28T08:21:57Z</time>
            </trkpt>
            <trkpt lon="101.483387" lat="14.571029">
                <ele>381.780640</ele>
                <time>2009-03-28T08:23:21Z</time>
            </trkpt>
            <trkpt lon="101.483405" lat="14.571032">
                <ele>377.935425</ele>
                <time>2009-03-28T08:26:04Z</time>
            </trkpt>
            <trkpt lon="101.483394" lat="14.571011">
                <ele>377.454834</ele>
                <time>2009-03-28T08:26:13Z</time>
            </trkpt>
            <trkpt lon="101.483289" lat="14.570949">
                <ele>377.454834</ele>
                <time>2009-03-28T08:26:23Z</time>
            </trkpt>
            <trkpt lon="101.483149" lat="14.570830">
                <ele>377.454834</ele>
                <time>2009-03-28T08:26:34Z</time>
            </trkpt>
            <trkpt lon="101.483119" lat="14.570737">
                <ele>376.974243</ele>
                <time>2009-03-28T08:26:42Z</time>
            </trkpt>
            <trkpt lon="101.483108" lat="14.570718">
                <ele>377.935425</ele>
                <time>2009-03-28T08:26:47Z</time>
            </trkpt>
            <trkpt lon="101.483125" lat="14.570721">
                <ele>378.416138</ele>
                <time>2009-03-28T08:26:54Z</time>
            </trkpt>
            <trkpt lon="101.483114" lat="14.570696">
                <ele>381.300049</ele>
                <time>2009-03-28T08:27:53Z</time>
            </trkpt>
            <trkpt lon="101.483120" lat="14.570686">
                <ele>381.300049</ele>
                <time>2009-03-28T08:28:08Z</time>
            </trkpt>
            <trkpt lon="101.483109" lat="14.570660">
                <ele>382.261352</ele>
                <time>2009-03-28T08:28:14Z</time>
            </trkpt>
            <trkpt lon="101.482974" lat="14.570594">
                <ele>381.780640</ele>
                <time>2009-03-28T08:28:26Z</time>
            </trkpt>
            <trkpt lon="101.482798" lat="14.570545">
                <ele>381.780640</ele>
                <time>2009-03-28T08:28:38Z</time>
            </trkpt>
            <trkpt lon="101.482730" lat="14.570537">
                <ele>381.300049</ele>
                <time>2009-03-28T08:28:42Z</time>
            </trkpt>
            <trkpt lon="101.482515" lat="14.570659">
                <ele>381.300049</ele>
                <time>2009-03-28T08:28:53Z</time>
            </trkpt>
            <trkpt lon="101.482454" lat="14.570766">
                <ele>380.819458</ele>
                <time>2009-03-28T08:29:02Z</time>
            </trkpt>
            <trkpt lon="101.482319" lat="14.570847">
                <ele>380.819458</ele>
                <time>2009-03-28T08:29:09Z</time>
            </trkpt>
            <trkpt lon="101.482023" lat="14.570950">
                <ele>379.858032</ele>
                <time>2009-03-28T08:29:19Z</time>
            </trkpt>
            <trkpt lon="101.481855" lat="14.571043">
                <ele>378.896851</ele>
                <time>2009-03-28T08:29:26Z</time>
            </trkpt>
            <trkpt lon="101.481583" lat="14.571149">
                <ele>378.416138</ele>
                <time>2009-03-28T08:29:37Z</time>
            </trkpt>
            <trkpt lon="101.481387" lat="14.571191">
                <ele>377.454834</ele>
                <time>2009-03-28T08:29:45Z</time>
            </trkpt>
            <trkpt lon="101.481247" lat="14.571224">
                <ele>377.454834</ele>
                <time>2009-03-28T08:29:53Z</time>
            </trkpt>
            <trkpt lon="101.481000" lat="14.571297">
                <ele>376.493530</ele>
                <time>2009-03-28T08:30:05Z</time>
            </trkpt>
            <trkpt lon="101.480715" lat="14.571381">
                <ele>376.012817</ele>
                <time>2009-03-28T08:30:16Z</time>
            </trkpt>
            <trkpt lon="101.480553" lat="14.571417">
                <ele>376.012817</ele>
                <time>2009-03-28T08:30:23Z</time>
            </trkpt>
            <trkpt lon="101.480333" lat="14.571474">
                <ele>375.051514</ele>
                <time>2009-03-28T08:30:33Z</time>
            </trkpt>
            <trkpt lon="101.480167" lat="14.571517">
                <ele>375.051514</ele>
                <time>2009-03-28T08:30:41Z</time>
            </trkpt>
            <trkpt lon="101.479974" lat="14.571557">
                <ele>375.051514</ele>
                <time>2009-03-28T08:30:51Z</time>
            </trkpt>
            <trkpt lon="101.479784" lat="14.571566">
                <ele>374.090088</ele>
                <time>2009-03-28T08:31:02Z</time>
            </trkpt>
            <trkpt lon="101.479645" lat="14.571489">
                <ele>374.090088</ele>
                <time>2009-03-28T08:31:10Z</time>
            </trkpt>
            <trkpt lon="101.479392" lat="14.571290">
                <ele>373.128906</ele>
                <time>2009-03-28T08:31:17Z</time>
            </trkpt>
            <trkpt lon="101.479114" lat="14.571154">
                <ele>374.090088</ele>
                <time>2009-03-28T08:31:27Z</time>
            </trkpt>
            <trkpt lon="101.478843" lat="14.571037">
                <ele>373.609497</ele>
                <time>2009-03-28T08:31:39Z</time>
            </trkpt>
            <trkpt lon="101.478556" lat="14.570996">
                <ele>372.648193</ele>
                <time>2009-03-28T08:31:51Z</time>
            </trkpt>
            <trkpt lon="101.478343" lat="14.570987">
                <ele>372.167481</ele>
                <time>2009-03-28T08:32:02Z</time>
            </trkpt>
            <trkpt lon="101.478158" lat="14.570965">
                <ele>372.167481</ele>
                <time>2009-03-28T08:32:11Z</time>
            </trkpt>
            <trkpt lon="101.478005" lat="14.570966">
                <ele>371.686890</ele>
                <time>2009-03-28T08:32:20Z</time>
            </trkpt>
            <trkpt lon="101.477689" lat="14.571017">
                <ele>371.206299</ele>
                <time>2009-03-28T08:32:31Z</time>
            </trkpt>
            <trkpt lon="101.477490" lat="14.571113">
                <ele>371.686890</ele>
                <time>2009-03-28T08:32:40Z</time>
            </trkpt>
            <trkpt lon="101.477298" lat="14.571156">
                <ele>372.167481</ele>
                <time>2009-03-28T08:32:49Z</time>
            </trkpt>
            <trkpt lon="101.477053" lat="14.571162">
                <ele>372.167481</ele>
                <time>2009-03-28T08:33:00Z</time>
            </trkpt>
            <trkpt lon="101.476804" lat="14.571159">
                <ele>372.167481</ele>
                <time>2009-03-28T08:33:09Z</time>
            </trkpt>
            <trkpt lon="101.476676" lat="14.571173">
                <ele>371.686890</ele>
                <time>2009-03-28T08:33:16Z</time>
            </trkpt>
            <trkpt lon="101.476514" lat="14.571189">
                <ele>370.725586</ele>
                <time>2009-03-28T08:33:24Z</time>
            </trkpt>
            <trkpt lon="101.476333" lat="14.571175">
                <ele>370.244873</ele>
                <time>2009-03-28T08:33:33Z</time>
            </trkpt>
            <trkpt lon="101.476176" lat="14.571169">
                <ele>369.764282</ele>
                <time>2009-03-28T08:33:42Z</time>
            </trkpt>
            <trkpt lon="101.476011" lat="14.571166">
                <ele>371.206299</ele>
                <time>2009-03-28T08:33:53Z</time>
            </trkpt>
            <trkpt lon="101.475858" lat="14.571124">
                <ele>371.206299</ele>
                <time>2009-03-28T08:34:01Z</time>
            </trkpt>
            <trkpt lon="101.475644" lat="14.571059">
                <ele>370.244873</ele>
                <time>2009-03-28T08:34:09Z</time>
            </trkpt>
            <trkpt lon="101.475394" lat="14.571027">
                <ele>371.206299</ele>
                <time>2009-03-28T08:34:16Z</time>
            </trkpt>
            <trkpt lon="101.475148" lat="14.570986">
                <ele>371.206299</ele>
                <time>2009-03-28T08:34:25Z</time>
            </trkpt>
            <trkpt lon="101.474871" lat="14.570927">
                <ele>371.206299</ele>
                <time>2009-03-28T08:34:35Z</time>
            </trkpt>
            <trkpt lon="101.474714" lat="14.570914">
                <ele>371.206299</ele>
                <time>2009-03-28T08:34:42Z</time>
            </trkpt>
            <trkpt lon="101.474500" lat="14.570910">
                <ele>371.206299</ele>
                <time>2009-03-28T08:34:51Z</time>
            </trkpt>
            <trkpt lon="101.474326" lat="14.570904">
                <ele>371.206299</ele>
                <time>2009-03-28T08:34:59Z</time>
            </trkpt>
            <trkpt lon="101.474134" lat="14.570904">
                <ele>371.206299</ele>
                <time>2009-03-28T08:35:08Z</time>
            </trkpt>
            <trkpt lon="101.473909" lat="14.570967">
                <ele>370.725586</ele>
                <time>2009-03-28T08:35:18Z</time>
            </trkpt>
            <trkpt lon="101.473660" lat="14.571032">
                <ele>370.244873</ele>
                <time>2009-03-28T08:35:29Z</time>
            </trkpt>
            <trkpt lon="101.473645" lat="14.571037">
                <ele>370.725586</ele>
                <time>2009-03-28T08:35:30Z</time>
            </trkpt>
            <trkpt lon="101.473581" lat="14.571038">
                <ele>370.725586</ele>
                <time>2009-03-28T08:35:34Z</time>
            </trkpt>
            <trkpt lon="101.473512" lat="14.571103">
                <ele>370.725586</ele>
                <time>2009-03-28T08:35:39Z</time>
            </trkpt>
            <trkpt lon="101.473483" lat="14.571126">
                <ele>370.725586</ele>
                <time>2009-03-28T08:35:41Z</time>
            </trkpt>
            <trkpt lon="101.473389" lat="14.571240">
                <ele>369.764282</ele>
                <time>2009-03-28T08:35:49Z</time>
            </trkpt>
            <trkpt lon="101.473161" lat="14.571361">
                <ele>368.802978</ele>
                <time>2009-03-28T08:36:01Z</time>
            </trkpt>
            <trkpt lon="101.472975" lat="14.571514">
                <ele>368.802978</ele>
                <time>2009-03-28T08:36:12Z</time>
            </trkpt>
            <trkpt lon="101.472778" lat="14.571663">
                <ele>368.802978</ele>
                <time>2009-03-28T08:36:23Z</time>
            </trkpt>
            <trkpt lon="101.472605" lat="14.571871">
                <ele>368.322266</ele>
                <time>2009-03-28T08:36:35Z</time>
            </trkpt>
            <trkpt lon="101.472503" lat="14.572014">
                <ele>368.322266</ele>
                <time>2009-03-28T08:36:43Z</time>
            </trkpt>
            <trkpt lon="101.472332" lat="14.572177">
                <ele>368.322266</ele>
                <time>2009-03-28T08:36:54Z</time>
            </trkpt>
            <trkpt lon="101.472133" lat="14.572334">
                <ele>367.841553</ele>
                <time>2009-03-28T08:37:06Z</time>
            </trkpt>
            <trkpt lon="101.471984" lat="14.572427">
                <ele>368.322266</ele>
                <time>2009-03-28T08:37:15Z</time>
            </trkpt>
            <trkpt lon="101.471820" lat="14.572494">
                <ele>368.322266</ele>
                <time>2009-03-28T08:37:25Z</time>
            </trkpt>
            <trkpt lon="101.471506" lat="14.572732">
                <ele>368.322266</ele>
                <time>2009-03-28T08:37:40Z</time>
            </trkpt>
            <trkpt lon="101.471362" lat="14.572831">
                <ele>368.322266</ele>
                <time>2009-03-28T08:37:48Z</time>
            </trkpt>
            <trkpt lon="101.471136" lat="14.572953">
                <ele>368.802978</ele>
                <time>2009-03-28T08:38:00Z</time>
            </trkpt>
            <trkpt lon="101.470959" lat="14.573102">
                <ele>368.802978</ele>
                <time>2009-03-28T08:38:11Z</time>
            </trkpt>
            <trkpt lon="101.470843" lat="14.573251">
                <ele>368.322266</ele>
                <time>2009-03-28T08:38:21Z</time>
            </trkpt>
            <trkpt lon="101.470671" lat="14.573325">
                <ele>368.322266</ele>
                <time>2009-03-28T08:38:31Z</time>
            </trkpt>
            <trkpt lon="101.470585" lat="14.573339">
                <ele>367.841553</ele>
                <time>2009-03-28T08:38:36Z</time>
            </trkpt>
            <trkpt lon="101.470434" lat="14.573384">
                <ele>367.841553</ele>
                <time>2009-03-28T08:38:45Z</time>
            </trkpt>
            <trkpt lon="101.470267" lat="14.573418">
                <ele>367.841553</ele>
                <time>2009-03-28T08:38:54Z</time>
            </trkpt>
            <trkpt lon="101.470050" lat="14.573471">
                <ele>367.841553</ele>
                <time>2009-03-28T08:39:05Z</time>
            </trkpt>
            <trkpt lon="101.470016" lat="14.573477">
                <ele>368.322266</ele>
                <time>2009-03-28T08:39:07Z</time>
            </trkpt>
            <trkpt lon="101.469854" lat="14.573511">
                <ele>368.322266</ele>
                <time>2009-03-28T08:39:17Z</time>
            </trkpt>
            <trkpt lon="101.469708" lat="14.573570">
                <ele>368.322266</ele>
                <time>2009-03-28T08:39:26Z</time>
            </trkpt>
            <trkpt lon="101.469502" lat="14.573688">
                <ele>368.802978</ele>
                <time>2009-03-28T08:39:38Z</time>
            </trkpt>
            <trkpt lon="101.469446" lat="14.573709">
                <ele>369.764282</ele>
                <time>2009-03-28T08:39:44Z</time>
            </trkpt>
            <trkpt lon="101.469352" lat="14.573736">
                <ele>368.802978</ele>
                <time>2009-03-28T08:39:55Z</time>
            </trkpt>
            <trkpt lon="101.469223" lat="14.573759">
                <ele>367.841553</ele>
                <time>2009-03-28T08:40:09Z</time>
            </trkpt>
            <trkpt lon="101.469116" lat="14.573752">
                <ele>366.880249</ele>
                <time>2009-03-28T08:40:21Z</time>
            </trkpt>
            <trkpt lon="101.469036" lat="14.573742">
                <ele>366.880249</ele>
                <time>2009-03-28T08:40:31Z</time>
            </trkpt>
            <trkpt lon="101.468906" lat="14.573716">
                <ele>365.438355</ele>
                <time>2009-03-28T08:40:45Z</time>
            </trkpt>
            <trkpt lon="101.468841" lat="14.573685">
                <ele>364.957642</ele>
                <time>2009-03-28T08:40:54Z</time>
            </trkpt>
            <trkpt lon="101.468762" lat="14.573629">
                <ele>365.438355</ele>
                <time>2009-03-28T08:41:05Z</time>
            </trkpt>
            <trkpt lon="101.468708" lat="14.573572">
                <ele>365.438355</ele>
                <time>2009-03-28T08:41:15Z</time>
            </trkpt>
            <trkpt lon="101.468648" lat="14.573516">
                <ele>364.957642</ele>
                <time>2009-03-28T08:41:25Z</time>
            </trkpt>
            <trkpt lon="101.468605" lat="14.573495">
                <ele>364.476929</ele>
                <time>2009-03-28T08:41:32Z</time>
            </trkpt>
            <trkpt lon="101.468583" lat="14.573485">
                <ele>364.957642</ele>
                <time>2009-03-28T08:41:42Z</time>
            </trkpt>
            <trkpt lon="101.468523" lat="14.573471">
                <ele>365.918945</ele>
                <time>2009-03-28T08:41:54Z</time>
            </trkpt>
            <trkpt lon="101.468434" lat="14.573444">
                <ele>366.399536</ele>
                <time>2009-03-28T08:42:05Z</time>
            </trkpt>
            <trkpt lon="101.468363" lat="14.573409">
                <ele>367.360962</ele>
                <time>2009-03-28T08:42:16Z</time>
            </trkpt>
            <trkpt lon="101.468320" lat="14.573413">
                <ele>367.360962</ele>
                <time>2009-03-28T08:42:24Z</time>
            </trkpt>
            <trkpt lon="101.468278" lat="14.573384">
                <ele>367.841553</ele>
                <time>2009-03-28T08:42:34Z</time>
            </trkpt>
            <trkpt lon="101.468227" lat="14.573339">
                <ele>368.322266</ele>
                <time>2009-03-28T08:42:46Z</time>
            </trkpt>
            <trkpt lon="101.468162" lat="14.573314">
                <ele>369.283691</ele>
                <time>2009-03-28T08:43:02Z</time>
            </trkpt>
            <trkpt lon="101.468096" lat="14.573266">
                <ele>370.725586</ele>
                <time>2009-03-28T08:43:13Z</time>
            </trkpt>
            <trkpt lon="101.468031" lat="14.573237">
                <ele>371.686890</ele>
                <time>2009-03-28T08:43:23Z</time>
            </trkpt>
            <trkpt lon="101.467961" lat="14.573202">
                <ele>371.686890</ele>
                <time>2009-03-28T08:43:32Z</time>
            </trkpt>
            <trkpt lon="101.467863" lat="14.573165">
                <ele>372.167481</ele>
                <time>2009-03-28T08:43:44Z</time>
            </trkpt>
            <trkpt lon="101.467777" lat="14.573144">
                <ele>371.686890</ele>
                <time>2009-03-28T08:43:54Z</time>
            </trkpt>
            <trkpt lon="101.467686" lat="14.573121">
                <ele>373.128906</ele>
                <time>2009-03-28T08:44:05Z</time>
            </trkpt>
            <trkpt lon="101.467598" lat="14.573101">
                <ele>375.051514</ele>
                <time>2009-03-28T08:44:18Z</time>
            </trkpt>
            <trkpt lon="101.467568" lat="14.573074">
                <ele>374.570801</ele>
                <time>2009-03-28T08:44:29Z</time>
            </trkpt>
            <trkpt lon="101.467449" lat="14.572993">
                <ele>375.051514</ele>
                <time>2009-03-28T08:44:37Z</time>
            </trkpt>
            <trkpt lon="101.467344" lat="14.572906">
                <ele>375.532105</ele>
                <time>2009-03-28T08:44:46Z</time>
            </trkpt>
            <trkpt lon="101.467172" lat="14.572819">
                <ele>376.012817</ele>
                <time>2009-03-28T08:44:55Z</time>
            </trkpt>
            <trkpt lon="101.466958" lat="14.572698">
                <ele>376.493530</ele>
                <time>2009-03-28T08:45:06Z</time>
            </trkpt>
            <trkpt lon="101.466686" lat="14.572542">
                <ele>376.974243</ele>
                <time>2009-03-28T08:45:17Z</time>
            </trkpt>
            <trkpt lon="101.466490" lat="14.572416">
                <ele>375.532105</ele>
                <time>2009-03-28T08:45:27Z</time>
            </trkpt>
            <trkpt lon="101.466367" lat="14.572352">
                <ele>375.532105</ele>
                <time>2009-03-28T08:45:35Z</time>
            </trkpt>
            <trkpt lon="101.466189" lat="14.572192">
                <ele>375.532105</ele>
                <time>2009-03-28T08:45:44Z</time>
            </trkpt>
            <trkpt lon="101.466012" lat="14.572007">
                <ele>376.012817</ele>
                <time>2009-03-28T08:45:54Z</time>
            </trkpt>
            <trkpt lon="101.465851" lat="14.571884">
                <ele>374.570801</ele>
                <time>2009-03-28T08:46:01Z</time>
            </trkpt>
            <trkpt lon="101.465780" lat="14.571756">
                <ele>374.570801</ele>
                <time>2009-03-28T08:46:08Z</time>
            </trkpt>
            <trkpt lon="101.465772" lat="14.571541">
                <ele>375.051514</ele>
                <time>2009-03-28T08:46:15Z</time>
            </trkpt>
            <trkpt lon="101.465743" lat="14.571319">
                <ele>375.051514</ele>
                <time>2009-03-28T08:46:24Z</time>
            </trkpt>
            <trkpt lon="101.465784" lat="14.571063">
                <ele>376.493530</ele>
                <time>2009-03-28T08:46:37Z</time>
            </trkpt>
            <trkpt lon="101.465945" lat="14.570825">
                <ele>376.974243</ele>
                <time>2009-03-28T08:46:52Z</time>
            </trkpt>
            <trkpt lon="101.466116" lat="14.570594">
                <ele>377.935425</ele>
                <time>2009-03-28T08:47:05Z</time>
            </trkpt>
            <trkpt lon="101.466224" lat="14.570291">
                <ele>378.416138</ele>
                <time>2009-03-28T08:47:19Z</time>
            </trkpt>
            <trkpt lon="101.466246" lat="14.570240">
                <ele>378.896851</ele>
                <time>2009-03-28T08:47:22Z</time>
            </trkpt>
            <trkpt lon="101.466257" lat="14.570167">
                <ele>379.377441</ele>
                <time>2009-03-28T08:47:25Z</time>
            </trkpt>
            <trkpt lon="101.466421" lat="14.569873">
                <ele>379.858032</ele>
                <time>2009-03-28T08:47:33Z</time>
            </trkpt>
            <trkpt lon="101.466489" lat="14.569712">
                <ele>379.377441</ele>
                <time>2009-03-28T08:47:37Z</time>
            </trkpt>
            <trkpt lon="101.466722" lat="14.569285">
                <ele>379.858032</ele>
                <time>2009-03-28T08:47:49Z</time>
            </trkpt>
            <trkpt lon="101.466816" lat="14.569040">
                <ele>380.338745</ele>
                <time>2009-03-28T08:47:55Z</time>
            </trkpt>
            <trkpt lon="101.467215" lat="14.568569">
                <ele>380.819458</ele>
                <time>2009-03-28T08:48:12Z</time>
            </trkpt>
            <trkpt lon="101.467355" lat="14.568254">
                <ele>381.300049</ele>
                <time>2009-03-28T08:48:22Z</time>
            </trkpt>
            <trkpt lon="101.467329" lat="14.568030">
                <ele>380.338745</ele>
                <time>2009-03-28T08:48:29Z</time>
            </trkpt>
            <trkpt lon="101.467207" lat="14.567759">
                <ele>380.819458</ele>
                <time>2009-03-28T08:48:41Z</time>
            </trkpt>
            <trkpt lon="101.467089" lat="14.567640">
                <ele>380.819458</ele>
                <time>2009-03-28T08:48:49Z</time>
            </trkpt>
            <trkpt lon="101.466850" lat="14.567465">
                <ele>380.819458</ele>
                <time>2009-03-28T08:49:03Z</time>
            </trkpt>
            <trkpt lon="101.466694" lat="14.567354">
                <ele>380.819458</ele>
                <time>2009-03-28T08:49:12Z</time>
            </trkpt>
            <trkpt lon="101.466483" lat="14.567194">
                <ele>381.300049</ele>
                <time>2009-03-28T08:49:24Z</time>
            </trkpt>
            <trkpt lon="101.466301" lat="14.567082">
                <ele>381.300049</ele>
                <time>2009-03-28T08:49:33Z</time>
            </trkpt>
            <trkpt lon="101.466130" lat="14.566943">
                <ele>381.780640</ele>
                <time>2009-03-28T08:49:42Z</time>
            </trkpt>
            <trkpt lon="101.465969" lat="14.566816">
                <ele>382.261352</ele>
                <time>2009-03-28T08:49:50Z</time>
            </trkpt>
            <trkpt lon="101.465852" lat="14.566688">
                <ele>382.742065</ele>
                <time>2009-03-28T08:49:59Z</time>
            </trkpt>
            <trkpt lon="101.465673" lat="14.566473">
                <ele>383.703247</ele>
                <time>2009-03-28T08:50:14Z</time>
            </trkpt>
            <trkpt lon="101.465462" lat="14.566284">
                <ele>384.664795</ele>
                <time>2009-03-28T08:50:27Z</time>
            </trkpt>
            <trkpt lon="101.465304" lat="14.566062">
                <ele>384.664795</ele>
                <time>2009-03-28T08:50:41Z</time>
            </trkpt>
            <trkpt lon="101.465167" lat="14.565884">
                <ele>380.819458</ele>
                <time>2009-03-28T08:50:53Z</time>
            </trkpt>
            <trkpt lon="101.465161" lat="14.565874">
                <ele>376.012817</ele>
                <time>2009-03-28T08:50:54Z</time>
            </trkpt>
            <trkpt lon="101.465152" lat="14.565859">
                <ele>387.067993</ele>
                <time>2009-03-28T08:50:55Z</time>
            </trkpt>
            <trkpt lon="101.465140" lat="14.565855">
                <ele>385.625977</ele>
                <time>2009-03-28T08:50:56Z</time>
            </trkpt>
            <trkpt lon="101.465021" lat="14.565736">
                <ele>385.145386</ele>
                <time>2009-03-28T08:51:10Z</time>
            </trkpt>
            <trkpt lon="101.464970" lat="14.565634">
                <ele>386.106690</ele>
                <time>2009-03-28T08:51:21Z</time>
            </trkpt>
            <trkpt lon="101.464942" lat="14.565567">
                <ele>386.106690</ele>
                <time>2009-03-28T08:51:30Z</time>
            </trkpt>
            <trkpt lon="101.464919" lat="14.565505">
                <ele>380.819458</ele>
                <time>2009-03-28T08:51:48Z</time>
            </trkpt>
            <trkpt lon="101.464919" lat="14.565504">
                <ele>377.454834</ele>
                <time>2009-03-28T08:51:49Z</time>
            </trkpt>
            <trkpt lon="101.464914" lat="14.565493">
                <ele>381.780640</ele>
                <time>2009-03-28T08:51:58Z</time>
            </trkpt>
            <trkpt lon="101.464896" lat="14.565392">
                <ele>381.780640</ele>
                <time>2009-03-28T08:52:18Z</time>
            </trkpt>
            <trkpt lon="101.464844" lat="14.565286">
                <ele>382.261352</ele>
                <time>2009-03-28T08:52:29Z</time>
            </trkpt>
            <trkpt lon="101.464785" lat="14.565190">
                <ele>384.184082</ele>
                <time>2009-03-28T08:52:41Z</time>
            </trkpt>
            <trkpt lon="101.464714" lat="14.565099">
                <ele>384.664795</ele>
                <time>2009-03-28T08:52:54Z</time>
            </trkpt>
            <trkpt lon="101.464621" lat="14.564842">
                <ele>386.106690</ele>
                <time>2009-03-28T08:53:06Z</time>
            </trkpt>
            <trkpt lon="101.464558" lat="14.564698">
                <ele>386.587402</ele>
                <time>2009-03-28T08:53:14Z</time>
            </trkpt>
            <trkpt lon="101.464646" lat="14.564869">
                <ele>386.587402</ele>
                <time>2009-03-28T08:53:17Z</time>
            </trkpt>
            <trkpt lon="101.464206" lat="14.564163">
                <ele>388.510010</ele>
                <time>2009-03-28T08:53:25Z</time>
            </trkpt>
            <trkpt lon="101.464161" lat="14.564132">
                <ele>389.471191</ele>
                <time>2009-03-28T08:53:35Z</time>
            </trkpt>
            <trkpt lon="101.463852" lat="14.564197">
                <ele>389.951904</ele>
                <time>2009-03-28T08:53:48Z</time>
            </trkpt>
            <trkpt lon="101.463575" lat="14.564229">
                <ele>390.913208</ele>
                <time>2009-03-28T08:54:00Z</time>
            </trkpt>
            <trkpt lon="101.463330" lat="14.564247">
                <ele>389.951904</ele>
                <time>2009-03-28T08:54:09Z</time>
            </trkpt>
            <trkpt lon="101.463246" lat="14.564264">
                <ele>390.432617</ele>
                <time>2009-03-28T08:54:12Z</time>
            </trkpt>
            <trkpt lon="101.463204" lat="14.564380">
                <ele>390.913208</ele>
                <time>2009-03-28T08:54:19Z</time>
            </trkpt>
            <trkpt lon="101.463230" lat="14.564681">
                <ele>390.913208</ele>
                <time>2009-03-28T08:54:35Z</time>
            </trkpt>
            <trkpt lon="101.463197" lat="14.564824">
                <ele>391.393799</ele>
                <time>2009-03-28T08:54:41Z</time>
            </trkpt>
            <trkpt lon="101.463153" lat="14.564835">
                <ele>391.393799</ele>
                <time>2009-03-28T08:54:44Z</time>
            </trkpt>
            <trkpt lon="101.463154" lat="14.564982">
                <ele>391.874512</ele>
                <time>2009-03-28T08:54:51Z</time>
            </trkpt>
            <trkpt lon="101.463160" lat="14.565054">
                <ele>391.874512</ele>
                <time>2009-03-28T08:54:54Z</time>
            </trkpt>
            <trkpt lon="101.463177" lat="14.565291">
                <ele>392.355347</ele>
                <time>2009-03-28T08:55:03Z</time>
            </trkpt>
            <trkpt lon="101.463193" lat="14.565517">
                <ele>392.835938</ele>
                <time>2009-03-28T08:55:13Z</time>
            </trkpt>
            <trkpt lon="101.463185" lat="14.565574">
                <ele>392.835938</ele>
                <time>2009-03-28T08:55:28Z</time>
            </trkpt>
            <trkpt lon="101.463158" lat="14.565747">
                <ele>392.355347</ele>
                <time>2009-03-28T08:56:29Z</time>
            </trkpt>
            <trkpt lon="101.463202" lat="14.565982">
                <ele>392.835938</ele>
                <time>2009-03-28T08:56:40Z</time>
            </trkpt>
            <trkpt lon="101.463225" lat="14.566228">
                <ele>394.277954</ele>
                <time>2009-03-28T08:56:50Z</time>
            </trkpt>
            <trkpt lon="101.463240" lat="14.566355">
                <ele>394.758545</ele>
                <time>2009-03-28T08:56:59Z</time>
            </trkpt>
            <trkpt lon="101.463249" lat="14.566485">
                <ele>395.719849</ele>
                <time>2009-03-28T08:57:10Z</time>
            </trkpt>
            <trkpt lon="101.463267" lat="14.566622">
                <ele>396.200561</ele>
                <time>2009-03-28T08:57:21Z</time>
            </trkpt>
            <trkpt lon="101.463279" lat="14.566671">
                <ele>396.200561</ele>
                <time>2009-03-28T08:57:30Z</time>
            </trkpt>
            <trkpt lon="101.463288" lat="14.566778">
                <ele>396.681152</ele>
                <time>2009-03-28T08:57:47Z</time>
            </trkpt>
            <trkpt lon="101.463298" lat="14.566864">
                <ele>397.161743</ele>
                <time>2009-03-28T08:57:59Z</time>
            </trkpt>
            <trkpt lon="101.463304" lat="14.566919">
                <ele>397.642456</ele>
                <time>2009-03-28T08:58:08Z</time>
            </trkpt>
            <trkpt lon="101.463314" lat="14.567047">
                <ele>397.642456</ele>
                <time>2009-03-28T08:58:22Z</time>
            </trkpt>
            <trkpt lon="101.463338" lat="14.567134">
                <ele>397.642456</ele>
                <time>2009-03-28T08:58:32Z</time>
            </trkpt>
            <trkpt lon="101.463313" lat="14.567249">
                <ele>398.603760</ele>
                <time>2009-03-28T08:58:42Z</time>
            </trkpt>
            <trkpt lon="101.463295" lat="14.567277">
                <ele>399.084351</ele>
                <time>2009-03-28T08:58:51Z</time>
            </trkpt>
            <trkpt lon="101.463268" lat="14.567288">
                <ele>399.565064</ele>
                <time>2009-03-28T08:59:03Z</time>
            </trkpt>
            <trkpt lon="101.463238" lat="14.567296">
                <ele>398.603760</ele>
                <time>2009-03-28T08:59:08Z</time>
            </trkpt>
            <trkpt lon="101.463080" lat="14.567256">
                <ele>399.565064</ele>
                <time>2009-03-28T08:59:17Z</time>
            </trkpt>
            <trkpt lon="101.462748" lat="14.567139">
                <ele>399.565064</ele>
                <time>2009-03-28T08:59:26Z</time>
            </trkpt>
            <trkpt lon="101.462188" lat="14.566942">
                <ele>401.487793</ele>
                <time>2009-03-28T08:59:37Z</time>
            </trkpt>
            <trkpt lon="101.461715" lat="14.566778">
                <ele>401.487793</ele>
                <time>2009-03-28T08:59:44Z</time>
            </trkpt>
            <trkpt lon="101.460640" lat="14.566354">
                <ele>402.929688</ele>
                <time>2009-03-28T09:00:00Z</time>
            </trkpt>
            <trkpt lon="101.460452" lat="14.566275">
                <ele>403.410400</ele>
                <time>2009-03-28T09:00:03Z</time>
            </trkpt>
            <trkpt lon="101.460273" lat="14.565934">
                <ele>403.891113</ele>
                <time>2009-03-28T09:00:10Z</time>
            </trkpt>
            <trkpt lon="101.460156" lat="14.565691">
                <ele>403.891113</ele>
                <time>2009-03-28T09:00:16Z</time>
            </trkpt>
            <trkpt lon="101.459700" lat="14.565046">
                <ele>404.371704</ele>
                <time>2009-03-28T09:00:29Z</time>
            </trkpt>
            <trkpt lon="101.459378" lat="14.564665">
                <ele>403.891113</ele>
                <time>2009-03-28T09:00:37Z</time>
            </trkpt>
            <trkpt lon="101.459227" lat="14.564638">
                <ele>403.891113</ele>
                <time>2009-03-28T09:00:44Z</time>
            </trkpt>
            <trkpt lon="101.458956" lat="14.564536">
                <ele>402.449097</ele>
                <time>2009-03-28T09:00:54Z</time>
            </trkpt>
            <trkpt lon="101.458778" lat="14.564563">
                <ele>401.968506</ele>
                <time>2009-03-28T09:01:03Z</time>
            </trkpt>
            <trkpt lon="101.458792" lat="14.564578">
                <ele>401.487793</ele>
                <time>2009-03-28T09:01:08Z</time>
            </trkpt>
            <trkpt lon="101.458901" lat="14.564750">
                <ele>401.007080</ele>
                <time>2009-03-28T09:01:18Z</time>
            </trkpt>
            <trkpt lon="101.459041" lat="14.565016">
                <ele>399.565064</ele>
                <time>2009-03-28T09:01:30Z</time>
            </trkpt>
            <trkpt lon="101.459120" lat="14.565306">
                <ele>400.045898</ele>
                <time>2009-03-28T09:01:42Z</time>
            </trkpt>
            <trkpt lon="101.459153" lat="14.565565">
                <ele>400.045898</ele>
                <time>2009-03-28T09:01:53Z</time>
            </trkpt>
            <trkpt lon="101.459159" lat="14.565750">
                <ele>400.526489</ele>
                <time>2009-03-28T09:02:03Z</time>
            </trkpt>
            <trkpt lon="101.459209" lat="14.565932">
                <ele>400.526489</ele>
                <time>2009-03-28T09:02:15Z</time>
            </trkpt>
            <trkpt lon="101.459311" lat="14.566146">
                <ele>400.526489</ele>
                <time>2009-03-28T09:02:25Z</time>
            </trkpt>
            <trkpt lon="101.459447" lat="14.566349">
                <ele>399.084351</ele>
                <time>2009-03-28T09:02:35Z</time>
            </trkpt>
            <trkpt lon="101.459694" lat="14.566674">
                <ele>399.084351</ele>
                <time>2009-03-28T09:02:47Z</time>
            </trkpt>
            <trkpt lon="101.459840" lat="14.566948">
                <ele>399.084351</ele>
                <time>2009-03-28T09:02:57Z</time>
            </trkpt>
            <trkpt lon="101.459986" lat="14.567291">
                <ele>398.603760</ele>
                <time>2009-03-28T09:03:09Z</time>
            </trkpt>
            <trkpt lon="101.460183" lat="14.567559">
                <ele>398.603760</ele>
                <time>2009-03-28T09:03:20Z</time>
            </trkpt>
            <trkpt lon="101.460402" lat="14.567798">
                <ele>398.123169</ele>
                <time>2009-03-28T09:03:34Z</time>
            </trkpt>
            <trkpt lon="101.460565" lat="14.568007">
                <ele>397.642456</ele>
                <time>2009-03-28T09:03:48Z</time>
            </trkpt>
            <trkpt lon="101.460660" lat="14.568096">
                <ele>397.642456</ele>
                <time>2009-03-28T09:03:56Z</time>
            </trkpt>
            <trkpt lon="101.460705" lat="14.568112">
                <ele>397.642456</ele>
                <time>2009-03-28T09:04:08Z</time>
            </trkpt>
            <trkpt lon="101.460782" lat="14.568206">
                <ele>397.161743</ele>
                <time>2009-03-28T09:04:21Z</time>
            </trkpt>
            <trkpt lon="101.460872" lat="14.568347">
                <ele>397.642456</ele>
                <time>2009-03-28T09:04:36Z</time>
            </trkpt>
            <trkpt lon="101.460929" lat="14.568475">
                <ele>398.603760</ele>
                <time>2009-03-28T09:04:49Z</time>
            </trkpt>
            <trkpt lon="101.461021" lat="14.568591">
                <ele>398.603760</ele>
                <time>2009-03-28T09:05:02Z</time>
            </trkpt>
            <trkpt lon="101.461055" lat="14.568640">
                <ele>398.123169</ele>
                <time>2009-03-28T09:05:10Z</time>
            </trkpt>
            <trkpt lon="101.461131" lat="14.568740">
                <ele>398.123169</ele>
                <time>2009-03-28T09:05:19Z</time>
            </trkpt>
            <trkpt lon="101.461373" lat="14.568930">
                <ele>396.681152</ele>
                <time>2009-03-28T09:05:29Z</time>
            </trkpt>
            <trkpt lon="101.461673" lat="14.569126">
                <ele>396.200561</ele>
                <time>2009-03-28T09:05:41Z</time>
            </trkpt>
            <trkpt lon="101.461798" lat="14.569204">
                <ele>396.681152</ele>
                <time>2009-03-28T09:05:49Z</time>
            </trkpt>
            <trkpt lon="101.461923" lat="14.569296">
                <ele>395.719849</ele>
                <time>2009-03-28T09:05:56Z</time>
            </trkpt>
            <trkpt lon="101.462012" lat="14.569357">
                <ele>396.200561</ele>
                <time>2009-03-28T09:06:00Z</time>
            </trkpt>
            <trkpt lon="101.462039" lat="14.569361">
                <ele>396.200561</ele>
                <time>2009-03-28T09:06:05Z</time>
            </trkpt>
            <trkpt lon="101.462101" lat="14.569408">
                <ele>396.200561</ele>
                <time>2009-03-28T09:06:13Z</time>
            </trkpt>
            <trkpt lon="101.462133" lat="14.569458">
                <ele>395.719849</ele>
                <time>2009-03-28T09:06:19Z</time>
            </trkpt>
            <trkpt lon="101.462163" lat="14.569489">
                <ele>395.719849</ele>
                <time>2009-03-28T09:06:29Z</time>
            </trkpt>
            <trkpt lon="101.462207" lat="14.569529">
                <ele>395.239136</ele>
                <time>2009-03-28T09:06:37Z</time>
            </trkpt>
            <trkpt lon="101.462213" lat="14.569546">
                <ele>395.719849</ele>
                <time>2009-03-28T09:06:39Z</time>
            </trkpt>
            <trkpt lon="101.462218" lat="14.569581">
                <ele>394.277954</ele>
                <time>2009-03-28T09:06:48Z</time>
            </trkpt>
            <trkpt lon="101.462234" lat="14.569604">
                <ele>392.355347</ele>
                <time>2009-03-28T09:07:12Z</time>
            </trkpt>
            <trkpt lon="101.462243" lat="14.569615">
                <ele>391.874512</ele>
                <time>2009-03-28T09:07:28Z</time>
            </trkpt>
            <trkpt lon="101.462228" lat="14.569651">
                <ele>390.913208</ele>
                <time>2009-03-28T09:08:03Z</time>
            </trkpt>
            <trkpt lon="101.462236" lat="14.569663">
                <ele>390.432617</ele>
                <time>2009-03-28T09:08:12Z</time>
            </trkpt>
            <trkpt lon="101.462283" lat="14.569713">
                <ele>389.951904</ele>
                <time>2009-03-28T09:08:24Z</time>
            </trkpt>
            <trkpt lon="101.462259" lat="14.569926">
                <ele>389.951904</ele>
                <time>2009-03-28T09:08:32Z</time>
            </trkpt>
            <trkpt lon="101.462326" lat="14.570177">
                <ele>389.951904</ele>
                <time>2009-03-28T09:08:42Z</time>
            </trkpt>
            <trkpt lon="101.462364" lat="14.570237">
                <ele>389.471191</ele>
                <time>2009-03-28T09:08:48Z</time>
            </trkpt>
            <trkpt lon="101.462372" lat="14.570274">
                <ele>388.990601</ele>
                <time>2009-03-28T09:09:06Z</time>
            </trkpt>
            <trkpt lon="101.462412" lat="14.570332">
                <ele>388.990601</ele>
                <time>2009-03-28T09:09:17Z</time>
            </trkpt>
            <trkpt lon="101.462429" lat="14.570369">
                <ele>388.510010</ele>
                <time>2009-03-28T09:09:25Z</time>
            </trkpt>
            <trkpt lon="101.462456" lat="14.570396">
                <ele>388.990601</ele>
                <time>2009-03-28T09:09:34Z</time>
            </trkpt>
            <trkpt lon="101.462480" lat="14.570424">
                <ele>388.990601</ele>
                <time>2009-03-28T09:09:41Z</time>
            </trkpt>
            <trkpt lon="101.462522" lat="14.570475">
                <ele>388.990601</ele>
                <time>2009-03-28T09:09:54Z</time>
            </trkpt>
            <trkpt lon="101.462560" lat="14.570522">
                <ele>388.029297</ele>
                <time>2009-03-28T09:10:02Z</time>
            </trkpt>
            <trkpt lon="101.462616" lat="14.570581">
                <ele>388.029297</ele>
                <time>2009-03-28T09:10:14Z</time>
            </trkpt>
            <trkpt lon="101.462675" lat="14.570632">
                <ele>388.029297</ele>
                <time>2009-03-28T09:10:26Z</time>
            </trkpt>
            <trkpt lon="101.462725" lat="14.570666">
                <ele>388.510010</ele>
                <time>2009-03-28T09:10:32Z</time>
            </trkpt>
            <trkpt lon="101.462770" lat="14.570699">
                <ele>388.029297</ele>
                <time>2009-03-28T09:10:41Z</time>
            </trkpt>
            <trkpt lon="101.462790" lat="14.570708">
                <ele>384.664795</ele>
                <time>2009-03-28T09:11:34Z</time>
            </trkpt>
            <trkpt lon="101.462781" lat="14.570733">
                <ele>384.184082</ele>
                <time>2009-03-28T09:12:04Z</time>
            </trkpt>
            <trkpt lon="101.462730" lat="14.570787">
                <ele>383.703247</ele>
                <time>2009-03-28T09:12:09Z</time>
            </trkpt>
            <trkpt lon="101.462474" lat="14.570960">
                <ele>383.703247</ele>
                <time>2009-03-28T09:12:20Z</time>
            </trkpt>
            <trkpt lon="101.462228" lat="14.571056">
                <ele>383.703247</ele>
                <time>2009-03-28T09:12:28Z</time>
            </trkpt>
            <trkpt lon="101.461965" lat="14.571137">
                <ele>382.742065</ele>
                <time>2009-03-28T09:12:36Z</time>
            </trkpt>
            <trkpt lon="101.461878" lat="14.571106">
                <ele>383.222656</ele>
                <time>2009-03-28T09:12:41Z</time>
            </trkpt>
            <trkpt lon="101.461766" lat="14.571001">
                <ele>383.222656</ele>
                <time>2009-03-28T09:12:52Z</time>
            </trkpt>
            <trkpt lon="101.461764" lat="14.571002">
                <ele>382.742065</ele>
                <time>2009-03-28T09:12:59Z</time>
            </trkpt>
            <trkpt lon="101.461748" lat="14.570994">
                <ele>380.338745</ele>
                <time>2009-03-28T09:13:25Z</time>
            </trkpt>
            <trkpt lon="101.461739" lat="14.571008">
                <ele>376.493530</ele>
                <time>2009-03-28T09:13:48Z</time>
            </trkpt>
            <trkpt lon="101.461748" lat="14.571005">
                <ele>373.128906</ele>
                <time>2009-03-28T09:14:08Z</time>
            </trkpt>
            <trkpt lon="101.461746" lat="14.570981">
                <ele>370.725586</ele>
                <time>2009-03-28T09:14:17Z</time>
            </trkpt>
            <trkpt lon="101.461580" lat="14.570879">
                <ele>370.725586</ele>
                <time>2009-03-28T09:14:25Z</time>
            </trkpt>
            <trkpt lon="101.461407" lat="14.570673">
                <ele>371.686890</ele>
                <time>2009-03-28T09:14:35Z</time>
            </trkpt>
            <trkpt lon="101.461391" lat="14.570632">
                <ele>374.090088</ele>
                <time>2009-03-28T09:14:37Z</time>
            </trkpt>
            <trkpt lon="101.461378" lat="14.570576">
                <ele>375.051514</ele>
                <time>2009-03-28T09:14:44Z</time>
            </trkpt>
            <trkpt lon="101.461386" lat="14.570561">
                <ele>375.051514</ele>
                <time>2009-03-28T09:14:55Z</time>
            </trkpt>
            <trkpt lon="101.461396" lat="14.570556">
                <ele>370.244873</ele>
                <time>2009-03-28T09:15:05Z</time>
            </trkpt>
            <trkpt lon="101.461397" lat="14.570555">
                <ele>364.957642</ele>
                <time>2009-03-28T09:15:06Z</time>
            </trkpt>
            <trkpt lon="101.461397" lat="14.570555">
                <ele>352.460571</ele>
                <time>2009-03-28T09:15:07Z</time>
            </trkpt>
            <trkpt lon="101.461398" lat="14.570555">
                <ele>344.289429</ele>
                <time>2009-03-28T09:15:08Z</time>
            </trkpt>
            <trkpt lon="101.461398" lat="14.570555">
                <ele>352.941162</ele>
                <time>2009-03-28T09:15:09Z</time>
            </trkpt>
            <trkpt lon="101.461399" lat="14.570556">
                <ele>347.173218</ele>
                <time>2009-03-28T09:15:10Z</time>
            </trkpt>
            <trkpt lon="101.461399" lat="14.570557">
                <ele>351.018433</ele>
                <time>2009-03-28T09:15:11Z</time>
            </trkpt>
            <trkpt lon="101.461399" lat="14.570559">
                <ele>335.637329</ele>
                <time>2009-03-28T09:15:12Z</time>
            </trkpt>
            <trkpt lon="101.461399" lat="14.570560">
                <ele>320.737060</ele>
                <time>2009-03-28T09:15:13Z</time>
            </trkpt>
            <trkpt lon="101.461399" lat="14.570562">
                <ele>315.930420</ele>
                <time>2009-03-28T09:15:14Z</time>
            </trkpt>
            <trkpt lon="101.461399" lat="14.570563">
                <ele>317.372436</ele>
                <time>2009-03-28T09:15:15Z</time>
            </trkpt>
            <trkpt lon="101.461399" lat="14.570564">
                <ele>314.007812</ele>
                <time>2009-03-28T09:15:16Z</time>
            </trkpt>
            <trkpt lon="101.461399" lat="14.570565">
                <ele>318.333618</ele>
                <time>2009-03-28T09:15:17Z</time>
            </trkpt>
            <trkpt lon="101.461399" lat="14.570566">
                <ele>322.178955</ele>
                <time>2009-03-28T09:15:18Z</time>
            </trkpt>
            <trkpt lon="101.461399" lat="14.570567">
                <ele>325.543579</ele>
                <time>2009-03-28T09:15:19Z</time>
            </trkpt>
            <trkpt lon="101.461399" lat="14.570568">
                <ele>337.079468</ele>
                <time>2009-03-28T09:15:20Z</time>
            </trkpt>
            <trkpt lon="101.461399" lat="14.570569">
                <ele>326.504883</ele>
                <time>2009-03-28T09:15:21Z</time>
            </trkpt>
            <trkpt lon="101.461399" lat="14.570571">
                <ele>316.891724</ele>
                <time>2009-03-28T09:15:24Z</time>
            </trkpt>
            <trkpt lon="101.461399" lat="14.570572">
                <ele>323.140381</ele>
                <time>2009-03-28T09:15:25Z</time>
            </trkpt>
            <trkpt lon="101.461399" lat="14.570572">
                <ele>340.444092</ele>
                <time>2009-03-28T09:15:26Z</time>
            </trkpt>
            <trkpt lon="101.461399" lat="14.570573">
                <ele>328.427612</ele>
                <time>2009-03-28T09:15:27Z</time>
            </trkpt>
            <trkpt lon="101.461398" lat="14.570574">
                <ele>325.543579</ele>
                <time>2009-03-28T09:15:28Z</time>
            </trkpt>
            <trkpt lon="101.461398" lat="14.570574">
                <ele>329.869507</ele>
                <time>2009-03-28T09:15:29Z</time>
            </trkpt>
            <trkpt lon="101.461398" lat="14.570575">
                <ele>316.891724</ele>
                <time>2009-03-28T09:15:30Z</time>
            </trkpt>
            <trkpt lon="101.461398" lat="14.570575">
                <ele>312.085205</ele>
                <time>2009-03-28T09:15:31Z</time>
            </trkpt>
            <trkpt lon="101.461398" lat="14.570576">
                <ele>318.814331</ele>
                <time>2009-03-28T09:15:32Z</time>
            </trkpt>
            <trkpt lon="101.461398" lat="14.570576">
                <ele>326.024170</ele>
                <time>2009-03-28T09:15:33Z</time>
            </trkpt>
            <trkpt lon="101.461397" lat="14.570578">
                <ele>322.659668</ele>
                <time>2009-03-28T09:15:35Z</time>
            </trkpt>
            <trkpt lon="101.461397" lat="14.570578">
                <ele>326.985596</ele>
                <time>2009-03-28T09:15:36Z</time>
            </trkpt>
            <trkpt lon="101.461397" lat="14.570579">
                <ele>331.311523</ele>
                <time>2009-03-28T09:15:38Z</time>
            </trkpt>
            <trkpt lon="101.461396" lat="14.570579">
                <ele>363.035034</ele>
                <time>2009-03-28T09:15:39Z</time>
            </trkpt>
            <trkpt lon="101.461396" lat="14.570580">
                <ele>363.996338</ele>
                <time>2009-03-28T09:15:41Z</time>
            </trkpt>
            <trkpt lon="101.461369" lat="14.570566">
                <ele>363.035034</ele>
                <time>2009-03-28T09:16:13Z</time>
            </trkpt>
            <trkpt lon="101.461387" lat="14.570531">
                <ele>359.670410</ele>
                <time>2009-03-28T09:16:48Z</time>
            </trkpt>
            <trkpt lon="101.461349" lat="14.570487">
                <ele>356.305786</ele>
                <time>2009-03-28T09:17:25Z</time>
            </trkpt>
            <trkpt lon="101.461344" lat="14.570482">
                <ele>353.421875</ele>
                <time>2009-03-28T09:17:37Z</time>
            </trkpt>
            <trkpt lon="101.461343" lat="14.570481">
                <ele>332.272827</ele>
                <time>2009-03-28T09:17:40Z</time>
            </trkpt>
            <trkpt lon="101.461343" lat="14.570480">
                <ele>339.963379</ele>
                <time>2009-03-28T09:17:41Z</time>
            </trkpt>
            <trkpt lon="101.461340" lat="14.570478">
                <ele>345.731323</ele>
                <time>2009-03-28T09:17:47Z</time>
            </trkpt>
            <trkpt lon="101.461339" lat="14.570477">
                <ele>351.499145</ele>
                <time>2009-03-28T09:17:48Z</time>
            </trkpt>
            <trkpt lon="101.461339" lat="14.570477">
                <ele>350.057251</ele>
                <time>2009-03-28T09:17:49Z</time>
            </trkpt>
            <trkpt lon="101.461258" lat="14.570387">
                <ele>346.692627</ele>
                <time>2009-03-28T09:18:01Z</time>
            </trkpt>
            <trkpt lon="101.461193" lat="14.570281">
                <ele>346.692627</ele>
                <time>2009-03-28T09:18:14Z</time>
            </trkpt>
            <trkpt lon="101.461177" lat="14.570259">
                <ele>345.731323</ele>
                <time>2009-03-28T09:18:22Z</time>
            </trkpt>
            <trkpt lon="101.461116" lat="14.570189">
                <ele>343.327881</ele>
                <time>2009-03-28T09:18:31Z</time>
            </trkpt>
            <trkpt lon="101.460961" lat="14.570081">
                <ele>343.327881</ele>
                <time>2009-03-28T09:18:40Z</time>
            </trkpt>
            <trkpt lon="101.460853" lat="14.569933">
                <ele>342.366699</ele>
                <time>2009-03-28T09:18:48Z</time>
            </trkpt>
            <trkpt lon="101.460842" lat="14.569876">
                <ele>327.466186</ele>
                <time>2009-03-28T09:19:31Z</time>
            </trkpt>
            <trkpt lon="101.460842" lat="14.569876">
                <ele>327.466186</ele>
                <time>2009-03-28T09:19:32Z</time>
            </trkpt>
            <trkpt lon="101.460151" lat="14.568671">
                <ele>362.554321</ele>
                <time>2009-03-28T09:24:53Z</time>
            </trkpt>
            <trkpt lon="101.460151" lat="14.568672">
                <ele>395.719849</ele>
                <time>2009-03-28T09:24:54Z</time>
            </trkpt>
            <trkpt lon="101.460151" lat="14.568673">
                <ele>410.139648</ele>
                <time>2009-03-28T09:24:55Z</time>
            </trkpt>
            <trkpt lon="101.460125" lat="14.568670">
                <ele>410.139648</ele>
                <time>2009-03-28T09:25:25Z</time>
            </trkpt>
            <trkpt lon="101.460100" lat="14.568620">
                <ele>410.620239</ele>
                <time>2009-03-28T09:25:32Z</time>
            </trkpt>
            <trkpt lon="101.460079" lat="14.568552">
                <ele>411.100952</ele>
                <time>2009-03-28T09:25:45Z</time>
            </trkpt>
            <trkpt lon="101.460054" lat="14.568494">
                <ele>410.139648</ele>
                <time>2009-03-28T09:26:25Z</time>
            </trkpt>
            <trkpt lon="101.459900" lat="14.568411">
                <ele>409.659058</ele>
                <time>2009-03-28T09:26:37Z</time>
            </trkpt>
            <trkpt lon="101.459734" lat="14.568325">
                <ele>408.217041</ele>
                <time>2009-03-28T09:26:47Z</time>
            </trkpt>
            <trkpt lon="101.459606" lat="14.568204">
                <ele>406.294311</ele>
                <time>2009-03-28T09:26:55Z</time>
            </trkpt>
            <trkpt lon="101.459537" lat="14.568097">
                <ele>404.852295</ele>
                <time>2009-03-28T09:26:59Z</time>
            </trkpt>
            <trkpt lon="101.459405" lat="14.567930">
                <ele>402.929688</ele>
                <time>2009-03-28T09:27:08Z</time>
            </trkpt>
            <trkpt lon="101.459219" lat="14.567659">
                <ele>400.045898</ele>
                <time>2009-03-28T09:27:22Z</time>
            </trkpt>
            <trkpt lon="101.459109" lat="14.567479">
                <ele>398.603760</ele>
                <time>2009-03-28T09:27:31Z</time>
            </trkpt>
            <trkpt lon="101.459030" lat="14.567340">
                <ele>398.603760</ele>
                <time>2009-03-28T09:27:40Z</time>
            </trkpt>
            <trkpt lon="101.459028" lat="14.567336">
                <ele>398.603760</ele>
                <time>2009-03-28T09:27:50Z</time>
            </trkpt>
            <trkpt lon="101.458995" lat="14.567337">
                <ele>399.084351</ele>
                <time>2009-03-28T09:29:09Z</time>
            </trkpt>
            <trkpt lon="101.458995" lat="14.567330">
                <ele>399.565064</ele>
                <time>2009-03-28T09:29:18Z</time>
            </trkpt>
            <trkpt lon="101.458976" lat="14.567309">
                <ele>398.123169</ele>
                <time>2009-03-28T09:29:38Z</time>
            </trkpt>
            <trkpt lon="101.459001" lat="14.567321">
                <ele>399.565064</ele>
                <time>2009-03-28T09:30:07Z</time>
            </trkpt>
            <trkpt lon="101.458987" lat="14.567282">
                <ele>398.603760</ele>
                <time>2009-03-28T09:30:32Z</time>
            </trkpt>
            <trkpt lon="101.458978" lat="14.567276">
                <ele>399.084351</ele>
                <time>2009-03-28T09:30:34Z</time>
            </trkpt>
            <trkpt lon="101.458891" lat="14.567169">
                <ele>398.603760</ele>
                <time>2009-03-28T09:30:48Z</time>
            </trkpt>
            <trkpt lon="101.458824" lat="14.567118">
                <ele>397.642456</ele>
                <time>2009-03-28T09:30:56Z</time>
            </trkpt>
            <trkpt lon="101.458707" lat="14.567047">
                <ele>397.642456</ele>
                <time>2009-03-28T09:31:09Z</time>
            </trkpt>
            <trkpt lon="101.458649" lat="14.566904">
                <ele>398.123169</ele>
                <time>2009-03-28T09:31:21Z</time>
            </trkpt>
            <trkpt lon="101.458573" lat="14.566872">
                <ele>395.719849</ele>
                <time>2009-03-28T09:31:30Z</time>
            </trkpt>
            <trkpt lon="101.458457" lat="14.566841">
                <ele>395.719849</ele>
                <time>2009-03-28T09:31:42Z</time>
            </trkpt>
            <trkpt lon="101.458349" lat="14.566820">
                <ele>395.239136</ele>
                <time>2009-03-28T09:31:53Z</time>
            </trkpt>
            <trkpt lon="101.458217" lat="14.566778">
                <ele>395.239136</ele>
                <time>2009-03-28T09:32:07Z</time>
            </trkpt>
            <trkpt lon="101.458121" lat="14.566764">
                <ele>394.758545</ele>
                <time>2009-03-28T09:32:17Z</time>
            </trkpt>
            <trkpt lon="101.457970" lat="14.566774">
                <ele>393.797241</ele>
                <time>2009-03-28T09:32:32Z</time>
            </trkpt>
            <trkpt lon="101.457946" lat="14.566783">
                <ele>393.797241</ele>
                <time>2009-03-28T09:32:37Z</time>
            </trkpt>
            <trkpt lon="101.457825" lat="14.566810">
                <ele>392.835938</ele>
                <time>2009-03-28T09:32:49Z</time>
            </trkpt>
            <trkpt lon="101.457717" lat="14.566854">
                <ele>391.874512</ele>
                <time>2009-03-28T09:33:01Z</time>
            </trkpt>
            <trkpt lon="101.457607" lat="14.566918">
                <ele>390.913208</ele>
                <time>2009-03-28T09:33:14Z</time>
            </trkpt>
            <trkpt lon="101.457599" lat="14.566924">
                <ele>390.432617</ele>
                <time>2009-03-28T09:33:15Z</time>
            </trkpt>
            <trkpt lon="101.457556" lat="14.566962">
                <ele>390.913208</ele>
                <time>2009-03-28T09:33:26Z</time>
            </trkpt>
            <trkpt lon="101.457542" lat="14.566980">
                <ele>390.432617</ele>
                <time>2009-03-28T09:33:38Z</time>
            </trkpt>
            <trkpt lon="101.457449" lat="14.567046">
                <ele>389.471191</ele>
                <time>2009-03-28T09:33:50Z</time>
            </trkpt>
            <trkpt lon="101.457414" lat="14.567063">
                <ele>389.951904</ele>
                <time>2009-03-28T09:33:54Z</time>
            </trkpt>
            <trkpt lon="101.457273" lat="14.567109">
                <ele>389.471191</ele>
                <time>2009-03-28T09:34:10Z</time>
            </trkpt>
            <trkpt lon="101.457264" lat="14.567110">
                <ele>389.471191</ele>
                <time>2009-03-28T09:34:11Z</time>
            </trkpt>
            <trkpt lon="101.457187" lat="14.567073">
                <ele>388.510010</ele>
                <time>2009-03-28T09:34:22Z</time>
            </trkpt>
            <trkpt lon="101.457140" lat="14.566993">
                <ele>388.510010</ele>
                <time>2009-03-28T09:34:32Z</time>
            </trkpt>
            <trkpt lon="101.457095" lat="14.566895">
                <ele>388.510010</ele>
                <time>2009-03-28T09:34:44Z</time>
            </trkpt>
            <trkpt lon="101.457043" lat="14.566810">
                <ele>387.548584</ele>
                <time>2009-03-28T09:34:55Z</time>
            </trkpt>
            <trkpt lon="101.456992" lat="14.566709">
                <ele>386.587402</ele>
                <time>2009-03-28T09:35:09Z</time>
            </trkpt>
            <trkpt lon="101.456955" lat="14.566633">
                <ele>385.145386</ele>
                <time>2009-03-28T09:35:20Z</time>
            </trkpt>
            <trkpt lon="101.456917" lat="14.566548">
                <ele>387.067993</ele>
                <time>2009-03-28T09:35:31Z</time>
            </trkpt>
            <trkpt lon="101.456866" lat="14.566453">
                <ele>386.587402</ele>
                <time>2009-03-28T09:35:43Z</time>
            </trkpt>
            <trkpt lon="101.456821" lat="14.566358">
                <ele>387.067993</ele>
                <time>2009-03-28T09:35:56Z</time>
            </trkpt>
            <trkpt lon="101.456811" lat="14.566283">
                <ele>386.587402</ele>
                <time>2009-03-28T09:36:07Z</time>
            </trkpt>
            <trkpt lon="101.456771" lat="14.566215">
                <ele>385.625977</ele>
                <time>2009-03-28T09:36:16Z</time>
            </trkpt>
            <trkpt lon="101.456716" lat="14.566117">
                <ele>386.587402</ele>
                <time>2009-03-28T09:36:28Z</time>
            </trkpt>
            <trkpt lon="101.456661" lat="14.566005">
                <ele>386.587402</ele>
                <time>2009-03-28T09:36:42Z</time>
            </trkpt>
            <trkpt lon="101.456622" lat="14.565920">
                <ele>386.106690</ele>
                <time>2009-03-28T09:36:53Z</time>
            </trkpt>
            <trkpt lon="101.456562" lat="14.565843">
                <ele>386.106690</ele>
                <time>2009-03-28T09:37:05Z</time>
            </trkpt>
            <trkpt lon="101.456506" lat="14.565746">
                <ele>386.587402</ele>
                <time>2009-03-28T09:37:18Z</time>
            </trkpt>
            <trkpt lon="101.456460" lat="14.565669">
                <ele>388.029297</ele>
                <time>2009-03-28T09:37:30Z</time>
            </trkpt>
            <trkpt lon="101.456451" lat="14.565656">
                <ele>388.029297</ele>
                <time>2009-03-28T09:37:38Z</time>
            </trkpt>
            <trkpt lon="101.456451" lat="14.565656">
                <ele>387.548584</ele>
                <time>2009-03-28T09:37:39Z</time>
            </trkpt>
            <trkpt lon="101.456424" lat="14.565642">
                <ele>387.067993</ele>
                <time>2009-03-28T09:37:48Z</time>
            </trkpt>
            <trkpt lon="101.456424" lat="14.565648">
                <ele>388.029297</ele>
                <time>2009-03-28T09:37:54Z</time>
            </trkpt>
            <trkpt lon="101.456274" lat="14.565661">
                <ele>385.625977</ele>
                <time>2009-03-28T09:38:02Z</time>
            </trkpt>
            <trkpt lon="101.455917" lat="14.565732">
                <ele>387.067993</ele>
                <time>2009-03-28T09:38:15Z</time>
            </trkpt>
            <trkpt lon="101.455657" lat="14.565732">
                <ele>386.587402</ele>
                <time>2009-03-28T09:38:28Z</time>
            </trkpt>
            <trkpt lon="101.455303" lat="14.565778">
                <ele>387.548584</ele>
                <time>2009-03-28T09:38:40Z</time>
            </trkpt>
            <trkpt lon="101.455106" lat="14.565744">
                <ele>388.510010</ele>
                <time>2009-03-28T09:38:49Z</time>
            </trkpt>
            <trkpt lon="101.454884" lat="14.565707">
                <ele>389.471191</ele>
                <time>2009-03-28T09:38:59Z</time>
            </trkpt>
            <trkpt lon="101.454627" lat="14.565684">
                <ele>391.393799</ele>
                <time>2009-03-28T09:39:11Z</time>
            </trkpt>
            <trkpt lon="101.454416" lat="14.565667">
                <ele>392.355347</ele>
                <time>2009-03-28T09:39:22Z</time>
            </trkpt>
            <trkpt lon="101.454213" lat="14.565651">
                <ele>391.874512</ele>
                <time>2009-03-28T09:39:32Z</time>
            </trkpt>
            <trkpt lon="101.453910" lat="14.565628">
                <ele>389.471191</ele>
                <time>2009-03-28T09:39:44Z</time>
            </trkpt>
            <trkpt lon="101.453574" lat="14.565616">
                <ele>388.990601</ele>
                <time>2009-03-28T09:39:53Z</time>
            </trkpt>
            <trkpt lon="101.453090" lat="14.565596">
                <ele>388.029297</ele>
                <time>2009-03-28T09:40:05Z</time>
            </trkpt>
            <trkpt lon="101.452717" lat="14.565656">
                <ele>387.548584</ele>
                <time>2009-03-28T09:40:14Z</time>
            </trkpt>
            <trkpt lon="101.452334" lat="14.565834">
                <ele>385.625977</ele>
                <time>2009-03-28T09:40:23Z</time>
            </trkpt>
            <trkpt lon="101.452132" lat="14.565960">
                <ele>385.145386</ele>
                <time>2009-03-28T09:40:30Z</time>
            </trkpt>
            <trkpt lon="101.451867" lat="14.566218">
                <ele>382.261352</ele>
                <time>2009-03-28T09:40:39Z</time>
            </trkpt>
            <trkpt lon="101.451561" lat="14.566574">
                <ele>380.819458</ele>
                <time>2009-03-28T09:40:48Z</time>
            </trkpt>
            <trkpt lon="101.451306" lat="14.566680">
                <ele>378.416138</ele>
                <time>2009-03-28T09:40:53Z</time>
            </trkpt>
            <trkpt lon="101.451130" lat="14.566701">
                <ele>377.935425</ele>
                <time>2009-03-28T09:40:56Z</time>
            </trkpt>
            <trkpt lon="101.451008" lat="14.566700">
                <ele>376.974243</ele>
                <time>2009-03-28T09:40:58Z</time>
            </trkpt>
            <trkpt lon="101.450543" lat="14.566670">
                <ele>375.532105</ele>
                <time>2009-03-28T09:41:05Z</time>
            </trkpt>
            <trkpt lon="101.450420" lat="14.566699">
                <ele>375.532105</ele>
                <time>2009-03-28T09:41:07Z</time>
            </trkpt>
            <trkpt lon="101.449867" lat="14.566958">
                <ele>372.167481</ele>
                <time>2009-03-28T09:41:16Z</time>
            </trkpt>
            <trkpt lon="101.449742" lat="14.567013">
                <ele>371.686890</ele>
                <time>2009-03-28T09:41:18Z</time>
            </trkpt>
            <trkpt lon="101.449555" lat="14.567091">
                <ele>370.725586</ele>
                <time>2009-03-28T09:41:21Z</time>
            </trkpt>
            <trkpt lon="101.449408" lat="14.567254">
                <ele>371.206299</ele>
                <time>2009-03-28T09:41:26Z</time>
            </trkpt>
            <trkpt lon="101.449481" lat="14.567387">
                <ele>371.686890</ele>
                <time>2009-03-28T09:41:31Z</time>
            </trkpt>
            <trkpt lon="101.449771" lat="14.567654">
                <ele>372.167481</ele>
                <time>2009-03-28T09:41:44Z</time>
            </trkpt>
            <trkpt lon="101.449883" lat="14.567813">
                <ele>367.841553</ele>
                <time>2009-03-28T09:41:50Z</time>
            </trkpt>
            <trkpt lon="101.449900" lat="14.567841">
                <ele>372.648193</ele>
                <time>2009-03-28T09:41:51Z</time>
            </trkpt>
            <trkpt lon="101.449946" lat="14.567925">
                <ele>377.935425</ele>
                <time>2009-03-28T09:41:54Z</time>
            </trkpt>
            <trkpt lon="101.449962" lat="14.567953">
                <ele>372.167481</ele>
                <time>2009-03-28T09:41:55Z</time>
            </trkpt>
            <trkpt lon="101.450095" lat="14.568248">
                <ele>372.167481</ele>
                <time>2009-03-28T09:42:05Z</time>
            </trkpt>
            <trkpt lon="101.450234" lat="14.568632">
                <ele>371.686890</ele>
                <time>2009-03-28T09:42:15Z</time>
            </trkpt>
            <trkpt lon="101.450430" lat="14.569100">
                <ele>369.764282</ele>
                <time>2009-03-28T09:42:25Z</time>
            </trkpt>
            <trkpt lon="101.450497" lat="14.569273">
                <ele>367.360962</ele>
                <time>2009-03-28T09:42:28Z</time>
            </trkpt>
            <trkpt lon="101.450630" lat="14.569554">
                <ele>367.360962</ele>
                <time>2009-03-28T09:42:33Z</time>
            </trkpt>
            <trkpt lon="101.450811" lat="14.570200">
                <ele>367.841553</ele>
                <time>2009-03-28T09:42:45Z</time>
            </trkpt>
            <trkpt lon="101.450863" lat="14.570965">
                <ele>367.360962</ele>
                <time>2009-03-28T09:42:59Z</time>
            </trkpt>
            <trkpt lon="101.450899" lat="14.571302">
                <ele>366.399536</ele>
                <time>2009-03-28T09:43:05Z</time>
            </trkpt>
            <trkpt lon="101.450960" lat="14.571902">
                <ele>364.957642</ele>
                <time>2009-03-28T09:43:15Z</time>
            </trkpt>
            <trkpt lon="101.451076" lat="14.572585">
                <ele>363.996338</ele>
                <time>2009-03-28T09:43:26Z</time>
            </trkpt>
            <trkpt lon="101.451238" lat="14.573391">
                <ele>363.515747</ele>
                <time>2009-03-28T09:43:39Z</time>
            </trkpt>
            <trkpt lon="101.451451" lat="14.574092">
                <ele>363.035034</ele>
                <time>2009-03-28T09:43:50Z</time>
            </trkpt>
            <trkpt lon="101.451663" lat="14.574536">
                <ele>362.073731</ele>
                <time>2009-03-28T09:43:58Z</time>
            </trkpt>
            <trkpt lon="101.451967" lat="14.575230">
                <ele>360.151123</ele>
                <time>2009-03-28T09:44:10Z</time>
            </trkpt>
            <trkpt lon="101.452317" lat="14.575765">
                <ele>357.267090</ele>
                <time>2009-03-28T09:44:19Z</time>
            </trkpt>
            <trkpt lon="101.452684" lat="14.576141">
                <ele>356.305786</ele>
                <time>2009-03-28T09:44:26Z</time>
            </trkpt>
            <trkpt lon="101.452870" lat="14.576275">
                <ele>354.863769</ele>
                <time>2009-03-28T09:44:29Z</time>
            </trkpt>
            <trkpt lon="101.453427" lat="14.576854">
                <ele>354.383179</ele>
                <time>2009-03-28T09:44:40Z</time>
            </trkpt>
            <trkpt lon="101.453846" lat="14.577354">
                <ele>355.825195</ele>
                <time>2009-03-28T09:44:50Z</time>
            </trkpt>
            <trkpt lon="101.453953" lat="14.577496">
                <ele>355.344482</ele>
                <time>2009-03-28T09:44:53Z</time>
            </trkpt>
            <trkpt lon="101.454073" lat="14.578008">
                <ele>354.863769</ele>
                <time>2009-03-28T09:45:02Z</time>
            </trkpt>
            <trkpt lon="101.454103" lat="14.578295">
                <ele>353.902588</ele>
                <time>2009-03-28T09:45:07Z</time>
            </trkpt>
            <trkpt lon="101.454110" lat="14.578353">
                <ele>357.747803</ele>
                <time>2009-03-28T09:45:08Z</time>
            </trkpt>
            <trkpt lon="101.454117" lat="14.578411">
                <ele>354.863769</ele>
                <time>2009-03-28T09:45:09Z</time>
            </trkpt>
            <trkpt lon="101.454162" lat="14.578689">
                <ele>354.383179</ele>
                <time>2009-03-28T09:45:14Z</time>
            </trkpt>
            <trkpt lon="101.454205" lat="14.578843">
                <ele>354.383179</ele>
                <time>2009-03-28T09:45:17Z</time>
            </trkpt>
            <trkpt lon="101.454247" lat="14.579149">
                <ele>354.383179</ele>
                <time>2009-03-28T09:45:23Z</time>
            </trkpt>
            <trkpt lon="101.454367" lat="14.579726">
                <ele>354.383179</ele>
                <time>2009-03-28T09:45:35Z</time>
            </trkpt>
            <trkpt lon="101.454477" lat="14.580080">
                <ele>354.383179</ele>
                <time>2009-03-28T09:45:43Z</time>
            </trkpt>
            <trkpt lon="101.454625" lat="14.580467">
                <ele>353.421875</ele>
                <time>2009-03-28T09:45:51Z</time>
            </trkpt>
            <trkpt lon="101.454892" lat="14.581104">
                <ele>353.421875</ele>
                <time>2009-03-28T09:46:04Z</time>
            </trkpt>
            <trkpt lon="101.455079" lat="14.581581">
                <ele>352.941162</ele>
                <time>2009-03-28T09:46:14Z</time>
            </trkpt>
            <trkpt lon="101.455097" lat="14.581699">
                <ele>352.460571</ele>
                <time>2009-03-28T09:46:16Z</time>
            </trkpt>
            <trkpt lon="101.455026" lat="14.582197">
                <ele>350.537842</ele>
                <time>2009-03-28T09:46:24Z</time>
            </trkpt>
            <trkpt lon="101.454855" lat="14.582530">
                <ele>350.057251</ele>
                <time>2009-03-28T09:46:30Z</time>
            </trkpt>
            <trkpt lon="101.454736" lat="14.583054">
                <ele>350.057251</ele>
                <time>2009-03-28T09:46:39Z</time>
            </trkpt>
            <trkpt lon="101.454623" lat="14.583824">
                <ele>348.134644</ele>
                <time>2009-03-28T09:46:51Z</time>
            </trkpt>
            <trkpt lon="101.454616" lat="14.583891">
                <ele>347.653931</ele>
                <time>2009-03-28T09:46:52Z</time>
            </trkpt>
            <trkpt lon="101.454463" lat="14.584796">
                <ele>347.173218</ele>
                <time>2009-03-28T09:47:06Z</time>
            </trkpt>
            <trkpt lon="101.454363" lat="14.585506">
                <ele>347.173218</ele>
                <time>2009-03-28T09:47:18Z</time>
            </trkpt>
            <trkpt lon="101.454257" lat="14.586285">
                <ele>347.173218</ele>
                <time>2009-03-28T09:47:32Z</time>
            </trkpt>
            <trkpt lon="101.454169" lat="14.586973">
                <ele>345.731323</ele>
                <time>2009-03-28T09:47:45Z</time>
            </trkpt>
            <trkpt lon="101.454070" lat="14.587800">
                <ele>344.770019</ele>
                <time>2009-03-28T09:48:00Z</time>
            </trkpt>
            <trkpt lon="101.454004" lat="14.588360">
                <ele>344.289429</ele>
                <time>2009-03-28T09:48:11Z</time>
            </trkpt>
            <trkpt lon="101.453982" lat="14.588611">
                <ele>344.289429</ele>
                <time>2009-03-28T09:48:17Z</time>
            </trkpt>
            <trkpt lon="101.454037" lat="14.588655">
                <ele>344.770019</ele>
                <time>2009-03-28T09:48:21Z</time>
            </trkpt>
            <trkpt lon="101.454064" lat="14.588635">
                <ele>344.289429</ele>
                <time>2009-03-28T09:48:28Z</time>
            </trkpt>
            <trkpt lon="101.454062" lat="14.588635">
                <ele>343.327881</ele>
                <time>2009-03-28T09:48:44Z</time>
            </trkpt>
            <trkpt lon="101.454074" lat="14.588653">
                <ele>343.327881</ele>
                <time>2009-03-28T09:48:49Z</time>
            </trkpt>
            <trkpt lon="101.454224" lat="14.588738">
                <ele>343.327881</ele>
                <time>2009-03-28T09:48:57Z</time>
            </trkpt>
            <trkpt lon="101.454619" lat="14.588890">
                <ele>343.327881</ele>
                <time>2009-03-28T09:49:07Z</time>
            </trkpt>
            <trkpt lon="101.455232" lat="14.589137">
                <ele>343.327881</ele>
                <time>2009-03-28T09:49:20Z</time>
            </trkpt>
            <trkpt lon="101.455838" lat="14.589349">
                <ele>343.808594</ele>
                <time>2009-03-28T09:49:32Z</time>
            </trkpt>
            <trkpt lon="101.455887" lat="14.589369">
                <ele>343.808594</ele>
                <time>2009-03-28T09:49:33Z</time>
            </trkpt>
            <trkpt lon="101.456032" lat="14.589407">
                <ele>344.289429</ele>
                <time>2009-03-28T09:49:36Z</time>
            </trkpt>
            <trkpt lon="101.456515" lat="14.589611">
                <ele>344.770019</ele>
                <time>2009-03-28T09:49:47Z</time>
            </trkpt>
            <trkpt lon="101.456998" lat="14.589799">
                <ele>344.770019</ele>
                <time>2009-03-28T09:49:59Z</time>
            </trkpt>
            <trkpt lon="101.457410" lat="14.589963">
                <ele>345.731323</ele>
                <time>2009-03-28T09:50:11Z</time>
            </trkpt>
            <trkpt lon="101.457662" lat="14.590056">
                <ele>345.731323</ele>
                <time>2009-03-28T09:50:20Z</time>
            </trkpt>
            <trkpt lon="101.457949" lat="14.590196">
                <ele>343.808594</ele>
                <time>2009-03-28T09:50:29Z</time>
            </trkpt>
            <trkpt lon="101.458318" lat="14.590307">
                <ele>343.808594</ele>
                <time>2009-03-28T09:50:39Z</time>
            </trkpt>
            <trkpt lon="101.458713" lat="14.590479">
                <ele>345.250610</ele>
                <time>2009-03-28T09:50:50Z</time>
            </trkpt>
            <trkpt lon="101.459103" lat="14.590608">
                <ele>343.808594</ele>
                <time>2009-03-28T09:51:00Z</time>
            </trkpt>
            <trkpt lon="101.459582" lat="14.590808">
                <ele>343.808594</ele>
                <time>2009-03-28T09:51:12Z</time>
            </trkpt>
            <trkpt lon="101.459896" lat="14.590919">
                <ele>346.212036</ele>
                <time>2009-03-28T09:51:21Z</time>
            </trkpt>
            <trkpt lon="101.460312" lat="14.591076">
                <ele>346.692627</ele>
                <time>2009-03-28T09:51:34Z</time>
            </trkpt>
            <trkpt lon="101.460609" lat="14.591177">
                <ele>346.692627</ele>
                <time>2009-03-28T09:51:44Z</time>
            </trkpt>
            <trkpt lon="101.460903" lat="14.591307">
                <ele>344.770019</ele>
                <time>2009-03-28T09:51:53Z</time>
            </trkpt>
            <trkpt lon="101.461323" lat="14.591474">
                <ele>343.808594</ele>
                <time>2009-03-28T09:52:03Z</time>
            </trkpt>
            <trkpt lon="101.461877" lat="14.591668">
                <ele>342.847290</ele>
                <time>2009-03-28T09:52:15Z</time>
            </trkpt>
            <trkpt lon="101.461963" lat="14.591710">
                <ele>342.847290</ele>
                <time>2009-03-28T09:52:17Z</time>
            </trkpt>
            <trkpt lon="101.462454" lat="14.591888">
                <ele>343.327881</ele>
                <time>2009-03-28T09:52:29Z</time>
            </trkpt>
            <trkpt lon="101.462921" lat="14.592065">
                <ele>344.289429</ele>
                <time>2009-03-28T09:52:41Z</time>
            </trkpt>
            <trkpt lon="101.463321" lat="14.592215">
                <ele>344.770019</ele>
                <time>2009-03-28T09:52:52Z</time>
            </trkpt>
            <trkpt lon="101.463599" lat="14.592323">
                <ele>344.289429</ele>
                <time>2009-03-28T09:53:01Z</time>
            </trkpt>
            <trkpt lon="101.463955" lat="14.592456">
                <ele>346.212036</ele>
                <time>2009-03-28T09:53:14Z</time>
            </trkpt>
            <trkpt lon="101.464150" lat="14.592521">
                <ele>346.692627</ele>
                <time>2009-03-28T09:53:22Z</time>
            </trkpt>
            <trkpt lon="101.464496" lat="14.592662">
                <ele>345.250610</ele>
                <time>2009-03-28T09:53:32Z</time>
            </trkpt>
            <trkpt lon="101.465001" lat="14.592840">
                <ele>344.770019</ele>
                <time>2009-03-28T09:53:43Z</time>
            </trkpt>
            <trkpt lon="101.465663" lat="14.593095">
                <ele>342.847290</ele>
                <time>2009-03-28T09:53:55Z</time>
            </trkpt>
            <trkpt lon="101.466208" lat="14.593311">
                <ele>342.366699</ele>
                <time>2009-03-28T09:54:05Z</time>
            </trkpt>
            <trkpt lon="101.466872" lat="14.593576">
                <ele>342.847290</ele>
                <time>2009-03-28T09:54:18Z</time>
            </trkpt>
            <trkpt lon="101.467377" lat="14.593763">
                <ele>343.327881</ele>
                <time>2009-03-28T09:54:29Z</time>
            </trkpt>
            <trkpt lon="101.467581" lat="14.593829">
                <ele>343.808594</ele>
                <time>2009-03-28T09:54:34Z</time>
            </trkpt>
            <trkpt lon="101.467956" lat="14.593963">
                <ele>345.250610</ele>
                <time>2009-03-28T09:54:45Z</time>
            </trkpt>
            <trkpt lon="101.468255" lat="14.594078">
                <ele>344.770019</ele>
                <time>2009-03-28T09:54:55Z</time>
            </trkpt>
            <trkpt lon="101.468538" lat="14.594183">
                <ele>346.692627</ele>
                <time>2009-03-28T09:55:06Z</time>
            </trkpt>
            <trkpt lon="101.468761" lat="14.594285">
                <ele>346.212036</ele>
                <time>2009-03-28T09:55:14Z</time>
            </trkpt>
            <trkpt lon="101.469140" lat="14.594436">
                <ele>344.289429</ele>
                <time>2009-03-28T09:55:23Z</time>
            </trkpt>
            <trkpt lon="101.469515" lat="14.594584">
                <ele>343.327881</ele>
                <time>2009-03-28T09:55:31Z</time>
            </trkpt>
            <trkpt lon="101.469846" lat="14.594688">
                <ele>342.366699</ele>
                <time>2009-03-28T09:55:39Z</time>
            </trkpt>
            <trkpt lon="101.470271" lat="14.594756">
                <ele>341.885986</ele>
                <time>2009-03-28T09:55:50Z</time>
            </trkpt>
            <trkpt lon="101.470802" lat="14.594759">
                <ele>339.963379</ele>
                <time>2009-03-28T09:56:01Z</time>
            </trkpt>
            <trkpt lon="101.471397" lat="14.594740">
                <ele>339.482666</ele>
                <time>2009-03-28T09:56:13Z</time>
            </trkpt>
            <trkpt lon="101.471868" lat="14.594710">
                <ele>340.444092</ele>
                <time>2009-03-28T09:56:24Z</time>
            </trkpt>
            <trkpt lon="101.472356" lat="14.594673">
                <ele>339.963379</ele>
                <time>2009-03-28T09:56:36Z</time>
            </trkpt>
            <trkpt lon="101.472606" lat="14.594591">
                <ele>339.963379</ele>
                <time>2009-03-28T09:56:42Z</time>
            </trkpt>
            <trkpt lon="101.473219" lat="14.594384">
                <ele>341.405273</ele>
                <time>2009-03-28T09:56:58Z</time>
            </trkpt>
            <trkpt lon="101.473655" lat="14.594264">
                <ele>342.366699</ele>
                <time>2009-03-28T09:57:10Z</time>
            </trkpt>
            <trkpt lon="101.474104" lat="14.594139">
                <ele>342.847290</ele>
                <time>2009-03-28T09:57:23Z</time>
            </trkpt>
            <trkpt lon="101.474234" lat="14.594119">
                <ele>342.847290</ele>
                <time>2009-03-28T09:57:27Z</time>
            </trkpt>
            <trkpt lon="101.474299" lat="14.594247">
                <ele>342.847290</ele>
                <time>2009-03-28T09:57:32Z</time>
            </trkpt>
            <trkpt lon="101.474298" lat="14.594279">
                <ele>342.847290</ele>
                <time>2009-03-28T09:57:33Z</time>
            </trkpt>
            <trkpt lon="101.474257" lat="14.594660">
                <ele>342.847290</ele>
                <time>2009-03-28T09:57:44Z</time>
            </trkpt>
            <trkpt lon="101.474219" lat="14.595013">
                <ele>342.847290</ele>
                <time>2009-03-28T09:57:53Z</time>
            </trkpt>
            <trkpt lon="101.474162" lat="14.595520">
                <ele>339.963379</ele>
                <time>2009-03-28T09:58:03Z</time>
            </trkpt>
            <trkpt lon="101.474097" lat="14.596127">
                <ele>339.482666</ele>
                <time>2009-03-28T09:58:14Z</time>
            </trkpt>
            <trkpt lon="101.474093" lat="14.596236">
                <ele>339.002075</ele>
                <time>2009-03-28T09:58:16Z</time>
            </trkpt>
            <trkpt lon="101.473957" lat="14.596443">
                <ele>339.002075</ele>
                <time>2009-03-28T09:58:21Z</time>
            </trkpt>
            <trkpt lon="101.473804" lat="14.596467">
                <ele>339.002075</ele>
                <time>2009-03-28T09:58:24Z</time>
            </trkpt>
            <trkpt lon="101.473064" lat="14.596493">
                <ele>339.963379</ele>
                <time>2009-03-28T09:58:39Z</time>
            </trkpt>
            <trkpt lon="101.472549" lat="14.596572">
                <ele>339.482666</ele>
                <time>2009-03-28T09:58:52Z</time>
            </trkpt>
            <trkpt lon="101.472036" lat="14.596659">
                <ele>339.963379</ele>
                <time>2009-03-28T09:59:04Z</time>
            </trkpt>
            <trkpt lon="101.471519" lat="14.596753">
                <ele>341.885986</ele>
                <time>2009-03-28T09:59:17Z</time>
            </trkpt>
            <trkpt lon="101.471259" lat="14.596903">
                <ele>341.885986</ele>
                <time>2009-03-28T09:59:25Z</time>
            </trkpt>
            <trkpt lon="101.470963" lat="14.597188">
                <ele>341.405273</ele>
                <time>2009-03-28T09:59:36Z</time>
            </trkpt>
            <trkpt lon="101.470540" lat="14.597641">
                <ele>342.847290</ele>
                <time>2009-03-28T09:59:52Z</time>
            </trkpt>
            <trkpt lon="101.470316" lat="14.598031">
                <ele>344.770019</ele>
                <time>2009-03-28T10:00:04Z</time>
            </trkpt>
            <trkpt lon="101.470031" lat="14.598451">
                <ele>345.250610</ele>
                <time>2009-03-28T10:00:18Z</time>
            </trkpt>
            <trkpt lon="101.469891" lat="14.598770">
                <ele>345.250610</ele>
                <time>2009-03-28T10:00:28Z</time>
            </trkpt>
            <trkpt lon="101.469708" lat="14.599126">
                <ele>344.770019</ele>
                <time>2009-03-28T10:00:39Z</time>
            </trkpt>
            <trkpt lon="101.469609" lat="14.599441">
                <ele>344.770019</ele>
                <time>2009-03-28T10:00:49Z</time>
            </trkpt>
            <trkpt lon="101.469439" lat="14.599904">
                <ele>344.289429</ele>
                <time>2009-03-28T10:01:02Z</time>
            </trkpt>
            <trkpt lon="101.469335" lat="14.600121">
                <ele>344.289429</ele>
                <time>2009-03-28T10:01:08Z</time>
            </trkpt>
            <trkpt lon="101.469227" lat="14.600553">
                <ele>343.808594</ele>
                <time>2009-03-28T10:01:20Z</time>
            </trkpt>
            <trkpt lon="101.469157" lat="14.600834">
                <ele>343.327881</ele>
                <time>2009-03-28T10:01:30Z</time>
            </trkpt>
            <trkpt lon="101.469038" lat="14.601286">
                <ele>343.327881</ele>
                <time>2009-03-28T10:01:42Z</time>
            </trkpt>
            <trkpt lon="101.468830" lat="14.601693">
                <ele>342.847290</ele>
                <time>2009-03-28T10:01:53Z</time>
            </trkpt>
            <trkpt lon="101.468563" lat="14.602111">
                <ele>343.327881</ele>
                <time>2009-03-28T10:02:05Z</time>
            </trkpt>
            <trkpt lon="101.468329" lat="14.602605">
                <ele>343.808594</ele>
                <time>2009-03-28T10:02:18Z</time>
            </trkpt>
            <trkpt lon="101.468325" lat="14.602820">
                <ele>343.808594</ele>
                <time>2009-03-28T10:02:24Z</time>
            </trkpt>
            <trkpt lon="101.468502" lat="14.602965">
                <ele>343.808594</ele>
                <time>2009-03-28T10:02:30Z</time>
            </trkpt>
            <trkpt lon="101.468954" lat="14.603251">
                <ele>342.847290</ele>
                <time>2009-03-28T10:02:42Z</time>
            </trkpt>
            <trkpt lon="101.469588" lat="14.603677">
                <ele>340.924683</ele>
                <time>2009-03-28T10:02:57Z</time>
            </trkpt>
            <trkpt lon="101.470100" lat="14.604021">
                <ele>339.963379</ele>
                <time>2009-03-28T10:03:07Z</time>
            </trkpt>
            <trkpt lon="101.470687" lat="14.604423">
                <ele>339.002075</ele>
                <time>2009-03-28T10:03:19Z</time>
            </trkpt>
            <trkpt lon="101.471284" lat="14.604834">
                <ele>338.521484</ele>
                <time>2009-03-28T10:03:31Z</time>
            </trkpt>
            <trkpt lon="101.472200" lat="14.605457">
                <ele>336.598877</ele>
                <time>2009-03-28T10:03:48Z</time>
            </trkpt>
            <trkpt lon="101.472486" lat="14.605645">
                <ele>336.118164</ele>
                <time>2009-03-28T10:03:54Z</time>
            </trkpt>
            <trkpt lon="101.472762" lat="14.605930">
                <ele>336.118164</ele>
                <time>2009-03-28T10:04:02Z</time>
            </trkpt>
            <trkpt lon="101.473171" lat="14.606466">
                <ele>335.156738</ele>
                <time>2009-03-28T10:04:16Z</time>
            </trkpt>
            <trkpt lon="101.473594" lat="14.606976">
                <ele>334.676148</ele>
                <time>2009-03-28T10:04:31Z</time>
            </trkpt>
            <trkpt lon="101.474024" lat="14.607469">
                <ele>335.156738</ele>
                <time>2009-03-28T10:04:45Z</time>
            </trkpt>
            <trkpt lon="101.474416" lat="14.607936">
                <ele>337.079468</ele>
                <time>2009-03-28T10:04:58Z</time>
            </trkpt>
            <trkpt lon="101.474770" lat="14.608358">
                <ele>337.560059</ele>
                <time>2009-03-28T10:05:10Z</time>
            </trkpt>
            <trkpt lon="101.475100" lat="14.608715">
                <ele>338.040772</ele>
                <time>2009-03-28T10:05:22Z</time>
            </trkpt>
            <trkpt lon="101.475472" lat="14.609058">
                <ele>339.002075</ele>
                <time>2009-03-28T10:05:34Z</time>
            </trkpt>
            <trkpt lon="101.475900" lat="14.609401">
                <ele>339.002075</ele>
                <time>2009-03-28T10:05:47Z</time>
            </trkpt>
            <trkpt lon="101.476258" lat="14.609660">
                <ele>339.963379</ele>
                <time>2009-03-28T10:05:58Z</time>
            </trkpt>
            <trkpt lon="101.476716" lat="14.609997">
                <ele>339.963379</ele>
                <time>2009-03-28T10:06:12Z</time>
            </trkpt>
            <trkpt lon="101.477219" lat="14.610352">
                <ele>339.482666</ele>
                <time>2009-03-28T10:06:26Z</time>
            </trkpt>
            <trkpt lon="101.477673" lat="14.610677">
                <ele>340.924683</ele>
                <time>2009-03-28T10:06:38Z</time>
            </trkpt>
            <trkpt lon="101.478122" lat="14.610963">
                <ele>340.444092</ele>
                <time>2009-03-28T10:06:50Z</time>
            </trkpt>
            <trkpt lon="101.478335" lat="14.611012">
                <ele>339.963379</ele>
                <time>2009-03-28T10:06:55Z</time>
            </trkpt>
            <trkpt lon="101.478799" lat="14.610925">
                <ele>339.963379</ele>
                <time>2009-03-28T10:07:06Z</time>
            </trkpt>
            <trkpt lon="101.479471" lat="14.610759">
                <ele>341.405273</ele>
                <time>2009-03-28T10:07:22Z</time>
            </trkpt>
            <trkpt lon="101.480097" lat="14.610611">
                <ele>340.444092</ele>
                <time>2009-03-28T10:07:37Z</time>
            </trkpt>
            <trkpt lon="101.480674" lat="14.610475">
                <ele>339.482666</ele>
                <time>2009-03-28T10:07:51Z</time>
            </trkpt>
            <trkpt lon="101.481004" lat="14.610356">
                <ele>340.924683</ele>
                <time>2009-03-28T10:08:00Z</time>
            </trkpt>
            <trkpt lon="101.481344" lat="14.610257">
                <ele>340.924683</ele>
                <time>2009-03-28T10:08:09Z</time>
            </trkpt>
            <trkpt lon="101.481645" lat="14.610165">
                <ele>341.885986</ele>
                <time>2009-03-28T10:08:18Z</time>
            </trkpt>
            <trkpt lon="101.481685" lat="14.610127">
                <ele>341.405273</ele>
                <time>2009-03-28T10:08:20Z</time>
            </trkpt>
            <trkpt lon="101.481675" lat="14.609882">
                <ele>340.444092</ele>
                <time>2009-03-28T10:08:27Z</time>
            </trkpt>
            <trkpt lon="101.481584" lat="14.609496">
                <ele>339.963379</ele>
                <time>2009-03-28T10:08:36Z</time>
            </trkpt>
            <trkpt lon="101.481430" lat="14.608908">
                <ele>339.482666</ele>
                <time>2009-03-28T10:08:49Z</time>
            </trkpt>
            <trkpt lon="101.481283" lat="14.608315">
                <ele>339.482666</ele>
                <time>2009-03-28T10:09:02Z</time>
            </trkpt>
            <trkpt lon="101.481146" lat="14.607773">
                <ele>339.482666</ele>
                <time>2009-03-28T10:09:14Z</time>
            </trkpt>
            <trkpt lon="101.480985" lat="14.607154">
                <ele>339.002075</ele>
                <time>2009-03-28T10:09:28Z</time>
            </trkpt>
            <trkpt lon="101.480829" lat="14.606524">
                <ele>339.482666</ele>
                <time>2009-03-28T10:09:42Z</time>
            </trkpt>
            <trkpt lon="101.480667" lat="14.605891">
                <ele>339.002075</ele>
                <time>2009-03-28T10:09:56Z</time>
            </trkpt>
            <trkpt lon="101.480492" lat="14.605225">
                <ele>339.482666</ele>
                <time>2009-03-28T10:10:11Z</time>
            </trkpt>
            <trkpt lon="101.480345" lat="14.604648">
                <ele>339.482666</ele>
                <time>2009-03-28T10:10:24Z</time>
            </trkpt>
            <trkpt lon="101.480200" lat="14.604110">
                <ele>339.482666</ele>
                <time>2009-03-28T10:10:37Z</time>
            </trkpt>
            <trkpt lon="101.480129" lat="14.603798">
                <ele>340.444092</ele>
                <time>2009-03-28T10:10:45Z</time>
            </trkpt>
            <trkpt lon="101.480236" lat="14.603710">
                <ele>339.963379</ele>
                <time>2009-03-28T10:10:49Z</time>
            </trkpt>
            <trkpt lon="101.480521" lat="14.603644">
                <ele>340.444092</ele>
                <time>2009-03-28T10:10:58Z</time>
            </trkpt>
            <trkpt lon="101.480929" lat="14.603542">
                <ele>340.924683</ele>
                <time>2009-03-28T10:11:10Z</time>
            </trkpt>
            <trkpt lon="101.481312" lat="14.603437">
                <ele>340.924683</ele>
                <time>2009-03-28T10:11:22Z</time>
            </trkpt>
            <trkpt lon="101.481585" lat="14.603374">
                <ele>341.405273</ele>
                <time>2009-03-28T10:11:30Z</time>
            </trkpt>
            <trkpt lon="101.482067" lat="14.603230">
                <ele>342.366699</ele>
                <time>2009-03-28T10:11:44Z</time>
            </trkpt>
            <trkpt lon="101.482458" lat="14.603135">
                <ele>342.847290</ele>
                <time>2009-03-28T10:11:55Z</time>
            </trkpt>
            <trkpt lon="101.482859" lat="14.603048">
                <ele>344.289429</ele>
                <time>2009-03-28T10:12:07Z</time>
            </trkpt>
            <trkpt lon="101.483289" lat="14.602941">
                <ele>345.250610</ele>
                <time>2009-03-28T10:12:20Z</time>
            </trkpt>
            <trkpt lon="101.483684" lat="14.602837">
                <ele>345.250610</ele>
                <time>2009-03-28T10:12:31Z</time>
            </trkpt>
            <trkpt lon="101.484261" lat="14.602692">
                <ele>345.250610</ele>
                <time>2009-03-28T10:12:45Z</time>
            </trkpt>
            <trkpt lon="101.484778" lat="14.602565">
                <ele>345.731323</ele>
                <time>2009-03-28T10:12:58Z</time>
            </trkpt>
            <trkpt lon="101.485101" lat="14.602489">
                <ele>347.173218</ele>
                <time>2009-03-28T10:13:08Z</time>
            </trkpt>
            <trkpt lon="101.485478" lat="14.602393">
                <ele>348.615234</ele>
                <time>2009-03-28T10:13:21Z</time>
            </trkpt>
            <trkpt lon="101.485813" lat="14.602319">
                <ele>349.576538</ele>
                <time>2009-03-28T10:13:32Z</time>
            </trkpt>
            <trkpt lon="101.486241" lat="14.602221">
                <ele>350.537842</ele>
                <time>2009-03-28T10:13:46Z</time>
            </trkpt>
            <trkpt lon="101.486660" lat="14.602110">
                <ele>351.018433</ele>
                <time>2009-03-28T10:14:00Z</time>
            </trkpt>
            <trkpt lon="101.486911" lat="14.602042">
                <ele>351.018433</ele>
                <time>2009-03-28T10:14:08Z</time>
            </trkpt>
            <trkpt lon="101.487264" lat="14.601945">
                <ele>352.941162</ele>
                <time>2009-03-28T10:14:20Z</time>
            </trkpt>
            <trkpt lon="101.487588" lat="14.601871">
                <ele>352.941162</ele>
                <time>2009-03-28T10:14:31Z</time>
            </trkpt>
            <trkpt lon="101.487866" lat="14.601804">
                <ele>353.902588</ele>
                <time>2009-03-28T10:14:41Z</time>
            </trkpt>
            <trkpt lon="101.488254" lat="14.601721">
                <ele>355.344482</ele>
                <time>2009-03-28T10:14:55Z</time>
            </trkpt>
            <trkpt lon="101.488593" lat="14.601637">
                <ele>355.344482</ele>
                <time>2009-03-28T10:15:08Z</time>
            </trkpt>
            <trkpt lon="101.488872" lat="14.601571">
                <ele>356.305786</ele>
                <time>2009-03-28T10:15:19Z</time>
            </trkpt>
            <trkpt lon="101.489270" lat="14.601484">
                <ele>357.267090</ele>
                <time>2009-03-28T10:15:34Z</time>
            </trkpt>
            <trkpt lon="101.489706" lat="14.601378">
                <ele>357.747803</ele>
                <time>2009-03-28T10:15:50Z</time>
            </trkpt>
            <trkpt lon="101.489971" lat="14.601322">
                <ele>358.228394</ele>
                <time>2009-03-28T10:16:00Z</time>
            </trkpt>
            <trkpt lon="101.490314" lat="14.601236">
                <ele>359.670410</ele>
                <time>2009-03-28T10:16:13Z</time>
            </trkpt>
            <trkpt lon="101.490576" lat="14.601169">
                <ele>359.670410</ele>
                <time>2009-03-28T10:16:23Z</time>
            </trkpt>
            <trkpt lon="101.490826" lat="14.601112">
                <ele>360.631714</ele>
                <time>2009-03-28T10:16:33Z</time>
            </trkpt>
            <trkpt lon="101.491164" lat="14.601027">
                <ele>361.593140</ele>
                <time>2009-03-28T10:16:47Z</time>
            </trkpt>
            <trkpt lon="101.491395" lat="14.600953">
                <ele>362.554321</ele>
                <time>2009-03-28T10:16:57Z</time>
            </trkpt>
            <trkpt lon="101.491683" lat="14.600887">
                <ele>363.515747</ele>
                <time>2009-03-28T10:17:09Z</time>
            </trkpt>
            <trkpt lon="101.491838" lat="14.600839">
                <ele>364.957642</ele>
                <time>2009-03-28T10:17:16Z</time>
            </trkpt>
            <trkpt lon="101.491938" lat="14.600784">
                <ele>364.476929</ele>
                <time>2009-03-28T10:17:21Z</time>
            </trkpt>
            <trkpt lon="101.491926" lat="14.600610">
                <ele>365.438355</ele>
                <time>2009-03-28T10:17:30Z</time>
            </trkpt>
            <trkpt lon="101.491842" lat="14.600288">
                <ele>365.918945</ele>
                <time>2009-03-28T10:17:43Z</time>
            </trkpt>
            <trkpt lon="101.491794" lat="14.600083">
                <ele>365.918945</ele>
                <time>2009-03-28T10:17:52Z</time>
            </trkpt>
            <trkpt lon="101.491725" lat="14.599800">
                <ele>363.515747</ele>
                <time>2009-03-28T10:18:02Z</time>
            </trkpt>
            <trkpt lon="101.491670" lat="14.599613">
                <ele>361.112427</ele>
                <time>2009-03-28T10:18:06Z</time>
            </trkpt>
            <trkpt lon="101.491635" lat="14.599412">
                <ele>363.035034</ele>
                <time>2009-03-28T10:18:10Z</time>
            </trkpt>
            <trkpt lon="101.491630" lat="14.599328">
                <ele>363.996338</ele>
                <time>2009-03-28T10:18:12Z</time>
            </trkpt>
            <trkpt lon="101.491632" lat="14.599206">
                <ele>364.957642</ele>
                <time>2009-03-28T10:18:18Z</time>
            </trkpt>
            <trkpt lon="101.491662" lat="14.599029">
                <ele>365.438355</ele>
                <time>2009-03-28T10:18:27Z</time>
            </trkpt>
            <trkpt lon="101.491720" lat="14.598898">
                <ele>364.957642</ele>
                <time>2009-03-28T10:18:35Z</time>
            </trkpt>
        </trkseg>
    </trk>
</gpx>